<?xml version="1.0" encoding="UTF-8" standalone="no" ?>
<gpx xmlns="http://www.topografix.com/GPX/1/1" xmlns:xsi="http://www.w3.org/2001/XMLSchema-instance" xsi:schemaLocation="http://www.topografix.com/GPX/1/1 http://www.topografix.com/GPX/1/1/gpx.xsd" version="1.1" creator="VisuGPX - https://www.visugpx.com">
  <metadata>
    <name>La Plagne - Mars 2011 - JLo</name>
    <desc><![CDATA[Une journée à La Plagne
Enregistrée avec TrekBuddy sur Samsung Jet
Corrigée avec GpxTraceNet]]></desc>
  </metadata>
  <trk>
    <name><![CDATA[La Plagne - Mars 2011 - JLo_1]]></name>
    <trkseg>
      <trkpt lat="45.51377" lon="6.66727">
        <ele>2017</ele>
        <time>2011-03-13T08:31:01Z</time>
      </trkpt>
      <trkpt lat="45.51356" lon="6.66703">
        <ele>2037</ele>
        <time>2011-03-13T08:31:17Z</time>
      </trkpt>
      <trkpt lat="45.51332" lon="6.6668">
        <ele>2037</ele>
        <time>2011-03-13T08:31:33Z</time>
      </trkpt>
      <trkpt lat="45.51309" lon="6.66659">
        <ele>2037</ele>
        <time>2011-03-13T08:31:49Z</time>
      </trkpt>
      <trkpt lat="45.51289" lon="6.66635">
        <ele>2049</ele>
        <time>2011-03-13T08:32:05Z</time>
      </trkpt>
      <trkpt lat="45.51268" lon="6.66615">
        <ele>2066</ele>
        <time>2011-03-13T08:32:21Z</time>
      </trkpt>
      <trkpt lat="45.51248" lon="6.66596">
        <ele>2066</ele>
        <time>2011-03-13T08:32:36.179Z</time>
      </trkpt>
      <trkpt lat="45.51225" lon="6.66573">
        <ele>2066</ele>
        <time>2011-03-13T08:32:52.148Z</time>
      </trkpt>
      <trkpt lat="45.51204" lon="6.66552">
        <ele>2084</ele>
        <time>2011-03-13T08:33:08Z</time>
      </trkpt>
      <trkpt lat="45.51184" lon="6.66533">
        <ele>2093</ele>
        <time>2011-03-13T08:33:23.143Z</time>
      </trkpt>
      <trkpt lat="45.5116" lon="6.66512">
        <ele>2093</ele>
        <time>2011-03-13T08:33:39Z</time>
      </trkpt>
      <trkpt lat="45.51139" lon="6.66496">
        <ele>2093</ele>
        <time>2011-03-13T08:33:54.168Z</time>
      </trkpt>
      <trkpt lat="45.51117" lon="6.66473">
        <ele>2111</ele>
        <time>2011-03-13T08:34:10Z</time>
      </trkpt>
      <trkpt lat="45.51095" lon="6.66452">
        <ele>2115</ele>
        <time>2011-03-13T08:34:26Z</time>
      </trkpt>
      <trkpt lat="45.51079" lon="6.66424">
        <ele>2115</ele>
        <time>2011-03-13T08:34:41.171Z</time>
      </trkpt>
      <trkpt lat="45.51057" lon="6.66401">
        <ele>2115</ele>
        <time>2011-03-13T08:34:57.139Z</time>
      </trkpt>
      <trkpt lat="45.51051" lon="6.66398">
        <ele>2115</ele>
        <time>2011-03-13T08:35:13Z</time>
      </trkpt>
      <trkpt lat="45.5105" lon="6.66395">
        <ele>2115</ele>
        <time>2011-03-13T08:35:29Z</time>
      </trkpt>
      <trkpt lat="45.51049" lon="6.66395">
        <ele>2115</ele>
        <time>2011-03-13T08:35:44.158Z</time>
      </trkpt>
      <trkpt lat="45.51047" lon="6.66394">
        <ele>2115</ele>
        <time>2011-03-13T08:36:00.148Z</time>
      </trkpt>
      <trkpt lat="45.51047" lon="6.66394">
        <ele>2115</ele>
        <time>2011-03-13T08:36:15.159Z</time>
      </trkpt>
      <trkpt lat="45.51037" lon="6.66386">
        <ele>2123</ele>
        <time>2011-03-13T08:36:31.161Z</time>
      </trkpt>
      <trkpt lat="45.51038" lon="6.66385">
        <ele>2123</ele>
        <time>2011-03-13T08:36:47Z</time>
      </trkpt>
      <trkpt lat="45.51033" lon="6.66361">
        <ele>2119</ele>
        <time>2011-03-13T08:37:02.146Z</time>
      </trkpt>
      <trkpt lat="45.51075" lon="6.66334">
        <ele>2104</ele>
        <time>2011-03-13T08:37:13.159Z</time>
      </trkpt>
      <trkpt lat="45.51125" lon="6.66334">
        <ele>2104</ele>
        <time>2011-03-13T08:37:22.148Z</time>
      </trkpt>
      <trkpt lat="45.51146" lon="6.66335">
        <ele>2088</ele>
        <time>2011-03-13T08:37:38.136Z</time>
      </trkpt>
      <trkpt lat="45.51151" lon="6.66319">
        <ele>2088</ele>
        <time>2011-03-13T08:37:54Z</time>
      </trkpt>
      <trkpt lat="45.51193" lon="6.66351">
        <ele>2088</ele>
        <time>2011-03-13T08:38:09.136Z</time>
      </trkpt>
      <trkpt lat="45.51244" lon="6.66365">
        <ele>2063</ele>
        <time>2011-03-13T08:38:17.485Z</time>
      </trkpt>
      <trkpt lat="45.51295" lon="6.66378">
        <ele>2047</ele>
        <time>2011-03-13T08:38:24Z</time>
      </trkpt>
      <trkpt lat="45.51337" lon="6.66403">
        <ele>2047</ele>
        <time>2011-03-13T08:38:30Z</time>
      </trkpt>
      <trkpt lat="45.51386" lon="6.66416">
        <ele>2011</ele>
        <time>2011-03-13T08:38:38Z</time>
      </trkpt>
      <trkpt lat="45.51421" lon="6.66466">
        <ele>2023</ele>
        <time>2011-03-13T08:38:45Z</time>
      </trkpt>
      <trkpt lat="45.5146" lon="6.66498">
        <ele>1985</ele>
        <time>2011-03-13T08:38:53Z</time>
      </trkpt>
      <trkpt lat="45.51487" lon="6.66555">
        <ele>1996</ele>
        <time>2011-03-13T08:39:01Z</time>
      </trkpt>
      <trkpt lat="45.51505" lon="6.66626">
        <ele>1995</ele>
        <time>2011-03-13T08:39:08Z</time>
      </trkpt>
      <trkpt lat="45.5151" lon="6.66695">
        <ele>1995</ele>
        <time>2011-03-13T08:39:14Z</time>
      </trkpt>
      <trkpt lat="45.5151" lon="6.66755">
        <ele>1994</ele>
        <time>2011-03-13T08:39:29.141Z</time>
      </trkpt>
      <trkpt lat="45.51507" lon="6.66762">
        <ele>1994</ele>
        <time>2011-03-13T08:39:45Z</time>
      </trkpt>
      <trkpt lat="45.51507" lon="6.66762">
        <ele>1994</ele>
        <time>2011-03-13T08:40:01Z</time>
      </trkpt>
      <trkpt lat="45.51507" lon="6.66762">
        <ele>1994</ele>
        <time>2011-03-13T08:40:17Z</time>
      </trkpt>
      <trkpt lat="45.51528" lon="6.66734">
        <ele>1994</ele>
        <time>2011-03-13T08:40:32.13Z</time>
      </trkpt>
      <trkpt lat="45.51575" lon="6.66739">
        <ele>1961</ele>
        <time>2011-03-13T08:40:47.137Z</time>
      </trkpt>
      <trkpt lat="45.51613" lon="6.66704">
        <ele>1951</ele>
        <time>2011-03-13T08:41:00.132Z</time>
      </trkpt>
      <trkpt lat="45.51636" lon="6.66644">
        <ele>1922</ele>
        <time>2011-03-13T08:41:07Z</time>
      </trkpt>
      <trkpt lat="45.51652" lon="6.6659">
        <ele>1912</ele>
        <time>2011-03-13T08:41:22.184Z</time>
      </trkpt>
      <trkpt lat="45.51654" lon="6.66598">
        <ele>1912</ele>
        <time>2011-03-13T08:41:38.188Z</time>
      </trkpt>
      <trkpt lat="45.51658" lon="6.66601">
        <ele>1912</ele>
        <time>2011-03-13T08:41:54.142Z</time>
      </trkpt>
      <trkpt lat="45.5166" lon="6.666">
        <ele>1912</ele>
        <time>2011-03-13T08:42:10Z</time>
      </trkpt>
      <trkpt lat="45.51666" lon="6.666">
        <ele>1912</ele>
        <time>2011-03-13T08:42:26Z</time>
      </trkpt>
      <trkpt lat="45.5171" lon="6.66574">
        <ele>1880</ele>
        <time>2011-03-13T08:42:38Z</time>
      </trkpt>
      <trkpt lat="45.51755" lon="6.66585">
        <ele>1880</ele>
        <time>2011-03-13T08:42:45Z</time>
      </trkpt>
      <trkpt lat="45.51806" lon="6.66605">
        <ele>1840</ele>
        <time>2011-03-13T08:42:51Z</time>
      </trkpt>
      <trkpt lat="45.51855" lon="6.66616">
        <ele>1840</ele>
        <time>2011-03-13T08:42:56Z</time>
      </trkpt>
      <trkpt lat="45.51904" lon="6.6663">
        <ele>1819</ele>
        <time>2011-03-13T08:43:01Z</time>
      </trkpt>
      <trkpt lat="45.5195" lon="6.66645">
        <ele>1819</ele>
        <time>2011-03-13T08:43:05Z</time>
      </trkpt>
      <trkpt lat="45.51999" lon="6.66665">
        <ele>1795</ele>
        <time>2011-03-13T08:43:09Z</time>
      </trkpt>
      <trkpt lat="45.52043" lon="6.66701">
        <ele>1767</ele>
        <time>2011-03-13T08:43:16Z</time>
      </trkpt>
      <trkpt lat="45.5209" lon="6.66726">
        <ele>1771</ele>
        <time>2011-03-13T08:43:21Z</time>
      </trkpt>
      <trkpt lat="45.5212" lon="6.66775">
        <ele>1771</ele>
        <time>2011-03-13T08:43:26Z</time>
      </trkpt>
      <trkpt lat="45.52122" lon="6.66854">
        <ele>1768</ele>
        <time>2011-03-13T08:43:31.143Z</time>
      </trkpt>
      <trkpt lat="45.521" lon="6.66924">
        <ele>1757</ele>
        <time>2011-03-13T08:43:35.149Z</time>
      </trkpt>
      <trkpt lat="45.521" lon="6.67002">
        <ele>1744</ele>
        <time>2011-03-13T08:43:41.151Z</time>
      </trkpt>
      <trkpt lat="45.52126" lon="6.67068">
        <ele>1713</ele>
        <time>2011-03-13T08:43:48.128Z</time>
      </trkpt>
      <trkpt lat="45.52134" lon="6.67132">
        <ele>1702</ele>
        <time>2011-03-13T08:43:53Z</time>
      </trkpt>
      <trkpt lat="45.52181" lon="6.67112">
        <ele>1713</ele>
        <time>2011-03-13T08:44:02Z</time>
      </trkpt>
      <trkpt lat="45.5223" lon="6.67128">
        <ele>1670</ele>
        <time>2011-03-13T08:44:09Z</time>
      </trkpt>
      <trkpt lat="45.52277" lon="6.67143">
        <ele>1670</ele>
        <time>2011-03-13T08:44:17Z</time>
      </trkpt>
      <trkpt lat="45.5226" lon="6.67206">
        <ele>1670</ele>
        <time>2011-03-13T08:44:22Z</time>
      </trkpt>
      <trkpt lat="45.52247" lon="6.67273">
        <ele>1649</ele>
        <time>2011-03-13T08:44:28Z</time>
      </trkpt>
      <trkpt lat="45.52231" lon="6.67314">
        <ele>1635</ele>
        <time>2011-03-13T08:44:44Z</time>
      </trkpt>
      <trkpt lat="45.52247" lon="6.67378">
        <ele>1622</ele>
        <time>2011-03-13T08:44:55Z</time>
      </trkpt>
      <trkpt lat="45.52291" lon="6.67417">
        <ele>1622</ele>
        <time>2011-03-13T08:45:08Z</time>
      </trkpt>
      <trkpt lat="45.52339" lon="6.67423">
        <ele>1604</ele>
        <time>2011-03-13T08:45:14.142Z</time>
      </trkpt>
      <trkpt lat="45.52407" lon="6.67401">
        <ele>1571</ele>
        <time>2011-03-13T08:45:20.128Z</time>
      </trkpt>
      <trkpt lat="45.52453" lon="6.67395">
        <ele>1571</ele>
        <time>2011-03-13T08:45:24.155Z</time>
      </trkpt>
      <trkpt lat="45.52492" lon="6.67344">
        <ele>1538</ele>
        <time>2011-03-13T08:45:25.132Z</time>
      </trkpt>
      <trkpt lat="45.52538" lon="6.67335">
        <ele>1538</ele>
        <time>2011-03-13T08:45:30.15Z</time>
      </trkpt>
      <trkpt lat="45.52583" lon="6.67316">
        <ele>1521</ele>
        <time>2011-03-13T08:45:34.13Z</time>
      </trkpt>
      <trkpt lat="45.52563" lon="6.67286">
        <ele>1515</ele>
        <time>2011-03-13T08:45:50Z</time>
      </trkpt>
      <trkpt lat="45.52578" lon="6.67285">
        <ele>1515</ele>
        <time>2011-03-13T08:46:06Z</time>
      </trkpt>
      <trkpt lat="45.52583" lon="6.67277">
        <ele>1515</ele>
        <time>2011-03-13T08:46:22Z</time>
      </trkpt>
      <trkpt lat="45.52594" lon="6.67256">
        <ele>1515</ele>
        <time>2011-03-13T08:46:38Z</time>
      </trkpt>
      <trkpt lat="45.5258" lon="6.67268">
        <ele>1515</ele>
        <time>2011-03-13T08:46:54Z</time>
      </trkpt>
      <trkpt lat="45.52562" lon="6.67296">
        <ele>1521</ele>
        <time>2011-03-13T08:47:10Z</time>
      </trkpt>
      <trkpt lat="45.52563" lon="6.67298">
        <ele>1521</ele>
        <time>2011-03-13T08:47:26.172Z</time>
      </trkpt>
      <trkpt lat="45.52521" lon="6.67261">
        <ele>1543</ele>
        <time>2011-03-13T08:47:38.139Z</time>
      </trkpt>
      <trkpt lat="45.52475" lon="6.67246">
        <ele>1543</ele>
        <time>2011-03-13T08:47:46.17Z</time>
      </trkpt>
      <trkpt lat="45.52427" lon="6.6723">
        <ele>1587</ele>
        <time>2011-03-13T08:47:57.134Z</time>
      </trkpt>
      <trkpt lat="45.52381" lon="6.67218">
        <ele>1587</ele>
        <time>2011-03-13T08:48:07Z</time>
      </trkpt>
      <trkpt lat="45.52335" lon="6.67205">
        <ele>1638</ele>
        <time>2011-03-13T08:48:17Z</time>
      </trkpt>
      <trkpt lat="45.52293" lon="6.6718">
        <ele>1638</ele>
        <time>2011-03-13T08:48:29Z</time>
      </trkpt>
      <trkpt lat="45.52254" lon="6.67142">
        <ele>1670</ele>
        <time>2011-03-13T08:48:41Z</time>
      </trkpt>
      <trkpt lat="45.52211" lon="6.67118">
        <ele>1686</ele>
        <time>2011-03-13T08:48:52Z</time>
      </trkpt>
      <trkpt lat="45.52168" lon="6.67091">
        <ele>1713</ele>
        <time>2011-03-13T08:49:03.146Z</time>
      </trkpt>
      <trkpt lat="45.52129" lon="6.67055">
        <ele>1713</ele>
        <time>2011-03-13T08:49:14.134Z</time>
      </trkpt>
      <trkpt lat="45.52088" lon="6.67022">
        <ele>1744</ele>
        <time>2011-03-13T08:49:25Z</time>
      </trkpt>
      <trkpt lat="45.52045" lon="6.66998">
        <ele>1744</ele>
        <time>2011-03-13T08:49:36.148Z</time>
      </trkpt>
      <trkpt lat="45.52001" lon="6.66969">
        <ele>1770</ele>
        <time>2011-03-13T08:49:47Z</time>
      </trkpt>
      <trkpt lat="45.51959" lon="6.66944">
        <ele>1782</ele>
        <time>2011-03-13T08:50:02Z</time>
      </trkpt>
      <trkpt lat="45.51926" lon="6.66926">
        <ele>1810</ele>
        <time>2011-03-13T08:50:17.135Z</time>
      </trkpt>
      <trkpt lat="45.5189" lon="6.6691">
        <ele>1810</ele>
        <time>2011-03-13T08:50:33Z</time>
      </trkpt>
      <trkpt lat="45.51854" lon="6.66896">
        <ele>1842</ele>
        <time>2011-03-13T08:50:48.135Z</time>
      </trkpt>
      <trkpt lat="45.51806" lon="6.66881">
        <ele>1842</ele>
        <time>2011-03-13T08:51:02Z</time>
      </trkpt>
      <trkpt lat="45.51759" lon="6.66869">
        <ele>1887</ele>
        <time>2011-03-13T08:51:12Z</time>
      </trkpt>
      <trkpt lat="45.51708" lon="6.66861">
        <ele>1937</ele>
        <time>2011-03-13T08:51:24.163Z</time>
      </trkpt>
      <trkpt lat="45.51663" lon="6.66854">
        <ele>1937</ele>
        <time>2011-03-13T08:51:35.146Z</time>
      </trkpt>
      <trkpt lat="45.51613" lon="6.66837">
        <ele>1969</ele>
        <time>2011-03-13T08:51:42Z</time>
      </trkpt>
      <trkpt lat="45.51583" lon="6.66788">
        <ele>1961</ele>
        <time>2011-03-13T08:51:53Z</time>
      </trkpt>
      <trkpt lat="45.51547" lon="6.66739">
        <ele>1961</ele>
        <time>2011-03-13T08:52:05Z</time>
      </trkpt>
      <trkpt lat="45.5151" lon="6.66696">
        <ele>1995</ele>
        <time>2011-03-13T08:52:17Z</time>
      </trkpt>
      <trkpt lat="45.51468" lon="6.66665">
        <ele>1995</ele>
        <time>2011-03-13T08:52:28.162Z</time>
      </trkpt>
      <trkpt lat="45.5143" lon="6.66631">
        <ele>2025</ele>
        <time>2011-03-13T08:52:39.15Z</time>
      </trkpt>
      <trkpt lat="45.51386" lon="6.66604">
        <ele>2028</ele>
        <time>2011-03-13T08:52:54.993Z</time>
      </trkpt>
      <trkpt lat="45.51346" lon="6.66574">
        <ele>2051</ele>
        <time>2011-03-13T08:53:04.15Z</time>
      </trkpt>
      <trkpt lat="45.51303" lon="6.66546">
        <ele>2051</ele>
        <time>2011-03-13T08:53:15.157Z</time>
      </trkpt>
      <trkpt lat="45.51257" lon="6.66523">
        <ele>2078</ele>
        <time>2011-03-13T08:53:26.974Z</time>
      </trkpt>
      <trkpt lat="45.51211" lon="6.66495">
        <ele>2078</ele>
        <time>2011-03-13T08:53:37.17Z</time>
      </trkpt>
      <trkpt lat="45.5117" lon="6.66469">
        <ele>2093</ele>
        <time>2011-03-13T08:53:47.967Z</time>
      </trkpt>
      <trkpt lat="45.51126" lon="6.66444">
        <ele>2095</ele>
        <time>2011-03-13T08:53:58Z</time>
      </trkpt>
      <trkpt lat="45.51085" lon="6.66411">
        <ele>2115</ele>
        <time>2011-03-13T08:54:10.975Z</time>
      </trkpt>
      <trkpt lat="45.51085" lon="6.66392">
        <ele>2115</ele>
        <time>2011-03-13T08:54:26.145Z</time>
      </trkpt>
      <trkpt lat="45.51083" lon="6.66389">
        <ele>2115</ele>
        <time>2011-03-13T08:54:41.184Z</time>
      </trkpt>
      <trkpt lat="45.51075" lon="6.66385">
        <ele>2115</ele>
        <time>2011-03-13T08:54:56.988Z</time>
      </trkpt>
      <trkpt lat="45.51055" lon="6.66378">
        <ele>2115</ele>
        <time>2011-03-13T08:55:12Z</time>
      </trkpt>
      <trkpt lat="45.51051" lon="6.66376">
        <ele>2115</ele>
        <time>2011-03-13T08:55:28Z</time>
      </trkpt>
      <trkpt lat="45.51045" lon="6.66375">
        <ele>2115</ele>
        <time>2011-03-13T08:55:44Z</time>
      </trkpt>
      <trkpt lat="45.51044" lon="6.66374">
        <ele>2104</ele>
        <time>2011-03-13T08:56:00Z</time>
      </trkpt>
      <trkpt lat="45.51042" lon="6.66373">
        <ele>2104</ele>
        <time>2011-03-13T08:56:16.134Z</time>
      </trkpt>
      <trkpt lat="45.51025" lon="6.66351">
        <ele>2119</ele>
        <time>2011-03-13T08:56:31.136Z</time>
      </trkpt>
      <trkpt lat="45.51029" lon="6.66356">
        <ele>2119</ele>
        <time>2011-03-13T08:56:46.147Z</time>
      </trkpt>
      <trkpt lat="45.51029" lon="6.66356">
        <ele>2119</ele>
        <time>2011-03-13T08:57:02Z</time>
      </trkpt>
      <trkpt lat="45.5103" lon="6.66356">
        <ele>2119</ele>
        <time>2011-03-13T08:57:18.159Z</time>
      </trkpt>
      <trkpt lat="45.5108" lon="6.6634">
        <ele>2104</ele>
        <time>2011-03-13T08:57:33.123Z</time>
      </trkpt>
      <trkpt lat="45.51124" lon="6.66327">
        <ele>2104</ele>
        <time>2011-03-13T08:57:39.631Z</time>
      </trkpt>
      <trkpt lat="45.51172" lon="6.66325">
        <ele>2088</ele>
        <time>2011-03-13T08:57:48Z</time>
      </trkpt>
      <trkpt lat="45.51218" lon="6.66344">
        <ele>2063</ele>
        <time>2011-03-13T08:57:55Z</time>
      </trkpt>
      <trkpt lat="45.51267" lon="6.66353">
        <ele>2063</ele>
        <time>2011-03-13T08:58:02Z</time>
      </trkpt>
      <trkpt lat="45.51313" lon="6.66377">
        <ele>2047</ele>
        <time>2011-03-13T08:58:08Z</time>
      </trkpt>
      <trkpt lat="45.51353" lon="6.66409">
        <ele>2047</ele>
        <time>2011-03-13T08:58:14.161Z</time>
      </trkpt>
      <trkpt lat="45.51373" lon="6.66438">
        <ele>2047</ele>
        <time>2011-03-13T08:58:29.557Z</time>
      </trkpt>
      <trkpt lat="45.51414" lon="6.66481">
        <ele>2023</ele>
        <time>2011-03-13T08:58:37Z</time>
      </trkpt>
      <trkpt lat="45.51455" lon="6.66516">
        <ele>2023</ele>
        <time>2011-03-13T08:58:43Z</time>
      </trkpt>
      <trkpt lat="45.51496" lon="6.66558">
        <ele>1996</ele>
        <time>2011-03-13T08:58:49Z</time>
      </trkpt>
      <trkpt lat="45.51534" lon="6.66594">
        <ele>1996</ele>
        <time>2011-03-13T08:58:55.202Z</time>
      </trkpt>
      <trkpt lat="45.5156" lon="6.66651">
        <ele>1951</ele>
        <time>2011-03-13T08:59:00.573Z</time>
      </trkpt>
      <trkpt lat="45.5153" lon="6.66731">
        <ele>1994</ele>
        <time>2011-03-13T08:59:05Z</time>
      </trkpt>
      <trkpt lat="45.51503" lon="6.66782">
        <ele>1994</ele>
        <time>2011-03-13T08:59:09Z</time>
      </trkpt>
      <trkpt lat="45.51509" lon="6.66718">
        <ele>1994</ele>
        <time>2011-03-13T08:59:16.835Z</time>
      </trkpt>
      <trkpt lat="45.51516" lon="6.66708">
        <ele>1995</ele>
        <time>2011-03-13T08:59:32.691Z</time>
      </trkpt>
      <trkpt lat="45.51542" lon="6.6671">
        <ele>1961</ele>
        <time>2011-03-13T08:59:48.147Z</time>
      </trkpt>
      <trkpt lat="45.5159" lon="6.6672">
        <ele>1961</ele>
        <time>2011-03-13T09:00:00.128Z</time>
      </trkpt>
      <trkpt lat="45.51614" lon="6.66679">
        <ele>1951</ele>
        <time>2011-03-13T09:00:15.147Z</time>
      </trkpt>
      <trkpt lat="45.51633" lon="6.66612">
        <ele>1912</ele>
        <time>2011-03-13T09:00:27.967Z</time>
      </trkpt>
      <trkpt lat="45.5165" lon="6.66545">
        <ele>1912</ele>
        <time>2011-03-13T09:00:35Z</time>
      </trkpt>
      <trkpt lat="45.51647" lon="6.66457">
        <ele>1896</ele>
        <time>2011-03-13T09:00:43.122Z</time>
      </trkpt>
      <trkpt lat="45.51648" lon="6.66385">
        <ele>1896</ele>
        <time>2011-03-13T09:00:48.142Z</time>
      </trkpt>
      <trkpt lat="45.51647" lon="6.66319">
        <ele>1883</ele>
        <time>2011-03-13T09:00:53Z</time>
      </trkpt>
      <trkpt lat="45.51641" lon="6.66248">
        <ele>1863</ele>
        <time>2011-03-13T09:00:59.179Z</time>
      </trkpt>
      <trkpt lat="45.51626" lon="6.6616">
        <ele>1839</ele>
        <time>2011-03-13T09:01:06.131Z</time>
      </trkpt>
      <trkpt lat="45.51603" lon="6.66095">
        <ele>1848</ele>
        <time>2011-03-13T09:01:12Z</time>
      </trkpt>
      <trkpt lat="45.51574" lon="6.66042">
        <ele>1848</ele>
        <time>2011-03-13T09:01:19.15Z</time>
      </trkpt>
      <trkpt lat="45.5154" lon="6.65992">
        <ele>1856</ele>
        <time>2011-03-13T09:01:27.132Z</time>
      </trkpt>
      <trkpt lat="45.51517" lon="6.65934">
        <ele>1847</ele>
        <time>2011-03-13T09:01:35Z</time>
      </trkpt>
      <trkpt lat="45.51566" lon="6.65955">
        <ele>1825</ele>
        <time>2011-03-13T09:01:45Z</time>
      </trkpt>
      <trkpt lat="45.51616" lon="6.65956">
        <ele>1825</ele>
        <time>2011-03-13T09:01:52Z</time>
      </trkpt>
      <trkpt lat="45.51665" lon="6.65967">
        <ele>1807</ele>
        <time>2011-03-13T09:01:59.128Z</time>
      </trkpt>
      <trkpt lat="45.51711" lon="6.65983">
        <ele>1795</ele>
        <time>2011-03-13T09:02:05.129Z</time>
      </trkpt>
      <trkpt lat="45.51723" lon="6.66048">
        <ele>1790</ele>
        <time>2011-03-13T09:02:16.133Z</time>
      </trkpt>
      <trkpt lat="45.51716" lon="6.66054">
        <ele>1790</ele>
        <time>2011-03-13T09:02:32Z</time>
      </trkpt>
      <trkpt lat="45.51723" lon="6.66028">
        <ele>1795</ele>
        <time>2011-03-13T09:02:47.162Z</time>
      </trkpt>
      <trkpt lat="45.51721" lon="6.66022">
        <ele>1795</ele>
        <time>2011-03-13T09:03:03.144Z</time>
      </trkpt>
      <trkpt lat="45.51721" lon="6.66018">
        <ele>1795</ele>
        <time>2011-03-13T09:03:19Z</time>
      </trkpt>
      <trkpt lat="45.51701" lon="6.66022">
        <ele>1807</ele>
        <time>2011-03-13T09:03:35.141Z</time>
      </trkpt>
      <trkpt lat="45.51675" lon="6.66031">
        <ele>1807</ele>
        <time>2011-03-13T09:03:51Z</time>
      </trkpt>
      <trkpt lat="45.51653" lon="6.66041">
        <ele>1807</ele>
        <time>2011-03-13T09:04:06.966Z</time>
      </trkpt>
      <trkpt lat="45.51628" lon="6.66053">
        <ele>1819</ele>
        <time>2011-03-13T09:04:22.132Z</time>
      </trkpt>
      <trkpt lat="45.516" lon="6.66063">
        <ele>1848</ele>
        <time>2011-03-13T09:04:38.129Z</time>
      </trkpt>
      <trkpt lat="45.51575" lon="6.66073">
        <ele>1848</ele>
        <time>2011-03-13T09:04:53.417Z</time>
      </trkpt>
      <trkpt lat="45.51547" lon="6.66083">
        <ele>1848</ele>
        <time>2011-03-13T09:05:09Z</time>
      </trkpt>
      <trkpt lat="45.51522" lon="6.66093">
        <ele>1868</ele>
        <time>2011-03-13T09:05:25.144Z</time>
      </trkpt>
      <trkpt lat="45.51491" lon="6.66104">
        <ele>1868</ele>
        <time>2011-03-13T09:05:41.126Z</time>
      </trkpt>
      <trkpt lat="45.51462" lon="6.66116">
        <ele>1868</ele>
        <time>2011-03-13T09:05:57Z</time>
      </trkpt>
      <trkpt lat="45.51433" lon="6.66131">
        <ele>1936</ele>
        <time>2011-03-13T09:06:12.267Z</time>
      </trkpt>
      <trkpt lat="45.51238" lon="6.66171">
        <ele>2025</ele>
        <time>2011-03-13T09:08:17Z</time>
      </trkpt>
      <trkpt lat="45.51212" lon="6.66187">
        <ele>2025</ele>
        <time>2011-03-13T09:08:33Z</time>
      </trkpt>
      <trkpt lat="45.51186" lon="6.66194">
        <ele>2055</ele>
        <time>2011-03-13T09:08:49Z</time>
      </trkpt>
      <trkpt lat="45.51162" lon="6.66203">
        <ele>2055</ele>
        <time>2011-03-13T09:09:04.135Z</time>
      </trkpt>
      <trkpt lat="45.51135" lon="6.66214">
        <ele>2075</ele>
        <time>2011-03-13T09:09:20.126Z</time>
      </trkpt>
      <trkpt lat="45.51109" lon="6.66224">
        <ele>2089</ele>
        <time>2011-03-13T09:09:36Z</time>
      </trkpt>
      <trkpt lat="45.5108" lon="6.66233">
        <ele>2089</ele>
        <time>2011-03-13T09:09:52Z</time>
      </trkpt>
      <trkpt lat="45.51052" lon="6.66243">
        <ele>2089</ele>
        <time>2011-03-13T09:10:08Z</time>
      </trkpt>
      <trkpt lat="45.51027" lon="6.66251">
        <ele>2109</ele>
        <time>2011-03-13T09:10:23.167Z</time>
      </trkpt>
      <trkpt lat="45.50999" lon="6.66261">
        <ele>2109</ele>
        <time>2011-03-13T09:10:39.136Z</time>
      </trkpt>
      <trkpt lat="45.50971" lon="6.66271">
        <ele>2109</ele>
        <time>2011-03-13T09:10:55.13Z</time>
      </trkpt>
      <trkpt lat="45.50943" lon="6.66281">
        <ele>2132</ele>
        <time>2011-03-13T09:11:11Z</time>
      </trkpt>
      <trkpt lat="45.50915" lon="6.66291">
        <ele>2132</ele>
        <time>2011-03-13T09:11:27Z</time>
      </trkpt>
      <trkpt lat="45.50889" lon="6.663">
        <ele>2137</ele>
        <time>2011-03-13T09:11:42.183Z</time>
      </trkpt>
      <trkpt lat="45.50863" lon="6.66312">
        <ele>2180</ele>
        <time>2011-03-13T09:11:58.16Z</time>
      </trkpt>
      <trkpt lat="45.50839" lon="6.66322">
        <ele>2180</ele>
        <time>2011-03-13T09:12:14.138Z</time>
      </trkpt>
      <trkpt lat="45.50815" lon="6.66334">
        <ele>2180</ele>
        <time>2011-03-13T09:12:30Z</time>
      </trkpt>
      <trkpt lat="45.50789" lon="6.66342">
        <ele>2221</ele>
        <time>2011-03-13T09:12:46Z</time>
      </trkpt>
      <trkpt lat="45.50765" lon="6.66356">
        <ele>2221</ele>
        <time>2011-03-13T09:13:02Z</time>
      </trkpt>
      <trkpt lat="45.50734" lon="6.6636">
        <ele>2221</ele>
        <time>2011-03-13T09:13:17.138Z</time>
      </trkpt>
      <trkpt lat="45.507" lon="6.66366">
        <ele>2229</ele>
        <time>2011-03-13T09:13:33Z</time>
      </trkpt>
      <trkpt lat="45.507" lon="6.66369">
        <ele>2229</ele>
        <time>2011-03-13T09:13:48.147Z</time>
      </trkpt>
      <trkpt lat="45.50696" lon="6.66372">
        <ele>2229</ele>
        <time>2011-03-13T09:14:04.982Z</time>
      </trkpt>
      <trkpt lat="45.5069" lon="6.66381">
        <ele>2207</ele>
        <time>2011-03-13T09:14:20.978Z</time>
      </trkpt>
      <trkpt lat="45.5069" lon="6.6638">
        <ele>2207</ele>
        <time>2011-03-13T09:14:36.127Z</time>
      </trkpt>
      <trkpt lat="45.50687" lon="6.66385">
        <ele>2207</ele>
        <time>2011-03-13T09:14:52.134Z</time>
      </trkpt>
      <trkpt lat="45.50668" lon="6.66399">
        <ele>2207</ele>
        <time>2011-03-13T09:15:08.164Z</time>
      </trkpt>
      <trkpt lat="45.50631" lon="6.66439">
        <ele>2207</ele>
        <time>2011-03-13T09:15:20.117Z</time>
      </trkpt>
      <trkpt lat="45.50597" lon="6.66488">
        <ele>2170</ele>
        <time>2011-03-13T09:15:27.12Z</time>
      </trkpt>
      <trkpt lat="45.50571" lon="6.66552">
        <ele>2147</ele>
        <time>2011-03-13T09:15:34Z</time>
      </trkpt>
      <trkpt lat="45.50546" lon="6.66605">
        <ele>2147</ele>
        <time>2011-03-13T09:15:40.13Z</time>
      </trkpt>
      <trkpt lat="45.5053" lon="6.66686">
        <ele>2132</ele>
        <time>2011-03-13T09:15:46.128Z</time>
      </trkpt>
      <trkpt lat="45.50517" lon="6.66752">
        <ele>2118</ele>
        <time>2011-03-13T09:15:51.97Z</time>
      </trkpt>
      <trkpt lat="45.50503" lon="6.66817">
        <ele>2103</ele>
        <time>2011-03-13T09:15:58Z</time>
      </trkpt>
      <trkpt lat="45.50529" lon="6.66893">
        <ele>2086</ele>
        <time>2011-03-13T09:16:04.127Z</time>
      </trkpt>
      <trkpt lat="45.50549" lon="6.66966">
        <ele>2040</ele>
        <time>2011-03-13T09:16:11Z</time>
      </trkpt>
      <trkpt lat="45.50566" lon="6.67035">
        <ele>2040</ele>
        <time>2011-03-13T09:16:20Z</time>
      </trkpt>
      <trkpt lat="45.50567" lon="6.67101">
        <ele>2022</ele>
        <time>2011-03-13T09:16:27Z</time>
      </trkpt>
      <trkpt lat="45.50553" lon="6.67173">
        <ele>2009</ele>
        <time>2011-03-13T09:16:35Z</time>
      </trkpt>
      <trkpt lat="45.5052" lon="6.67231">
        <ele>2000</ele>
        <time>2011-03-13T09:16:40Z</time>
      </trkpt>
      <trkpt lat="45.50489" lon="6.67288">
        <ele>2000</ele>
        <time>2011-03-13T09:16:45Z</time>
      </trkpt>
      <trkpt lat="45.5047" lon="6.67352">
        <ele>1991</ele>
        <time>2011-03-13T09:16:50Z</time>
      </trkpt>
      <trkpt lat="45.50462" lon="6.67425">
        <ele>1990</ele>
        <time>2011-03-13T09:16:55Z</time>
      </trkpt>
      <trkpt lat="45.50448" lon="6.67488">
        <ele>2006</ele>
        <time>2011-03-13T09:17:00.12Z</time>
      </trkpt>
      <trkpt lat="45.5045" lon="6.67553">
        <ele>2002</ele>
        <time>2011-03-13T09:17:09.123Z</time>
      </trkpt>
      <trkpt lat="45.50471" lon="6.6761">
        <ele>1987</ele>
        <time>2011-03-13T09:17:21Z</time>
      </trkpt>
      <trkpt lat="45.50478" lon="6.67655">
        <ele>1989</ele>
        <time>2011-03-13T09:17:36.973Z</time>
      </trkpt>
      <trkpt lat="45.50472" lon="6.67668">
        <ele>1989</ele>
        <time>2011-03-13T09:17:52.125Z</time>
      </trkpt>
      <trkpt lat="45.50469" lon="6.67672">
        <ele>1989</ele>
        <time>2011-03-13T09:18:08Z</time>
      </trkpt>
      <trkpt lat="45.50475" lon="6.67675">
        <ele>1989</ele>
        <time>2011-03-13T09:18:24Z</time>
      </trkpt>
      <trkpt lat="45.50479" lon="6.67676">
        <ele>1989</ele>
        <time>2011-03-13T09:18:40Z</time>
      </trkpt>
      <trkpt lat="45.50486" lon="6.67674">
        <ele>1989</ele>
        <time>2011-03-13T09:18:55.127Z</time>
      </trkpt>
      <trkpt lat="45.50488" lon="6.67682">
        <ele>1989</ele>
        <time>2011-03-13T09:19:10.128Z</time>
      </trkpt>
      <trkpt lat="45.50487" lon="6.67688">
        <ele>1989</ele>
        <time>2011-03-13T09:19:26Z</time>
      </trkpt>
      <trkpt lat="45.50484" lon="6.67696">
        <ele>1989</ele>
        <time>2011-03-13T09:19:41.962Z</time>
      </trkpt>
      <trkpt lat="45.50477" lon="6.67698">
        <ele>1989</ele>
        <time>2011-03-13T09:19:57.122Z</time>
      </trkpt>
      <trkpt lat="45.50479" lon="6.67691">
        <ele>1989</ele>
        <time>2011-03-13T09:20:12.135Z</time>
      </trkpt>
      <trkpt lat="45.5048" lon="6.67688">
        <ele>1989</ele>
        <time>2011-03-13T09:20:27.161Z</time>
      </trkpt>
      <trkpt lat="45.50479" lon="6.67684">
        <ele>1989</ele>
        <time>2011-03-13T09:20:43Z</time>
      </trkpt>
      <trkpt lat="45.50476" lon="6.67677">
        <ele>1989</ele>
        <time>2011-03-13T09:20:59Z</time>
      </trkpt>
      <trkpt lat="45.50475" lon="6.67673">
        <ele>1989</ele>
        <time>2011-03-13T09:21:15Z</time>
      </trkpt>
      <trkpt lat="45.50472" lon="6.67671">
        <ele>1989</ele>
        <time>2011-03-13T09:21:30.126Z</time>
      </trkpt>
      <trkpt lat="45.50464" lon="6.67667">
        <ele>1989</ele>
        <time>2011-03-13T09:21:46Z</time>
      </trkpt>
      <trkpt lat="45.50424" lon="6.67681">
        <ele>2000</ele>
        <time>2011-03-13T09:22:02Z</time>
      </trkpt>
      <trkpt lat="45.50381" lon="6.67694">
        <ele>2000</ele>
        <time>2011-03-13T09:22:17.127Z</time>
      </trkpt>
      <trkpt lat="45.50337" lon="6.67713">
        <ele>2021</ele>
        <time>2011-03-13T09:22:32.12Z</time>
      </trkpt>
      <trkpt lat="45.50292" lon="6.6773">
        <ele>2021</ele>
        <time>2011-03-13T09:22:47Z</time>
      </trkpt>
      <trkpt lat="45.50247" lon="6.67746">
        <ele>2042</ele>
        <time>2011-03-13T09:23:03Z</time>
      </trkpt>
      <trkpt lat="45.50201" lon="6.6776">
        <ele>2061</ele>
        <time>2011-03-13T09:23:19.143Z</time>
      </trkpt>
      <trkpt lat="45.50156" lon="6.67772">
        <ele>2061</ele>
        <time>2011-03-13T09:23:34.137Z</time>
      </trkpt>
      <trkpt lat="45.50114" lon="6.67796">
        <ele>2085</ele>
        <time>2011-03-13T09:23:49Z</time>
      </trkpt>
      <trkpt lat="45.50068" lon="6.67811">
        <ele>2085</ele>
        <time>2011-03-13T09:24:04Z</time>
      </trkpt>
      <trkpt lat="45.50023" lon="6.67813">
        <ele>2103</ele>
        <time>2011-03-13T09:24:18Z</time>
      </trkpt>
      <trkpt lat="45.49976" lon="6.67813">
        <ele>2103</ele>
        <time>2011-03-13T09:24:33.133Z</time>
      </trkpt>
      <trkpt lat="45.4993" lon="6.67821">
        <ele>2134</ele>
        <time>2011-03-13T09:24:48.129Z</time>
      </trkpt>
      <trkpt lat="45.49883" lon="6.67829">
        <ele>2134</ele>
        <time>2011-03-13T09:25:03Z</time>
      </trkpt>
      <trkpt lat="45.49839" lon="6.6784">
        <ele>2159</ele>
        <time>2011-03-13T09:25:18.147Z</time>
      </trkpt>
      <trkpt lat="45.49792" lon="6.67852">
        <ele>2159</ele>
        <time>2011-03-13T09:25:34.135Z</time>
      </trkpt>
      <trkpt lat="45.49746" lon="6.67863">
        <ele>2182</ele>
        <time>2011-03-13T09:25:49.531Z</time>
      </trkpt>
      <trkpt lat="45.497" lon="6.67873">
        <ele>2203</ele>
        <time>2011-03-13T09:26:04Z</time>
      </trkpt>
      <trkpt lat="45.49655" lon="6.67881">
        <ele>2204</ele>
        <time>2011-03-13T09:26:18.134Z</time>
      </trkpt>
      <trkpt lat="45.4961" lon="6.67891">
        <ele>2226</ele>
        <time>2011-03-13T09:26:33.126Z</time>
      </trkpt>
      <trkpt lat="45.49563" lon="6.67901">
        <ele>2226</ele>
        <time>2011-03-13T09:26:48Z</time>
      </trkpt>
      <trkpt lat="45.49517" lon="6.67915">
        <ele>2251</ele>
        <time>2011-03-13T09:27:04Z</time>
      </trkpt>
      <trkpt lat="45.49472" lon="6.67929">
        <ele>2251</ele>
        <time>2011-03-13T09:27:20Z</time>
      </trkpt>
      <trkpt lat="45.49426" lon="6.6794">
        <ele>2278</ele>
        <time>2011-03-13T09:27:35Z</time>
      </trkpt>
      <trkpt lat="45.4938" lon="6.67949">
        <ele>2278</ele>
        <time>2011-03-13T09:27:50Z</time>
      </trkpt>
      <trkpt lat="45.49358" lon="6.67973">
        <ele>2300</ele>
        <time>2011-03-13T09:28:05.146Z</time>
      </trkpt>
      <trkpt lat="45.49356" lon="6.67975">
        <ele>2300</ele>
        <time>2011-03-13T09:28:21Z</time>
      </trkpt>
      <trkpt lat="45.49354" lon="6.67972">
        <ele>2300</ele>
        <time>2011-03-13T09:28:37Z</time>
      </trkpt>
      <trkpt lat="45.49351" lon="6.67966">
        <ele>2300</ele>
        <time>2011-03-13T09:28:53Z</time>
      </trkpt>
      <trkpt lat="45.49351" lon="6.67966">
        <ele>2300</ele>
        <time>2011-03-13T09:29:09Z</time>
      </trkpt>
      <trkpt lat="45.4935" lon="6.67966">
        <ele>2300</ele>
        <time>2011-03-13T09:29:25Z</time>
      </trkpt>
      <trkpt lat="45.49349" lon="6.67963">
        <ele>2300</ele>
        <time>2011-03-13T09:29:41Z</time>
      </trkpt>
      <trkpt lat="45.49349" lon="6.67966">
        <ele>2300</ele>
        <time>2011-03-13T09:29:56.126Z</time>
      </trkpt>
      <trkpt lat="45.49348" lon="6.67968">
        <ele>2300</ele>
        <time>2011-03-13T09:30:12.139Z</time>
      </trkpt>
      <trkpt lat="45.49347" lon="6.67963">
        <ele>2300</ele>
        <time>2011-03-13T09:30:28.122Z</time>
      </trkpt>
      <trkpt lat="45.49346" lon="6.67964">
        <ele>2300</ele>
        <time>2011-03-13T09:30:43.123Z</time>
      </trkpt>
      <trkpt lat="45.49344" lon="6.67964">
        <ele>2300</ele>
        <time>2011-03-13T09:30:59.98Z</time>
      </trkpt>
      <trkpt lat="45.49341" lon="6.67962">
        <ele>2300</ele>
        <time>2011-03-13T09:31:15Z</time>
      </trkpt>
      <trkpt lat="45.49341" lon="6.67965">
        <ele>2300</ele>
        <time>2011-03-13T09:31:31.153Z</time>
      </trkpt>
      <trkpt lat="45.49344" lon="6.67961">
        <ele>2300</ele>
        <time>2011-03-13T09:31:47Z</time>
      </trkpt>
      <trkpt lat="45.49343" lon="6.67962">
        <ele>2300</ele>
        <time>2011-03-13T09:32:02.965Z</time>
      </trkpt>
      <trkpt lat="45.49344" lon="6.67962">
        <ele>2300</ele>
        <time>2011-03-13T09:32:18.138Z</time>
      </trkpt>
      <trkpt lat="45.49344" lon="6.67962">
        <ele>2300</ele>
        <time>2011-03-13T09:32:34Z</time>
      </trkpt>
      <trkpt lat="45.49343" lon="6.67961">
        <ele>2300</ele>
        <time>2011-03-13T09:32:50Z</time>
      </trkpt>
      <trkpt lat="45.49343" lon="6.6796">
        <ele>2300</ele>
        <time>2011-03-13T09:33:05.134Z</time>
      </trkpt>
      <trkpt lat="45.49344" lon="6.6797">
        <ele>2300</ele>
        <time>2011-03-13T09:33:20.966Z</time>
      </trkpt>
      <trkpt lat="45.49376" lon="6.6803">
        <ele>2282</ele>
        <time>2011-03-13T09:33:37.114Z</time>
      </trkpt>
      <trkpt lat="45.49413" lon="6.68073">
        <ele>2276</ele>
        <time>2011-03-13T09:33:44Z</time>
      </trkpt>
      <trkpt lat="45.49456" lon="6.68111">
        <ele>2276</ele>
        <time>2011-03-13T09:33:51.169Z</time>
      </trkpt>
      <trkpt lat="45.49494" lon="6.68147">
        <ele>2248</ele>
        <time>2011-03-13T09:33:57.12Z</time>
      </trkpt>
      <trkpt lat="45.49542" lon="6.68174">
        <ele>2224</ele>
        <time>2011-03-13T09:34:03.96Z</time>
      </trkpt>
      <trkpt lat="45.49587" lon="6.68198">
        <ele>2224</ele>
        <time>2011-03-13T09:34:09Z</time>
      </trkpt>
      <trkpt lat="45.49633" lon="6.68219">
        <ele>2211</ele>
        <time>2011-03-13T09:34:16.121Z</time>
      </trkpt>
      <trkpt lat="45.49682" lon="6.68224">
        <ele>2211</ele>
        <time>2011-03-13T09:34:22.118Z</time>
      </trkpt>
      <trkpt lat="45.49731" lon="6.68223">
        <ele>2198</ele>
        <time>2011-03-13T09:34:28Z</time>
      </trkpt>
      <trkpt lat="45.49781" lon="6.68217">
        <ele>2198</ele>
        <time>2011-03-13T09:34:34.142Z</time>
      </trkpt>
      <trkpt lat="45.49825" lon="6.682">
        <ele>2182</ele>
        <time>2011-03-13T09:34:41.117Z</time>
      </trkpt>
      <trkpt lat="45.4982" lon="6.68201">
        <ele>2182</ele>
        <time>2011-03-13T09:34:56.158Z</time>
      </trkpt>
      <trkpt lat="45.49813" lon="6.68198">
        <ele>2182</ele>
        <time>2011-03-13T09:35:12Z</time>
      </trkpt>
      <trkpt lat="45.49861" lon="6.68214">
        <ele>2175</ele>
        <time>2011-03-13T09:35:21.119Z</time>
      </trkpt>
      <trkpt lat="45.49898" lon="6.68258">
        <ele>2152</ele>
        <time>2011-03-13T09:35:29Z</time>
      </trkpt>
      <trkpt lat="45.49941" lon="6.68291">
        <ele>2152</ele>
        <time>2011-03-13T09:35:35Z</time>
      </trkpt>
      <trkpt lat="45.49987" lon="6.68304">
        <ele>2140</ele>
        <time>2011-03-13T09:35:40.12Z</time>
      </trkpt>
      <trkpt lat="45.50032" lon="6.68283">
        <ele>2131</ele>
        <time>2011-03-13T09:35:45.978Z</time>
      </trkpt>
      <trkpt lat="45.50036" lon="6.68278">
        <ele>2131</ele>
        <time>2011-03-13T09:36:01.948Z</time>
      </trkpt>
      <trkpt lat="45.5003" lon="6.68265">
        <ele>2131</ele>
        <time>2011-03-13T09:36:18.126Z</time>
      </trkpt>
      <trkpt lat="45.50071" lon="6.6822">
        <ele>2122</ele>
        <time>2011-03-13T09:36:30.951Z</time>
      </trkpt>
      <trkpt lat="45.50115" lon="6.68192">
        <ele>2110</ele>
        <time>2011-03-13T09:36:37Z</time>
      </trkpt>
      <trkpt lat="45.50109" lon="6.68187">
        <ele>2110</ele>
        <time>2011-03-13T09:36:53Z</time>
      </trkpt>
      <trkpt lat="45.50103" lon="6.68183">
        <ele>2110</ele>
        <time>2011-03-13T09:37:08.14Z</time>
      </trkpt>
      <trkpt lat="45.50129" lon="6.68127">
        <ele>2093</ele>
        <time>2011-03-13T09:37:22.116Z</time>
      </trkpt>
      <trkpt lat="45.50175" lon="6.68114">
        <ele>2086</ele>
        <time>2011-03-13T09:37:26.109Z</time>
      </trkpt>
      <trkpt lat="45.50219" lon="6.68065">
        <ele>2067</ele>
        <time>2011-03-13T09:37:31.948Z</time>
      </trkpt>
      <trkpt lat="45.50253" lon="6.68018">
        <ele>2063</ele>
        <time>2011-03-13T09:37:36Z</time>
      </trkpt>
      <trkpt lat="45.50283" lon="6.67966">
        <ele>2063</ele>
        <time>2011-03-13T09:37:44.106Z</time>
      </trkpt>
      <trkpt lat="45.50298" lon="6.67915">
        <ele>2032</ele>
        <time>2011-03-13T09:38:01.189Z</time>
      </trkpt>
      <trkpt lat="45.503" lon="6.67905">
        <ele>2032</ele>
        <time>2011-03-13T09:38:17Z</time>
      </trkpt>
      <trkpt lat="45.50297" lon="6.67896">
        <ele>2032</ele>
        <time>2011-03-13T09:38:33Z</time>
      </trkpt>
      <trkpt lat="45.50296" lon="6.67896">
        <ele>2032</ele>
        <time>2011-03-13T09:38:49Z</time>
      </trkpt>
      <trkpt lat="45.50296" lon="6.67888">
        <ele>2032</ele>
        <time>2011-03-13T09:39:05.136Z</time>
      </trkpt>
      <trkpt lat="45.50324" lon="6.67837">
        <ele>2022</ele>
        <time>2011-03-13T09:39:11.112Z</time>
      </trkpt>
      <trkpt lat="45.50375" lon="6.67857">
        <ele>2004</ele>
        <time>2011-03-13T09:39:14.129Z</time>
      </trkpt>
      <trkpt lat="45.50418" lon="6.67827">
        <ele>2004</ele>
        <time>2011-03-13T09:39:19.122Z</time>
      </trkpt>
      <trkpt lat="45.50466" lon="6.67802">
        <ele>1993</ele>
        <time>2011-03-13T09:39:26.136Z</time>
      </trkpt>
      <trkpt lat="45.50514" lon="6.6779">
        <ele>1991</ele>
        <time>2011-03-13T09:39:34.108Z</time>
      </trkpt>
      <trkpt lat="45.50539" lon="6.67763">
        <ele>1991</ele>
        <time>2011-03-13T09:39:49.125Z</time>
      </trkpt>
      <trkpt lat="45.50534" lon="6.67752">
        <ele>1991</ele>
        <time>2011-03-13T09:40:05Z</time>
      </trkpt>
      <trkpt lat="45.50532" lon="6.67747">
        <ele>1991</ele>
        <time>2011-03-13T09:40:21Z</time>
      </trkpt>
      <trkpt lat="45.50532" lon="6.67747">
        <ele>1991</ele>
        <time>2011-03-13T09:40:36.118Z</time>
      </trkpt>
      <trkpt lat="45.50531" lon="6.67745">
        <ele>1991</ele>
        <time>2011-03-13T09:40:51.148Z</time>
      </trkpt>
      <trkpt lat="45.50529" lon="6.6774">
        <ele>1991</ele>
        <time>2011-03-13T09:41:07Z</time>
      </trkpt>
      <trkpt lat="45.50528" lon="6.67739">
        <ele>1991</ele>
        <time>2011-03-13T09:41:22.118Z</time>
      </trkpt>
      <trkpt lat="45.50527" lon="6.67738">
        <ele>1991</ele>
        <time>2011-03-13T09:41:37.135Z</time>
      </trkpt>
      <trkpt lat="45.50527" lon="6.67738">
        <ele>1991</ele>
        <time>2011-03-13T09:41:53Z</time>
      </trkpt>
      <trkpt lat="45.50527" lon="6.67738">
        <ele>1991</ele>
        <time>2011-03-13T09:42:09Z</time>
      </trkpt>
      <trkpt lat="45.50528" lon="6.67735">
        <ele>1991</ele>
        <time>2011-03-13T09:42:25Z</time>
      </trkpt>
      <trkpt lat="45.50529" lon="6.67735">
        <ele>1991</ele>
        <time>2011-03-13T09:42:41Z</time>
      </trkpt>
      <trkpt lat="45.5053" lon="6.67734">
        <ele>1991</ele>
        <time>2011-03-13T09:42:57Z</time>
      </trkpt>
      <trkpt lat="45.5053" lon="6.67734">
        <ele>1991</ele>
        <time>2011-03-13T09:43:13Z</time>
      </trkpt>
      <trkpt lat="45.5053" lon="6.67734">
        <ele>1991</ele>
        <time>2011-03-13T09:43:28.121Z</time>
      </trkpt>
      <trkpt lat="45.5053" lon="6.67734">
        <ele>1991</ele>
        <time>2011-03-13T09:43:43.13Z</time>
      </trkpt>
      <trkpt lat="45.5053" lon="6.67734">
        <ele>1991</ele>
        <time>2011-03-13T09:43:59.951Z</time>
      </trkpt>
      <trkpt lat="45.5053" lon="6.67735">
        <ele>1991</ele>
        <time>2011-03-13T09:45:38Z</time>
      </trkpt>
      <trkpt lat="45.50478" lon="6.67752">
        <ele>1991</ele>
        <time>2011-03-13T09:45:50Z</time>
      </trkpt>
      <trkpt lat="45.50429" lon="6.67776">
        <ele>2001</ele>
        <time>2011-03-13T09:45:55Z</time>
      </trkpt>
      <trkpt lat="45.50375" lon="6.67796">
        <ele>2004</ele>
        <time>2011-03-13T09:46:01Z</time>
      </trkpt>
      <trkpt lat="45.50327" lon="6.6782">
        <ele>2022</ele>
        <time>2011-03-13T09:46:08Z</time>
      </trkpt>
      <trkpt lat="45.5028" lon="6.67848">
        <ele>2045</ele>
        <time>2011-03-13T09:46:15.142Z</time>
      </trkpt>
      <trkpt lat="45.50234" lon="6.67878">
        <ele>2056</ele>
        <time>2011-03-13T09:46:22.124Z</time>
      </trkpt>
      <trkpt lat="45.50186" lon="6.67895">
        <ele>2078</ele>
        <time>2011-03-13T09:46:29.135Z</time>
      </trkpt>
      <trkpt lat="45.50139" lon="6.67912">
        <ele>2078</ele>
        <time>2011-03-13T09:46:36.546Z</time>
      </trkpt>
      <trkpt lat="45.50094" lon="6.67931">
        <ele>2092</ele>
        <time>2011-03-13T09:46:43Z</time>
      </trkpt>
      <trkpt lat="45.50041" lon="6.67951">
        <ele>2105</ele>
        <time>2011-03-13T09:46:50Z</time>
      </trkpt>
      <trkpt lat="45.49997" lon="6.67968">
        <ele>2111</ele>
        <time>2011-03-13T09:46:57Z</time>
      </trkpt>
      <trkpt lat="45.4995" lon="6.67985">
        <ele>2137</ele>
        <time>2011-03-13T09:47:04Z</time>
      </trkpt>
      <trkpt lat="45.49905" lon="6.68005">
        <ele>2137</ele>
        <time>2011-03-13T09:47:11Z</time>
      </trkpt>
      <trkpt lat="45.49862" lon="6.6803">
        <ele>2169</ele>
        <time>2011-03-13T09:47:18Z</time>
      </trkpt>
      <trkpt lat="45.49814" lon="6.68052">
        <ele>2182</ele>
        <time>2011-03-13T09:47:25Z</time>
      </trkpt>
      <trkpt lat="45.49768" lon="6.68071">
        <ele>2195</ele>
        <time>2011-03-13T09:47:33Z</time>
      </trkpt>
      <trkpt lat="45.49721" lon="6.68093">
        <ele>2195</ele>
        <time>2011-03-13T09:47:42Z</time>
      </trkpt>
      <trkpt lat="45.49673" lon="6.68103">
        <ele>2206</ele>
        <time>2011-03-13T09:47:49.12Z</time>
      </trkpt>
      <trkpt lat="45.49627" lon="6.68121">
        <ele>2206</ele>
        <time>2011-03-13T09:47:57.106Z</time>
      </trkpt>
      <trkpt lat="45.49586" lon="6.6815">
        <ele>2224</ele>
        <time>2011-03-13T09:48:05Z</time>
      </trkpt>
      <trkpt lat="45.4954" lon="6.68176">
        <ele>2248</ele>
        <time>2011-03-13T09:48:13.118Z</time>
      </trkpt>
      <trkpt lat="45.49494" lon="6.68196">
        <ele>2248</ele>
        <time>2011-03-13T09:48:21.104Z</time>
      </trkpt>
      <trkpt lat="45.49449" lon="6.68215">
        <ele>2318</ele>
        <time>2011-03-13T09:48:28Z</time>
      </trkpt>
      <trkpt lat="45.49407" lon="6.68245">
        <ele>2318</ele>
        <time>2011-03-13T09:48:36Z</time>
      </trkpt>
      <trkpt lat="45.49361" lon="6.68262">
        <ele>2379</ele>
        <time>2011-03-13T09:48:44.116Z</time>
      </trkpt>
      <trkpt lat="45.49319" lon="6.6829">
        <ele>2379</ele>
        <time>2011-03-13T09:48:52.117Z</time>
      </trkpt>
      <trkpt lat="45.49271" lon="6.68319">
        <ele>2450</ele>
        <time>2011-03-13T09:49:01.106Z</time>
      </trkpt>
      <trkpt lat="45.49222" lon="6.68335">
        <ele>2450</ele>
        <time>2011-03-13T09:49:09Z</time>
      </trkpt>
      <trkpt lat="45.49175" lon="6.68356">
        <ele>2486</ele>
        <time>2011-03-13T09:49:17Z</time>
      </trkpt>
      <trkpt lat="45.49125" lon="6.68368">
        <ele>2486</ele>
        <time>2011-03-13T09:49:24Z</time>
      </trkpt>
      <trkpt lat="45.49097" lon="6.68361">
        <ele>2471</ele>
        <time>2011-03-13T09:49:40Z</time>
      </trkpt>
      <trkpt lat="45.49131" lon="6.68451">
        <ele>2494</ele>
        <time>2011-03-13T09:49:54.857Z</time>
      </trkpt>
      <trkpt lat="45.49161" lon="6.685">
        <ele>2485</ele>
        <time>2011-03-13T09:49:56.659Z</time>
      </trkpt>
      <trkpt lat="45.49179" lon="6.68527">
        <ele>2485</ele>
        <time>2011-03-13T09:50:12Z</time>
      </trkpt>
      <trkpt lat="45.49178" lon="6.685">
        <ele>2485</ele>
        <time>2011-03-13T09:50:28.126Z</time>
      </trkpt>
      <trkpt lat="45.49175" lon="6.6848">
        <ele>2485</ele>
        <time>2011-03-13T09:50:44.138Z</time>
      </trkpt>
      <trkpt lat="45.4916" lon="6.68453">
        <ele>2494</ele>
        <time>2011-03-13T09:51:00.522Z</time>
      </trkpt>
      <trkpt lat="45.4915" lon="6.68446">
        <ele>2494</ele>
        <time>2011-03-13T09:51:16.137Z</time>
      </trkpt>
      <trkpt lat="45.49141" lon="6.68432">
        <ele>2494</ele>
        <time>2011-03-13T09:51:32.12Z</time>
      </trkpt>
      <trkpt lat="45.49136" lon="6.68405">
        <ele>2494</ele>
        <time>2011-03-13T09:51:48Z</time>
      </trkpt>
      <trkpt lat="45.49124" lon="6.68341">
        <ele>2471</ele>
        <time>2011-03-13T09:52:01Z</time>
      </trkpt>
      <trkpt lat="45.49109" lon="6.68275">
        <ele>2457</ele>
        <time>2011-03-13T09:52:10Z</time>
      </trkpt>
      <trkpt lat="45.49094" lon="6.68209">
        <ele>2457</ele>
        <time>2011-03-13T09:52:19.123Z</time>
      </trkpt>
      <trkpt lat="45.49072" lon="6.68144">
        <ele>2441</ele>
        <time>2011-03-13T09:52:27.128Z</time>
      </trkpt>
      <trkpt lat="45.49047" lon="6.68096">
        <ele>2418</ele>
        <time>2011-03-13T09:52:43.106Z</time>
      </trkpt>
      <trkpt lat="45.49048" lon="6.6805">
        <ele>2418</ele>
        <time>2011-03-13T09:52:59Z</time>
      </trkpt>
      <trkpt lat="45.49052" lon="6.68052">
        <ele>2418</ele>
        <time>2011-03-13T09:53:15Z</time>
      </trkpt>
      <trkpt lat="45.49055" lon="6.68055">
        <ele>2418</ele>
        <time>2011-03-13T09:53:31Z</time>
      </trkpt>
      <trkpt lat="45.4904" lon="6.67999">
        <ele>2398</ele>
        <time>2011-03-13T09:53:46.168Z</time>
      </trkpt>
      <trkpt lat="45.49075" lon="6.67951">
        <ele>2382</ele>
        <time>2011-03-13T09:53:56.107Z</time>
      </trkpt>
      <trkpt lat="45.49113" lon="6.67916">
        <ele>2382</ele>
        <time>2011-03-13T09:54:07.126Z</time>
      </trkpt>
      <trkpt lat="45.49158" lon="6.67907">
        <ele>2342</ele>
        <time>2011-03-13T09:54:15.109Z</time>
      </trkpt>
      <trkpt lat="45.49208" lon="6.67902">
        <ele>2342</ele>
        <time>2011-03-13T09:54:23.102Z</time>
      </trkpt>
      <trkpt lat="45.49258" lon="6.679">
        <ele>2314</ele>
        <time>2011-03-13T09:54:29Z</time>
      </trkpt>
      <trkpt lat="45.49305" lon="6.67915">
        <ele>2295</ele>
        <time>2011-03-13T09:54:34Z</time>
      </trkpt>
      <trkpt lat="45.49352" lon="6.67897">
        <ele>2295</ele>
        <time>2011-03-13T09:54:42Z</time>
      </trkpt>
      <trkpt lat="45.49396" lon="6.67864">
        <ele>2271</ele>
        <time>2011-03-13T09:54:49Z</time>
      </trkpt>
      <trkpt lat="45.49434" lon="6.67813">
        <ele>2271</ele>
        <time>2011-03-13T09:54:57Z</time>
      </trkpt>
      <trkpt lat="45.4947" lon="6.67771">
        <ele>2241</ele>
        <time>2011-03-13T09:55:05Z</time>
      </trkpt>
      <trkpt lat="45.49509" lon="6.67729">
        <ele>2241</ele>
        <time>2011-03-13T09:55:13Z</time>
      </trkpt>
      <trkpt lat="45.4956" lon="6.67719">
        <ele>2219</ele>
        <time>2011-03-13T09:55:20.132Z</time>
      </trkpt>
      <trkpt lat="45.49608" lon="6.67717">
        <ele>2219</ele>
        <time>2011-03-13T09:55:26.115Z</time>
      </trkpt>
      <trkpt lat="45.49658" lon="6.67715">
        <ele>2200</ele>
        <time>2011-03-13T09:55:33.114Z</time>
      </trkpt>
      <trkpt lat="45.49705" lon="6.67693">
        <ele>2193</ele>
        <time>2011-03-13T09:55:41Z</time>
      </trkpt>
      <trkpt lat="45.49741" lon="6.67642">
        <ele>2180</ele>
        <time>2011-03-13T09:55:48Z</time>
      </trkpt>
      <trkpt lat="45.49779" lon="6.67602">
        <ele>2173</ele>
        <time>2011-03-13T09:55:55Z</time>
      </trkpt>
      <trkpt lat="45.49821" lon="6.67577">
        <ele>2153</ele>
        <time>2011-03-13T09:56:01Z</time>
      </trkpt>
      <trkpt lat="45.49868" lon="6.67577">
        <ele>2153</ele>
        <time>2011-03-13T09:56:07Z</time>
      </trkpt>
      <trkpt lat="45.49916" lon="6.67574">
        <ele>2130</ele>
        <time>2011-03-13T09:56:13.116Z</time>
      </trkpt>
      <trkpt lat="45.49965" lon="6.67549">
        <ele>2117</ele>
        <time>2011-03-13T09:56:19Z</time>
      </trkpt>
      <trkpt lat="45.50017" lon="6.67542">
        <ele>2117</ele>
        <time>2011-03-13T09:56:26.125Z</time>
      </trkpt>
      <trkpt lat="45.50017" lon="6.67559">
        <ele>2117</ele>
        <time>2011-03-13T09:56:42.109Z</time>
      </trkpt>
      <trkpt lat="45.50011" lon="6.67551">
        <ele>2117</ele>
        <time>2011-03-13T09:56:58Z</time>
      </trkpt>
      <trkpt lat="45.50006" lon="6.67546">
        <ele>2117</ele>
        <time>2011-03-13T09:57:13.122Z</time>
      </trkpt>
      <trkpt lat="45.49987" lon="6.6754">
        <ele>2123</ele>
        <time>2011-03-13T09:57:29.953Z</time>
      </trkpt>
      <trkpt lat="45.49955" lon="6.6754">
        <ele>2131</ele>
        <time>2011-03-13T09:57:45.11Z</time>
      </trkpt>
      <trkpt lat="45.49927" lon="6.67542">
        <ele>2130</ele>
        <time>2011-03-13T09:58:01.13Z</time>
      </trkpt>
      <trkpt lat="45.49896" lon="6.67543">
        <ele>2130</ele>
        <time>2011-03-13T09:58:17Z</time>
      </trkpt>
      <trkpt lat="45.49867" lon="6.67546">
        <ele>2153</ele>
        <time>2011-03-13T09:58:33Z</time>
      </trkpt>
      <trkpt lat="45.49837" lon="6.67546">
        <ele>2153</ele>
        <time>2011-03-13T09:58:49Z</time>
      </trkpt>
      <trkpt lat="45.49806" lon="6.67544">
        <ele>2153</ele>
        <time>2011-03-13T09:59:05Z</time>
      </trkpt>
      <trkpt lat="45.49776" lon="6.67545">
        <ele>2173</ele>
        <time>2011-03-13T09:59:21Z</time>
      </trkpt>
      <trkpt lat="45.49746" lon="6.67545">
        <ele>2173</ele>
        <time>2011-03-13T09:59:37Z</time>
      </trkpt>
      <trkpt lat="45.4972" lon="6.67545">
        <ele>2173</ele>
        <time>2011-03-13T09:59:52.145Z</time>
      </trkpt>
      <trkpt lat="45.49691" lon="6.67544">
        <ele>2192</ele>
        <time>2011-03-13T10:00:08.127Z</time>
      </trkpt>
      <trkpt lat="45.49661" lon="6.67544">
        <ele>2192</ele>
        <time>2011-03-13T10:00:24.134Z</time>
      </trkpt>
      <trkpt lat="45.4963" lon="6.67544">
        <ele>2192</ele>
        <time>2011-03-13T10:00:40.111Z</time>
      </trkpt>
      <trkpt lat="45.49601" lon="6.67544">
        <ele>2208</ele>
        <time>2011-03-13T10:00:56Z</time>
      </trkpt>
      <trkpt lat="45.49571" lon="6.67544">
        <ele>2208</ele>
        <time>2011-03-13T10:01:12.129Z</time>
      </trkpt>
      <trkpt lat="45.49541" lon="6.67543">
        <ele>2224</ele>
        <time>2011-03-13T10:01:28.142Z</time>
      </trkpt>
      <trkpt lat="45.4951" lon="6.67543">
        <ele>2224</ele>
        <time>2011-03-13T10:01:44.11Z</time>
      </trkpt>
      <trkpt lat="45.49483" lon="6.67542">
        <ele>2224</ele>
        <time>2011-03-13T10:01:59.116Z</time>
      </trkpt>
      <trkpt lat="45.49451" lon="6.67541">
        <ele>2245</ele>
        <time>2011-03-13T10:02:15Z</time>
      </trkpt>
      <trkpt lat="45.49423" lon="6.67541">
        <ele>2245</ele>
        <time>2011-03-13T10:02:30.116Z</time>
      </trkpt>
      <trkpt lat="45.49393" lon="6.67541">
        <ele>2245</ele>
        <time>2011-03-13T10:02:46.112Z</time>
      </trkpt>
      <trkpt lat="45.49368" lon="6.67541">
        <ele>2284</ele>
        <time>2011-03-13T10:03:01.204Z</time>
      </trkpt>
      <trkpt lat="45.49341" lon="6.67539">
        <ele>2284</ele>
        <time>2011-03-13T10:03:17Z</time>
      </trkpt>
      <trkpt lat="45.49317" lon="6.67538">
        <ele>2284</ele>
        <time>2011-03-13T10:03:33Z</time>
      </trkpt>
      <trkpt lat="45.49294" lon="6.67541">
        <ele>2284</ele>
        <time>2011-03-13T10:03:49Z</time>
      </trkpt>
      <trkpt lat="45.49267" lon="6.67543">
        <ele>2339</ele>
        <time>2011-03-13T10:04:05Z</time>
      </trkpt>
      <trkpt lat="45.49239" lon="6.67543">
        <ele>2339</ele>
        <time>2011-03-13T10:04:20.966Z</time>
      </trkpt>
      <trkpt lat="45.49206" lon="6.67542">
        <ele>2365</ele>
        <time>2011-03-13T10:04:37.113Z</time>
      </trkpt>
      <trkpt lat="45.49177" lon="6.67543">
        <ele>2365</ele>
        <time>2011-03-13T10:04:53Z</time>
      </trkpt>
      <trkpt lat="45.49148" lon="6.67544">
        <ele>2365</ele>
        <time>2011-03-13T10:05:08.119Z</time>
      </trkpt>
      <trkpt lat="45.49118" lon="6.67543">
        <ele>2376</ele>
        <time>2011-03-13T10:05:24Z</time>
      </trkpt>
      <trkpt lat="45.49088" lon="6.67542">
        <ele>2376</ele>
        <time>2011-03-13T10:05:40Z</time>
      </trkpt>
      <trkpt lat="45.49059" lon="6.67539">
        <ele>2369</ele>
        <time>2011-03-13T10:05:56Z</time>
      </trkpt>
      <trkpt lat="45.49031" lon="6.67539">
        <ele>2410</ele>
        <time>2011-03-13T10:06:12.183Z</time>
      </trkpt>
      <trkpt lat="45.49005" lon="6.67538">
        <ele>2410</ele>
        <time>2011-03-13T10:06:28.133Z</time>
      </trkpt>
      <trkpt lat="45.48978" lon="6.67539">
        <ele>2410</ele>
        <time>2011-03-13T10:06:44Z</time>
      </trkpt>
      <trkpt lat="45.48953" lon="6.6754">
        <ele>2454</ele>
        <time>2011-03-13T10:07:00.565Z</time>
      </trkpt>
      <trkpt lat="45.48925" lon="6.67541">
        <ele>2454</ele>
        <time>2011-03-13T10:07:16Z</time>
      </trkpt>
      <trkpt lat="45.48898" lon="6.67543">
        <ele>2459</ele>
        <time>2011-03-13T10:07:32Z</time>
      </trkpt>
      <trkpt lat="45.48863" lon="6.67538">
        <ele>2462</ele>
        <time>2011-03-13T10:07:48Z</time>
      </trkpt>
      <trkpt lat="45.48863" lon="6.67539">
        <ele>2462</ele>
        <time>2011-03-13T10:08:03.141Z</time>
      </trkpt>
      <trkpt lat="45.48863" lon="6.67538">
        <ele>2462</ele>
        <time>2011-03-13T10:08:19.138Z</time>
      </trkpt>
      <trkpt lat="45.48864" lon="6.6754">
        <ele>2462</ele>
        <time>2011-03-13T10:08:35.103Z</time>
      </trkpt>
      <trkpt lat="45.48872" lon="6.6756">
        <ele>2463</ele>
        <time>2011-03-13T10:08:50.111Z</time>
      </trkpt>
      <trkpt lat="45.48876" lon="6.67579">
        <ele>2459</ele>
        <time>2011-03-13T10:09:06Z</time>
      </trkpt>
      <trkpt lat="45.48877" lon="6.67592">
        <ele>2459</ele>
        <time>2011-03-13T10:09:22Z</time>
      </trkpt>
      <trkpt lat="45.4889" lon="6.676">
        <ele>2459</ele>
        <time>2011-03-13T10:09:37.95Z</time>
      </trkpt>
      <trkpt lat="45.48892" lon="6.67603">
        <ele>2459</ele>
        <time>2011-03-13T10:09:53.124Z</time>
      </trkpt>
      <trkpt lat="45.48891" lon="6.67606">
        <ele>2459</ele>
        <time>2011-03-13T10:10:09Z</time>
      </trkpt>
      <trkpt lat="45.48891" lon="6.67606">
        <ele>2459</ele>
        <time>2011-03-13T10:10:25Z</time>
      </trkpt>
      <trkpt lat="45.4889" lon="6.6761">
        <ele>2459</ele>
        <time>2011-03-13T10:10:40.111Z</time>
      </trkpt>
      <trkpt lat="45.48892" lon="6.67614">
        <ele>2459</ele>
        <time>2011-03-13T10:10:55.12Z</time>
      </trkpt>
      <trkpt lat="45.48904" lon="6.67654">
        <ele>2464</ele>
        <time>2011-03-13T10:11:11Z</time>
      </trkpt>
      <trkpt lat="45.48936" lon="6.6771">
        <ele>2468</ele>
        <time>2011-03-13T10:11:22Z</time>
      </trkpt>
      <trkpt lat="45.48961" lon="6.67765">
        <ele>2445</ele>
        <time>2011-03-13T10:11:31Z</time>
      </trkpt>
      <trkpt lat="45.48976" lon="6.67834">
        <ele>2437</ele>
        <time>2011-03-13T10:11:39Z</time>
      </trkpt>
      <trkpt lat="45.48987" lon="6.67902">
        <ele>2426</ele>
        <time>2011-03-13T10:11:46Z</time>
      </trkpt>
      <trkpt lat="45.49" lon="6.6797">
        <ele>2398</ele>
        <time>2011-03-13T10:11:54Z</time>
      </trkpt>
      <trkpt lat="45.49021" lon="6.68031">
        <ele>2398</ele>
        <time>2011-03-13T10:12:02.775Z</time>
      </trkpt>
      <trkpt lat="45.49031" lon="6.68044">
        <ele>2392</ele>
        <time>2011-03-13T10:12:18.135Z</time>
      </trkpt>
      <trkpt lat="45.49008" lon="6.68043">
        <ele>2392</ele>
        <time>2011-03-13T10:12:34.118Z</time>
      </trkpt>
      <trkpt lat="45.48971" lon="6.68087">
        <ele>2392</ele>
        <time>2011-03-13T10:12:50Z</time>
      </trkpt>
      <trkpt lat="45.48931" lon="6.68129">
        <ele>2338</ele>
        <time>2011-03-13T10:12:59.104Z</time>
      </trkpt>
      <trkpt lat="45.48889" lon="6.68154">
        <ele>2338</ele>
        <time>2011-03-13T10:13:04.097Z</time>
      </trkpt>
      <trkpt lat="45.48837" lon="6.68177">
        <ele>2298</ele>
        <time>2011-03-13T10:13:09Z</time>
      </trkpt>
      <trkpt lat="45.48788" lon="6.68204">
        <ele>2265</ele>
        <time>2011-03-13T10:13:15Z</time>
      </trkpt>
      <trkpt lat="45.48743" lon="6.68211">
        <ele>2261</ele>
        <time>2011-03-13T10:13:19.104Z</time>
      </trkpt>
      <trkpt lat="45.48697" lon="6.68223">
        <ele>2234</ele>
        <time>2011-03-13T10:13:23.118Z</time>
      </trkpt>
      <trkpt lat="45.48649" lon="6.68242">
        <ele>2234</ele>
        <time>2011-03-13T10:13:28.129Z</time>
      </trkpt>
      <trkpt lat="45.486" lon="6.68232">
        <ele>2213</ele>
        <time>2011-03-13T10:13:33.94Z</time>
      </trkpt>
      <trkpt lat="45.48553" lon="6.68222">
        <ele>2213</ele>
        <time>2011-03-13T10:13:38Z</time>
      </trkpt>
      <trkpt lat="45.48506" lon="6.68216">
        <ele>2186</ele>
        <time>2011-03-13T10:13:45.128Z</time>
      </trkpt>
      <trkpt lat="45.48461" lon="6.6821">
        <ele>2186</ele>
        <time>2011-03-13T10:13:51.115Z</time>
      </trkpt>
      <trkpt lat="45.48414" lon="6.68213">
        <ele>2160</ele>
        <time>2011-03-13T10:13:56.114Z</time>
      </trkpt>
      <trkpt lat="45.48369" lon="6.68219">
        <ele>2145</ele>
        <time>2011-03-13T10:14:02.831Z</time>
      </trkpt>
      <trkpt lat="45.48318" lon="6.68231">
        <ele>2145</ele>
        <time>2011-03-13T10:14:07Z</time>
      </trkpt>
      <trkpt lat="45.48265" lon="6.68238">
        <ele>2131</ele>
        <time>2011-03-13T10:14:13Z</time>
      </trkpt>
      <trkpt lat="45.4822" lon="6.68235">
        <ele>2131</ele>
        <time>2011-03-13T10:14:20Z</time>
      </trkpt>
      <trkpt lat="45.48171" lon="6.68223">
        <ele>2126</ele>
        <time>2011-03-13T10:14:27.13Z</time>
      </trkpt>
      <trkpt lat="45.48125" lon="6.68232">
        <ele>2128</ele>
        <time>2011-03-13T10:14:36.098Z</time>
      </trkpt>
      <trkpt lat="45.48083" lon="6.68256">
        <ele>2128</ele>
        <time>2011-03-13T10:14:48.122Z</time>
      </trkpt>
      <trkpt lat="45.48111" lon="6.68309">
        <ele>2108</ele>
        <time>2011-03-13T10:14:55.116Z</time>
      </trkpt>
      <trkpt lat="45.4812" lon="6.68318">
        <ele>2108</ele>
        <time>2011-03-13T10:15:12.131Z</time>
      </trkpt>
      <trkpt lat="45.4812" lon="6.68318">
        <ele>2108</ele>
        <time>2011-03-13T10:15:28Z</time>
      </trkpt>
      <trkpt lat="45.48121" lon="6.68318">
        <ele>2108</ele>
        <time>2011-03-13T10:15:44Z</time>
      </trkpt>
      <trkpt lat="45.48118" lon="6.68315">
        <ele>2108</ele>
        <time>2011-03-13T10:15:59.106Z</time>
      </trkpt>
      <trkpt lat="45.48115" lon="6.68317">
        <ele>2108</ele>
        <time>2011-03-13T10:16:14.121Z</time>
      </trkpt>
      <trkpt lat="45.48076" lon="6.68355">
        <ele>2108</ele>
        <time>2011-03-13T10:16:25.852Z</time>
      </trkpt>
      <trkpt lat="45.48073" lon="6.68424">
        <ele>2082</ele>
        <time>2011-03-13T10:16:38.101Z</time>
      </trkpt>
      <trkpt lat="45.48083" lon="6.68493">
        <ele>2058</ele>
        <time>2011-03-13T10:16:47Z</time>
      </trkpt>
      <trkpt lat="45.48092" lon="6.68557">
        <ele>2033</ele>
        <time>2011-03-13T10:16:54.105Z</time>
      </trkpt>
      <trkpt lat="45.48115" lon="6.68613">
        <ele>2033</ele>
        <time>2011-03-13T10:17:02Z</time>
      </trkpt>
      <trkpt lat="45.48149" lon="6.68671">
        <ele>2022</ele>
        <time>2011-03-13T10:17:08Z</time>
      </trkpt>
      <trkpt lat="45.48153" lon="6.68743">
        <ele>2007</ele>
        <time>2011-03-13T10:17:12.101Z</time>
      </trkpt>
      <trkpt lat="45.48156" lon="6.68808">
        <ele>1998</ele>
        <time>2011-03-13T10:17:16Z</time>
      </trkpt>
      <trkpt lat="45.48151" lon="6.68873">
        <ele>1998</ele>
        <time>2011-03-13T10:17:23Z</time>
      </trkpt>
      <trkpt lat="45.48138" lon="6.68897">
        <ele>1991</ele>
        <time>2011-03-13T10:17:38.107Z</time>
      </trkpt>
      <trkpt lat="45.48133" lon="6.68901">
        <ele>1991</ele>
        <time>2011-03-13T10:17:53.126Z</time>
      </trkpt>
      <trkpt lat="45.48126" lon="6.6897">
        <ele>1979</ele>
        <time>2011-03-13T10:18:04.116Z</time>
      </trkpt>
      <trkpt lat="45.4813" lon="6.69036">
        <ele>1979</ele>
        <time>2011-03-13T10:18:13.104Z</time>
      </trkpt>
      <trkpt lat="45.48167" lon="6.6908">
        <ele>1952</ele>
        <time>2011-03-13T10:18:23Z</time>
      </trkpt>
      <trkpt lat="45.48213" lon="6.69105">
        <ele>1964</ele>
        <time>2011-03-13T10:18:33.104Z</time>
      </trkpt>
      <trkpt lat="45.48259" lon="6.69116">
        <ele>1964</ele>
        <time>2011-03-13T10:18:43Z</time>
      </trkpt>
      <trkpt lat="45.48263" lon="6.69147">
        <ele>1951</ele>
        <time>2011-03-13T10:18:59.11Z</time>
      </trkpt>
      <trkpt lat="45.48214" lon="6.6915">
        <ele>1951</ele>
        <time>2011-03-13T10:19:04.102Z</time>
      </trkpt>
      <trkpt lat="45.48165" lon="6.69147">
        <ele>1937</ele>
        <time>2011-03-13T10:19:09.109Z</time>
      </trkpt>
      <trkpt lat="45.48114" lon="6.6914">
        <ele>1924</ele>
        <time>2011-03-13T10:19:14.936Z</time>
      </trkpt>
      <trkpt lat="45.48065" lon="6.69133">
        <ele>1924</ele>
        <time>2011-03-13T10:19:19Z</time>
      </trkpt>
      <trkpt lat="45.48016" lon="6.69111">
        <ele>1901</ele>
        <time>2011-03-13T10:19:24.119Z</time>
      </trkpt>
      <trkpt lat="45.47965" lon="6.69087">
        <ele>1901</ele>
        <time>2011-03-13T10:19:29.111Z</time>
      </trkpt>
      <trkpt lat="45.47918" lon="6.69053">
        <ele>1886</ele>
        <time>2011-03-13T10:19:34.106Z</time>
      </trkpt>
      <trkpt lat="45.47865" lon="6.6903">
        <ele>1862</ele>
        <time>2011-03-13T10:19:39.095Z</time>
      </trkpt>
      <trkpt lat="45.47807" lon="6.68989">
        <ele>1862</ele>
        <time>2011-03-13T10:19:45Z</time>
      </trkpt>
      <trkpt lat="45.47758" lon="6.68954">
        <ele>1839</ele>
        <time>2011-03-13T10:19:50.103Z</time>
      </trkpt>
      <trkpt lat="45.47712" lon="6.68934">
        <ele>1839</ele>
        <time>2011-03-13T10:19:54.12Z</time>
      </trkpt>
      <trkpt lat="45.47658" lon="6.68926">
        <ele>1826</ele>
        <time>2011-03-13T10:19:59.101Z</time>
      </trkpt>
      <trkpt lat="45.47644" lon="6.68962">
        <ele>1838</ele>
        <time>2011-03-13T10:20:15Z</time>
      </trkpt>
      <trkpt lat="45.47651" lon="6.68963">
        <ele>1838</ele>
        <time>2011-03-13T10:20:31.105Z</time>
      </trkpt>
      <trkpt lat="45.47653" lon="6.68969">
        <ele>1838</ele>
        <time>2011-03-13T10:20:47.148Z</time>
      </trkpt>
      <trkpt lat="45.47654" lon="6.68979">
        <ele>1838</ele>
        <time>2011-03-13T10:21:03.118Z</time>
      </trkpt>
      <trkpt lat="45.47657" lon="6.68989">
        <ele>1838</ele>
        <time>2011-03-13T10:21:19Z</time>
      </trkpt>
      <trkpt lat="45.47662" lon="6.68996">
        <ele>1838</ele>
        <time>2011-03-13T10:21:35Z</time>
      </trkpt>
      <trkpt lat="45.47668" lon="6.68992">
        <ele>1838</ele>
        <time>2011-03-13T10:21:50.102Z</time>
      </trkpt>
      <trkpt lat="45.47672" lon="6.68994">
        <ele>1838</ele>
        <time>2011-03-13T10:22:06Z</time>
      </trkpt>
      <trkpt lat="45.47685" lon="6.68976">
        <ele>1838</ele>
        <time>2011-03-13T10:22:22Z</time>
      </trkpt>
      <trkpt lat="45.47708" lon="6.68953">
        <ele>1839</ele>
        <time>2011-03-13T10:22:37.119Z</time>
      </trkpt>
      <trkpt lat="45.47734" lon="6.68927">
        <ele>1839</ele>
        <time>2011-03-13T10:22:53.099Z</time>
      </trkpt>
      <trkpt lat="45.47758" lon="6.68901">
        <ele>1839</ele>
        <time>2011-03-13T10:23:09Z</time>
      </trkpt>
      <trkpt lat="45.47778" lon="6.68878">
        <ele>1839</ele>
        <time>2011-03-13T10:23:24.103Z</time>
      </trkpt>
      <trkpt lat="45.47799" lon="6.68854">
        <ele>1893</ele>
        <time>2011-03-13T10:23:40.087Z</time>
      </trkpt>
      <trkpt lat="45.47821" lon="6.68827">
        <ele>1893</ele>
        <time>2011-03-13T10:23:56Z</time>
      </trkpt>
      <trkpt lat="45.47844" lon="6.68803">
        <ele>1893</ele>
        <time>2011-03-13T10:24:12Z</time>
      </trkpt>
      <trkpt lat="45.47866" lon="6.6878">
        <ele>1932</ele>
        <time>2011-03-13T10:24:28Z</time>
      </trkpt>
      <trkpt lat="45.47887" lon="6.68756">
        <ele>1948</ele>
        <time>2011-03-13T10:24:44Z</time>
      </trkpt>
      <trkpt lat="45.47908" lon="6.68731">
        <ele>1948</ele>
        <time>2011-03-13T10:25:00.126Z</time>
      </trkpt>
      <trkpt lat="45.47931" lon="6.68705">
        <ele>1985</ele>
        <time>2011-03-13T10:25:16.113Z</time>
      </trkpt>
      <trkpt lat="45.47956" lon="6.68682">
        <ele>1985</ele>
        <time>2011-03-13T10:25:31.532Z</time>
      </trkpt>
      <trkpt lat="45.47976" lon="6.68658">
        <ele>1998</ele>
        <time>2011-03-13T10:25:47Z</time>
      </trkpt>
      <trkpt lat="45.47998" lon="6.68631">
        <ele>1998</ele>
        <time>2011-03-13T10:26:03Z</time>
      </trkpt>
      <trkpt lat="45.48021" lon="6.68607">
        <ele>2026</ele>
        <time>2011-03-13T10:26:18.116Z</time>
      </trkpt>
      <trkpt lat="45.48042" lon="6.68579">
        <ele>2033</ele>
        <time>2011-03-13T10:26:34Z</time>
      </trkpt>
      <trkpt lat="45.48064" lon="6.68552">
        <ele>2033</ele>
        <time>2011-03-13T10:26:50Z</time>
      </trkpt>
      <trkpt lat="45.48093" lon="6.68526">
        <ele>2058</ele>
        <time>2011-03-13T10:27:06Z</time>
      </trkpt>
      <trkpt lat="45.48113" lon="6.685">
        <ele>2058</ele>
        <time>2011-03-13T10:27:21.135Z</time>
      </trkpt>
      <trkpt lat="45.48138" lon="6.68472">
        <ele>2060</ele>
        <time>2011-03-13T10:27:37.117Z</time>
      </trkpt>
      <trkpt lat="45.48163" lon="6.68439">
        <ele>2081</ele>
        <time>2011-03-13T10:27:53.098Z</time>
      </trkpt>
      <trkpt lat="45.48188" lon="6.68418">
        <ele>2081</ele>
        <time>2011-03-13T10:28:09Z</time>
      </trkpt>
      <trkpt lat="45.48209" lon="6.68394">
        <ele>2099</ele>
        <time>2011-03-13T10:28:24.115Z</time>
      </trkpt>
      <trkpt lat="45.48232" lon="6.68371">
        <ele>2118</ele>
        <time>2011-03-13T10:28:39.138Z</time>
      </trkpt>
      <trkpt lat="45.48256" lon="6.68346">
        <ele>2118</ele>
        <time>2011-03-13T10:28:55.11Z</time>
      </trkpt>
      <trkpt lat="45.48279" lon="6.6832">
        <ele>2118</ele>
        <time>2011-03-13T10:29:11Z</time>
      </trkpt>
      <trkpt lat="45.48299" lon="6.68298">
        <ele>2134</ele>
        <time>2011-03-13T10:29:26.094Z</time>
      </trkpt>
      <trkpt lat="45.48324" lon="6.6827">
        <ele>2145</ele>
        <time>2011-03-13T10:29:42Z</time>
      </trkpt>
      <trkpt lat="45.48346" lon="6.68241">
        <ele>2145</ele>
        <time>2011-03-13T10:29:57.145Z</time>
      </trkpt>
      <trkpt lat="45.48367" lon="6.68213">
        <ele>2145</ele>
        <time>2011-03-13T10:30:12.942Z</time>
      </trkpt>
      <trkpt lat="45.48392" lon="6.68187">
        <ele>2171</ele>
        <time>2011-03-13T10:30:28.109Z</time>
      </trkpt>
      <trkpt lat="45.48417" lon="6.68164">
        <ele>2171</ele>
        <time>2011-03-13T10:30:44Z</time>
      </trkpt>
      <trkpt lat="45.48443" lon="6.68138">
        <ele>2171</ele>
        <time>2011-03-13T10:30:59.105Z</time>
      </trkpt>
      <trkpt lat="45.48467" lon="6.68114">
        <ele>2211</ele>
        <time>2011-03-13T10:31:14.115Z</time>
      </trkpt>
      <trkpt lat="45.48489" lon="6.68091">
        <ele>2211</ele>
        <time>2011-03-13T10:31:30Z</time>
      </trkpt>
      <trkpt lat="45.48512" lon="6.68071">
        <ele>2211</ele>
        <time>2011-03-13T10:31:46Z</time>
      </trkpt>
      <trkpt lat="45.48534" lon="6.68047">
        <ele>2211</ele>
        <time>2011-03-13T10:32:02Z</time>
      </trkpt>
      <trkpt lat="45.48552" lon="6.68026">
        <ele>2273</ele>
        <time>2011-03-13T10:32:17.124Z</time>
      </trkpt>
      <trkpt lat="45.48573" lon="6.68002">
        <ele>2273</ele>
        <time>2011-03-13T10:32:32.133Z</time>
      </trkpt>
      <trkpt lat="45.48594" lon="6.67977">
        <ele>2273</ele>
        <time>2011-03-13T10:32:48.107Z</time>
      </trkpt>
      <trkpt lat="45.48615" lon="6.67953">
        <ele>2286</ele>
        <time>2011-03-13T10:33:03.11Z</time>
      </trkpt>
      <trkpt lat="45.48638" lon="6.67927">
        <ele>2323</ele>
        <time>2011-03-13T10:33:19Z</time>
      </trkpt>
      <trkpt lat="45.4866" lon="6.67903">
        <ele>2323</ele>
        <time>2011-03-13T10:33:34.108Z</time>
      </trkpt>
      <trkpt lat="45.48682" lon="6.67878">
        <ele>2323</ele>
        <time>2011-03-13T10:33:50.109Z</time>
      </trkpt>
      <trkpt lat="45.48704" lon="6.67851">
        <ele>2333</ele>
        <time>2011-03-13T10:34:06.103Z</time>
      </trkpt>
      <trkpt lat="45.48723" lon="6.67829">
        <ele>2378</ele>
        <time>2011-03-13T10:34:21.147Z</time>
      </trkpt>
      <trkpt lat="45.48744" lon="6.67804">
        <ele>2378</ele>
        <time>2011-03-13T10:34:37Z</time>
      </trkpt>
      <trkpt lat="45.48763" lon="6.67781">
        <ele>2399</ele>
        <time>2011-03-13T10:34:52.108Z</time>
      </trkpt>
      <trkpt lat="45.48786" lon="6.67755">
        <ele>2399</ele>
        <time>2011-03-13T10:35:08Z</time>
      </trkpt>
      <trkpt lat="45.48809" lon="6.67732">
        <ele>2443</ele>
        <time>2011-03-13T10:35:24Z</time>
      </trkpt>
      <trkpt lat="45.48832" lon="6.67705">
        <ele>2462</ele>
        <time>2011-03-13T10:35:40Z</time>
      </trkpt>
      <trkpt lat="45.48851" lon="6.67678">
        <ele>2462</ele>
        <time>2011-03-13T10:35:56Z</time>
      </trkpt>
      <trkpt lat="45.48862" lon="6.67649">
        <ele>2462</ele>
        <time>2011-03-13T10:36:12.113Z</time>
      </trkpt>
      <trkpt lat="45.48878" lon="6.67642">
        <ele>2464</ele>
        <time>2011-03-13T10:36:28.127Z</time>
      </trkpt>
      <trkpt lat="45.48877" lon="6.6764">
        <ele>2464</ele>
        <time>2011-03-13T10:36:44Z</time>
      </trkpt>
      <trkpt lat="45.4888" lon="6.6764">
        <ele>2464</ele>
        <time>2011-03-13T10:37:00.544Z</time>
      </trkpt>
      <trkpt lat="45.4888" lon="6.67639">
        <ele>2464</ele>
        <time>2011-03-13T10:37:16Z</time>
      </trkpt>
      <trkpt lat="45.48914" lon="6.67687">
        <ele>2464</ele>
        <time>2011-03-13T10:37:28Z</time>
      </trkpt>
      <trkpt lat="45.48953" lon="6.67735">
        <ele>2468</ele>
        <time>2011-03-13T10:37:36Z</time>
      </trkpt>
      <trkpt lat="45.48975" lon="6.67796">
        <ele>2437</ele>
        <time>2011-03-13T10:37:43Z</time>
      </trkpt>
      <trkpt lat="45.4899" lon="6.67868">
        <ele>2437</ele>
        <time>2011-03-13T10:37:50Z</time>
      </trkpt>
      <trkpt lat="45.49006" lon="6.67933">
        <ele>2426</ele>
        <time>2011-03-13T10:37:58Z</time>
      </trkpt>
      <trkpt lat="45.49024" lon="6.67999">
        <ele>2398</ele>
        <time>2011-03-13T10:38:05.15Z</time>
      </trkpt>
      <trkpt lat="45.49025" lon="6.6804">
        <ele>2398</ele>
        <time>2011-03-13T10:38:21Z</time>
      </trkpt>
      <trkpt lat="45.49015" lon="6.68042">
        <ele>2392</ele>
        <time>2011-03-13T10:38:37Z</time>
      </trkpt>
      <trkpt lat="45.48995" lon="6.68094">
        <ele>2392</ele>
        <time>2011-03-13T10:38:53Z</time>
      </trkpt>
      <trkpt lat="45.48954" lon="6.68125">
        <ele>2347</ele>
        <time>2011-03-13T10:39:04Z</time>
      </trkpt>
      <trkpt lat="45.48911" lon="6.68158">
        <ele>2338</ele>
        <time>2011-03-13T10:39:13Z</time>
      </trkpt>
      <trkpt lat="45.48864" lon="6.68192">
        <ele>2298</ele>
        <time>2011-03-13T10:39:19.11Z</time>
      </trkpt>
      <trkpt lat="45.48814" lon="6.68218">
        <ele>2298</ele>
        <time>2011-03-13T10:39:24.143Z</time>
      </trkpt>
      <trkpt lat="45.4877" lon="6.68249">
        <ele>2261</ele>
        <time>2011-03-13T10:39:29.123Z</time>
      </trkpt>
      <trkpt lat="45.48726" lon="6.68269">
        <ele>2261</ele>
        <time>2011-03-13T10:39:33.111Z</time>
      </trkpt>
      <trkpt lat="45.48672" lon="6.68274">
        <ele>2234</ele>
        <time>2011-03-13T10:39:38.11Z</time>
      </trkpt>
      <trkpt lat="45.48623" lon="6.68263">
        <ele>2213</ele>
        <time>2011-03-13T10:39:43.108Z</time>
      </trkpt>
      <trkpt lat="45.48577" lon="6.68246">
        <ele>2213</ele>
        <time>2011-03-13T10:39:48.119Z</time>
      </trkpt>
      <trkpt lat="45.48529" lon="6.6825">
        <ele>2186</ele>
        <time>2011-03-13T10:39:56.118Z</time>
      </trkpt>
      <trkpt lat="45.4848" lon="6.68252">
        <ele>2186</ele>
        <time>2011-03-13T10:40:03.096Z</time>
      </trkpt>
      <trkpt lat="45.48434" lon="6.68265">
        <ele>2160</ele>
        <time>2011-03-13T10:40:09.927Z</time>
      </trkpt>
      <trkpt lat="45.48379" lon="6.68276">
        <ele>2160</ele>
        <time>2011-03-13T10:40:15Z</time>
      </trkpt>
      <trkpt lat="45.48333" lon="6.68285">
        <ele>2145</ele>
        <time>2011-03-13T10:40:20.825Z</time>
      </trkpt>
      <trkpt lat="45.48287" lon="6.68287">
        <ele>2131</ele>
        <time>2011-03-13T10:40:25Z</time>
      </trkpt>
      <trkpt lat="45.48235" lon="6.68294">
        <ele>2118</ele>
        <time>2011-03-13T10:40:31Z</time>
      </trkpt>
      <trkpt lat="45.48195" lon="6.68276">
        <ele>2126</ele>
        <time>2011-03-13T10:40:47Z</time>
      </trkpt>
      <trkpt lat="45.482" lon="6.68277">
        <ele>2126</ele>
        <time>2011-03-13T10:41:02.114Z</time>
      </trkpt>
      <trkpt lat="45.48186" lon="6.68264">
        <ele>2126</ele>
        <time>2011-03-13T10:41:18.096Z</time>
      </trkpt>
      <trkpt lat="45.48202" lon="6.68295">
        <ele>2107</ele>
        <time>2011-03-13T10:41:34.112Z</time>
      </trkpt>
      <trkpt lat="45.48178" lon="6.68331">
        <ele>2107</ele>
        <time>2011-03-13T10:41:50Z</time>
      </trkpt>
      <trkpt lat="45.48185" lon="6.68364">
        <ele>2107</ele>
        <time>2011-03-13T10:42:05.101Z</time>
      </trkpt>
      <trkpt lat="45.48181" lon="6.68367">
        <ele>2107</ele>
        <time>2011-03-13T10:42:20.115Z</time>
      </trkpt>
      <trkpt lat="45.48184" lon="6.68365">
        <ele>2107</ele>
        <time>2011-03-13T10:42:36Z</time>
      </trkpt>
      <trkpt lat="45.48174" lon="6.68405">
        <ele>2081</ele>
        <time>2011-03-13T10:42:52Z</time>
      </trkpt>
      <trkpt lat="45.48151" lon="6.68454">
        <ele>2081</ele>
        <time>2011-03-13T10:43:07.105Z</time>
      </trkpt>
      <trkpt lat="45.48142" lon="6.68486">
        <ele>2060</ele>
        <time>2011-03-13T10:43:23.099Z</time>
      </trkpt>
      <trkpt lat="45.48149" lon="6.68504">
        <ele>2060</ele>
        <time>2011-03-13T10:43:39Z</time>
      </trkpt>
      <trkpt lat="45.48153" lon="6.6851">
        <ele>2060</ele>
        <time>2011-03-13T10:43:54.095Z</time>
      </trkpt>
      <trkpt lat="45.48155" lon="6.6851">
        <ele>2060</ele>
        <time>2011-03-13T10:44:10Z</time>
      </trkpt>
      <trkpt lat="45.48153" lon="6.68543">
        <ele>2039</ele>
        <time>2011-03-13T10:44:25.926Z</time>
      </trkpt>
      <trkpt lat="45.48156" lon="6.68544">
        <ele>2039</ele>
        <time>2011-03-13T10:44:41.115Z</time>
      </trkpt>
      <trkpt lat="45.48154" lon="6.68543">
        <ele>2039</ele>
        <time>2011-03-13T10:44:57Z</time>
      </trkpt>
      <trkpt lat="45.4815" lon="6.6855">
        <ele>2039</ele>
        <time>2011-03-13T10:45:13Z</time>
      </trkpt>
      <trkpt lat="45.48117" lon="6.68595">
        <ele>2033</ele>
        <time>2011-03-13T10:45:21Z</time>
      </trkpt>
      <trkpt lat="45.48115" lon="6.68659">
        <ele>2007</ele>
        <time>2011-03-13T10:45:28Z</time>
      </trkpt>
      <trkpt lat="45.4813" lon="6.68725">
        <ele>2007</ele>
        <time>2011-03-13T10:45:34Z</time>
      </trkpt>
      <trkpt lat="45.48139" lon="6.68793">
        <ele>1998</ele>
        <time>2011-03-13T10:45:40.129Z</time>
      </trkpt>
      <trkpt lat="45.48134" lon="6.68861">
        <ele>1998</ele>
        <time>2011-03-13T10:45:48.123Z</time>
      </trkpt>
      <trkpt lat="45.48123" lon="6.68924">
        <ele>1968</ele>
        <time>2011-03-13T10:45:58.099Z</time>
      </trkpt>
      <trkpt lat="45.48118" lon="6.68989">
        <ele>1961</ele>
        <time>2011-03-13T10:46:07.088Z</time>
      </trkpt>
      <trkpt lat="45.48155" lon="6.69033">
        <ele>1979</ele>
        <time>2011-03-13T10:46:19.719Z</time>
      </trkpt>
      <trkpt lat="45.48201" lon="6.69056">
        <ele>1952</ele>
        <time>2011-03-13T10:46:28Z</time>
      </trkpt>
      <trkpt lat="45.48248" lon="6.69078">
        <ele>1964</ele>
        <time>2011-03-13T10:46:36Z</time>
      </trkpt>
      <trkpt lat="45.48292" lon="6.691">
        <ele>1984</ele>
        <time>2011-03-13T10:46:50Z</time>
      </trkpt>
      <trkpt lat="45.48257" lon="6.69146">
        <ele>1951</ele>
        <time>2011-03-13T10:46:59Z</time>
      </trkpt>
      <trkpt lat="45.48211" lon="6.69155">
        <ele>1951</ele>
        <time>2011-03-13T10:47:04Z</time>
      </trkpt>
      <trkpt lat="45.48165" lon="6.69153">
        <ele>1937</ele>
        <time>2011-03-13T10:47:09.142Z</time>
      </trkpt>
      <trkpt lat="45.48114" lon="6.69146">
        <ele>1924</ele>
        <time>2011-03-13T10:47:14.103Z</time>
      </trkpt>
      <trkpt lat="45.48063" lon="6.69129">
        <ele>1924</ele>
        <time>2011-03-13T10:47:19.104Z</time>
      </trkpt>
      <trkpt lat="45.4802" lon="6.69107">
        <ele>1901</ele>
        <time>2011-03-13T10:47:23Z</time>
      </trkpt>
      <trkpt lat="45.47971" lon="6.69087">
        <ele>1901</ele>
        <time>2011-03-13T10:47:28.095Z</time>
      </trkpt>
      <trkpt lat="45.47928" lon="6.6906">
        <ele>1886</ele>
        <time>2011-03-13T10:47:32.101Z</time>
      </trkpt>
      <trkpt lat="45.47883" lon="6.69038">
        <ele>1890</ele>
        <time>2011-03-13T10:47:36.11Z</time>
      </trkpt>
      <trkpt lat="45.47838" lon="6.69012">
        <ele>1862</ele>
        <time>2011-03-13T10:47:40.088Z</time>
      </trkpt>
      <trkpt lat="45.47791" lon="6.68987">
        <ele>1852</ele>
        <time>2011-03-13T10:47:44.087Z</time>
      </trkpt>
      <trkpt lat="45.47749" lon="6.68961">
        <ele>1852</ele>
        <time>2011-03-13T10:47:47.587Z</time>
      </trkpt>
      <trkpt lat="45.47704" lon="6.68949">
        <ele>1826</ele>
        <time>2011-03-13T10:47:51Z</time>
      </trkpt>
      <trkpt lat="45.47663" lon="6.68977">
        <ele>1838</ele>
        <time>2011-03-13T10:47:59Z</time>
      </trkpt>
      <trkpt lat="45.47656" lon="6.68978">
        <ele>1838</ele>
        <time>2011-03-13T10:48:15.101Z</time>
      </trkpt>
      <trkpt lat="45.47656" lon="6.68978">
        <ele>1838</ele>
        <time>2011-03-13T10:48:30.114Z</time>
      </trkpt>
      <trkpt lat="45.47656" lon="6.68981">
        <ele>1838</ele>
        <time>2011-03-13T10:48:46Z</time>
      </trkpt>
      <trkpt lat="45.4766" lon="6.68984">
        <ele>1838</ele>
        <time>2011-03-13T10:49:02Z</time>
      </trkpt>
      <trkpt lat="45.4766" lon="6.68981">
        <ele>1838</ele>
        <time>2011-03-13T10:49:18Z</time>
      </trkpt>
      <trkpt lat="45.4766" lon="6.68979">
        <ele>1838</ele>
        <time>2011-03-13T10:49:34.097Z</time>
      </trkpt>
      <trkpt lat="45.47661" lon="6.68982">
        <ele>1838</ele>
        <time>2011-03-13T10:49:49.122Z</time>
      </trkpt>
      <trkpt lat="45.47661" lon="6.68983">
        <ele>1838</ele>
        <time>2011-03-13T10:50:05.098Z</time>
      </trkpt>
      <trkpt lat="45.47659" lon="6.68985">
        <ele>1838</ele>
        <time>2011-03-13T10:50:20.112Z</time>
      </trkpt>
      <trkpt lat="45.47663" lon="6.68984">
        <ele>1838</ele>
        <time>2011-03-13T10:50:36Z</time>
      </trkpt>
      <trkpt lat="45.47661" lon="6.68987">
        <ele>1838</ele>
        <time>2011-03-13T10:50:52Z</time>
      </trkpt>
      <trkpt lat="45.47663" lon="6.68992">
        <ele>1838</ele>
        <time>2011-03-13T10:51:07.097Z</time>
      </trkpt>
      <trkpt lat="45.4767" lon="6.68995">
        <ele>1838</ele>
        <time>2011-03-13T10:51:23Z</time>
      </trkpt>
      <trkpt lat="45.47676" lon="6.68989">
        <ele>1838</ele>
        <time>2011-03-13T10:51:38.105Z</time>
      </trkpt>
      <trkpt lat="45.47678" lon="6.68988">
        <ele>1838</ele>
        <time>2011-03-13T10:51:53.115Z</time>
      </trkpt>
      <trkpt lat="45.47682" lon="6.68987">
        <ele>1838</ele>
        <time>2011-03-13T10:52:09Z</time>
      </trkpt>
      <trkpt lat="45.4771" lon="6.68962">
        <ele>1852</ele>
        <time>2011-03-13T10:52:25Z</time>
      </trkpt>
      <trkpt lat="45.47735" lon="6.68945">
        <ele>1839</ele>
        <time>2011-03-13T10:52:41Z</time>
      </trkpt>
      <trkpt lat="45.47756" lon="6.68921">
        <ele>1839</ele>
        <time>2011-03-13T10:52:56.094Z</time>
      </trkpt>
      <trkpt lat="45.47779" lon="6.68895">
        <ele>1839</ele>
        <time>2011-03-13T10:53:12Z</time>
      </trkpt>
      <trkpt lat="45.47807" lon="6.68878">
        <ele>1870</ele>
        <time>2011-03-13T10:53:28Z</time>
      </trkpt>
      <trkpt lat="45.47828" lon="6.6885">
        <ele>1893</ele>
        <time>2011-03-13T10:53:44Z</time>
      </trkpt>
      <trkpt lat="45.47843" lon="6.68823">
        <ele>1893</ele>
        <time>2011-03-13T10:54:00.393Z</time>
      </trkpt>
      <trkpt lat="45.47858" lon="6.68795">
        <ele>1893</ele>
        <time>2011-03-13T10:54:16Z</time>
      </trkpt>
      <trkpt lat="45.47874" lon="6.68769">
        <ele>1932</ele>
        <time>2011-03-13T10:54:31.089Z</time>
      </trkpt>
      <trkpt lat="45.47896" lon="6.68745">
        <ele>1948</ele>
        <time>2011-03-13T10:54:47Z</time>
      </trkpt>
      <trkpt lat="45.47917" lon="6.68726">
        <ele>1948</ele>
        <time>2011-03-13T10:55:02.082Z</time>
      </trkpt>
      <trkpt lat="45.47941" lon="6.68701">
        <ele>1985</ele>
        <time>2011-03-13T10:55:18Z</time>
      </trkpt>
      <trkpt lat="45.47962" lon="6.68672">
        <ele>1998</ele>
        <time>2011-03-13T10:55:34Z</time>
      </trkpt>
      <trkpt lat="45.47986" lon="6.68647">
        <ele>1998</ele>
        <time>2011-03-13T10:55:50.104Z</time>
      </trkpt>
      <trkpt lat="45.48016" lon="6.68615">
        <ele>2026</ele>
        <time>2011-03-13T10:56:06.11Z</time>
      </trkpt>
      <trkpt lat="45.4804" lon="6.68586">
        <ele>2026</ele>
        <time>2011-03-13T10:56:22Z</time>
      </trkpt>
      <trkpt lat="45.48061" lon="6.68557">
        <ele>2033</ele>
        <time>2011-03-13T10:56:37.09Z</time>
      </trkpt>
      <trkpt lat="45.48084" lon="6.6853">
        <ele>2058</ele>
        <time>2011-03-13T10:56:54.109Z</time>
      </trkpt>
      <trkpt lat="45.48107" lon="6.68505">
        <ele>2058</ele>
        <time>2011-03-13T10:57:10.087Z</time>
      </trkpt>
      <trkpt lat="45.48128" lon="6.68482">
        <ele>2060</ele>
        <time>2011-03-13T10:57:25.119Z</time>
      </trkpt>
      <trkpt lat="45.48151" lon="6.68461">
        <ele>2060</ele>
        <time>2011-03-13T10:57:40.887Z</time>
      </trkpt>
      <trkpt lat="45.48174" lon="6.68432">
        <ele>2081</ele>
        <time>2011-03-13T10:57:56Z</time>
      </trkpt>
      <trkpt lat="45.48195" lon="6.68405">
        <ele>2081</ele>
        <time>2011-03-13T10:58:11.095Z</time>
      </trkpt>
      <trkpt lat="45.48216" lon="6.6838">
        <ele>2099</ele>
        <time>2011-03-13T10:58:26.923Z</time>
      </trkpt>
      <trkpt lat="45.4824" lon="6.68353">
        <ele>2118</ele>
        <time>2011-03-13T10:58:42.104Z</time>
      </trkpt>
      <trkpt lat="45.48263" lon="6.68328">
        <ele>2118</ele>
        <time>2011-03-13T10:58:58Z</time>
      </trkpt>
      <trkpt lat="45.48288" lon="6.68301">
        <ele>2118</ele>
        <time>2011-03-13T10:59:14Z</time>
      </trkpt>
      <trkpt lat="45.48311" lon="6.68275">
        <ele>2145</ele>
        <time>2011-03-13T10:59:30Z</time>
      </trkpt>
      <trkpt lat="45.48335" lon="6.68245">
        <ele>2145</ele>
        <time>2011-03-13T10:59:46Z</time>
      </trkpt>
      <trkpt lat="45.4836" lon="6.68218">
        <ele>2145</ele>
        <time>2011-03-13T11:00:02Z</time>
      </trkpt>
      <trkpt lat="45.48383" lon="6.6819">
        <ele>2171</ele>
        <time>2011-03-13T11:00:18Z</time>
      </trkpt>
      <trkpt lat="45.48406" lon="6.68163">
        <ele>2171</ele>
        <time>2011-03-13T11:00:34.134Z</time>
      </trkpt>
      <trkpt lat="45.48428" lon="6.68135">
        <ele>2171</ele>
        <time>2011-03-13T11:00:50.114Z</time>
      </trkpt>
      <trkpt lat="45.48451" lon="6.68109">
        <ele>2191</ele>
        <time>2011-03-13T11:01:06.093Z</time>
      </trkpt>
      <trkpt lat="45.4847" lon="6.68085">
        <ele>2211</ele>
        <time>2011-03-13T11:01:22Z</time>
      </trkpt>
      <trkpt lat="45.48488" lon="6.68061">
        <ele>2211</ele>
        <time>2011-03-13T11:01:38Z</time>
      </trkpt>
      <trkpt lat="45.48506" lon="6.68039">
        <ele>2235</ele>
        <time>2011-03-13T11:01:53.11Z</time>
      </trkpt>
      <trkpt lat="45.4852" lon="6.68014">
        <ele>2235</ele>
        <time>2011-03-13T11:02:09.086Z</time>
      </trkpt>
      <trkpt lat="45.4854" lon="6.67992">
        <ele>2235</ele>
        <time>2011-03-13T11:02:24.983Z</time>
      </trkpt>
      <trkpt lat="45.48559" lon="6.67967">
        <ele>2273</ele>
        <time>2011-03-13T11:02:40Z</time>
      </trkpt>
      <trkpt lat="45.48578" lon="6.67944">
        <ele>2286</ele>
        <time>2011-03-13T11:02:55.086Z</time>
      </trkpt>
      <trkpt lat="45.48601" lon="6.67925">
        <ele>2286</ele>
        <time>2011-03-13T11:03:10.092Z</time>
      </trkpt>
      <trkpt lat="45.48617" lon="6.67908">
        <ele>2286</ele>
        <time>2011-03-13T11:03:25.094Z</time>
      </trkpt>
      <trkpt lat="45.48636" lon="6.67884">
        <ele>2323</ele>
        <time>2011-03-13T11:03:41.917Z</time>
      </trkpt>
      <trkpt lat="45.48659" lon="6.67858">
        <ele>2333</ele>
        <time>2011-03-13T11:03:57.082Z</time>
      </trkpt>
      <trkpt lat="45.48681" lon="6.67833">
        <ele>2333</ele>
        <time>2011-03-13T11:04:13Z</time>
      </trkpt>
      <trkpt lat="45.48699" lon="6.67809">
        <ele>2333</ele>
        <time>2011-03-13T11:04:29Z</time>
      </trkpt>
      <trkpt lat="45.48726" lon="6.67789">
        <ele>2399</ele>
        <time>2011-03-13T11:04:45Z</time>
      </trkpt>
      <trkpt lat="45.48752" lon="6.6777">
        <ele>2399</ele>
        <time>2011-03-13T11:05:00.228Z</time>
      </trkpt>
      <trkpt lat="45.48774" lon="6.67755">
        <ele>2399</ele>
        <time>2011-03-13T11:05:16Z</time>
      </trkpt>
      <trkpt lat="45.48797" lon="6.67743">
        <ele>2443</ele>
        <time>2011-03-13T11:05:32Z</time>
      </trkpt>
      <trkpt lat="45.48821" lon="6.67711">
        <ele>2443</ele>
        <time>2011-03-13T11:05:48Z</time>
      </trkpt>
      <trkpt lat="45.48839" lon="6.67669">
        <ele>2462</ele>
        <time>2011-03-13T11:06:04Z</time>
      </trkpt>
      <trkpt lat="45.48853" lon="6.67607">
        <ele>2463</ele>
        <time>2011-03-13T11:06:18Z</time>
      </trkpt>
      <trkpt lat="45.48846" lon="6.67543">
        <ele>2463</ele>
        <time>2011-03-13T11:06:29.101Z</time>
      </trkpt>
      <trkpt lat="45.4885" lon="6.67538">
        <ele>2462</ele>
        <time>2011-03-13T11:06:44.103Z</time>
      </trkpt>
      <trkpt lat="45.4885" lon="6.67528">
        <ele>2462</ele>
        <time>2011-03-13T11:07:00.122Z</time>
      </trkpt>
      <trkpt lat="45.48841" lon="6.67496">
        <ele>2462</ele>
        <time>2011-03-13T11:07:15.94Z</time>
      </trkpt>
      <trkpt lat="45.48828" lon="6.67454">
        <ele>2468</ele>
        <time>2011-03-13T11:07:31Z</time>
      </trkpt>
      <trkpt lat="45.488" lon="6.67393">
        <ele>2468</ele>
        <time>2011-03-13T11:07:42.096Z</time>
      </trkpt>
      <trkpt lat="45.48765" lon="6.67342">
        <ele>2447</ele>
        <time>2011-03-13T11:07:49.088Z</time>
      </trkpt>
      <trkpt lat="45.48717" lon="6.6733">
        <ele>2447</ele>
        <time>2011-03-13T11:07:57.916Z</time>
      </trkpt>
      <trkpt lat="45.48713" lon="6.67348">
        <ele>2447</ele>
        <time>2011-03-13T11:08:13Z</time>
      </trkpt>
      <trkpt lat="45.48708" lon="6.67411">
        <ele>2431</ele>
        <time>2011-03-13T11:08:21Z</time>
      </trkpt>
      <trkpt lat="45.48681" lon="6.67467">
        <ele>2384</ele>
        <time>2011-03-13T11:08:27Z</time>
      </trkpt>
      <trkpt lat="45.48667" lon="6.67522">
        <ele>2384</ele>
        <time>2011-03-13T11:08:43Z</time>
      </trkpt>
      <trkpt lat="45.48663" lon="6.67553">
        <ele>2372</ele>
        <time>2011-03-13T11:08:59.077Z</time>
      </trkpt>
      <trkpt lat="45.48652" lon="6.67616">
        <ele>2372</ele>
        <time>2011-03-13T11:09:14.148Z</time>
      </trkpt>
      <trkpt lat="45.48634" lon="6.67668">
        <ele>2357</ele>
        <time>2011-03-13T11:09:30.121Z</time>
      </trkpt>
      <trkpt lat="45.48615" lon="6.67718">
        <ele>2303</ele>
        <time>2011-03-13T11:09:45.911Z</time>
      </trkpt>
      <trkpt lat="45.48606" lon="6.67713">
        <ele>2303</ele>
        <time>2011-03-13T11:10:01.094Z</time>
      </trkpt>
      <trkpt lat="45.48593" lon="6.67743">
        <ele>2303</ele>
        <time>2011-03-13T11:10:17Z</time>
      </trkpt>
      <trkpt lat="45.4857" lon="6.67762">
        <ele>2303</ele>
        <time>2011-03-13T11:10:32.084Z</time>
      </trkpt>
      <trkpt lat="45.48553" lon="6.67807">
        <ele>2287</ele>
        <time>2011-03-13T11:10:48Z</time>
      </trkpt>
      <trkpt lat="45.48551" lon="6.67798">
        <ele>2287</ele>
        <time>2011-03-13T11:11:03.09Z</time>
      </trkpt>
      <trkpt lat="45.48551" lon="6.67795">
        <ele>2287</ele>
        <time>2011-03-13T11:11:19Z</time>
      </trkpt>
      <trkpt lat="45.48547" lon="6.67838">
        <ele>2287</ele>
        <time>2011-03-13T11:11:34.084Z</time>
      </trkpt>
      <trkpt lat="45.48522" lon="6.67894">
        <ele>2245</ele>
        <time>2011-03-13T11:11:44Z</time>
      </trkpt>
      <trkpt lat="45.485" lon="6.67954">
        <ele>2245</ele>
        <time>2011-03-13T11:11:54.111Z</time>
      </trkpt>
      <trkpt lat="45.48469" lon="6.68006">
        <ele>2235</ele>
        <time>2011-03-13T11:12:04Z</time>
      </trkpt>
      <trkpt lat="45.48443" lon="6.68058">
        <ele>2191</ele>
        <time>2011-03-13T11:12:13.085Z</time>
      </trkpt>
      <trkpt lat="45.4842" lon="6.68126">
        <ele>2171</ele>
        <time>2011-03-13T11:12:20Z</time>
      </trkpt>
      <trkpt lat="45.48392" lon="6.68186">
        <ele>2171</ele>
        <time>2011-03-13T11:12:27Z</time>
      </trkpt>
      <trkpt lat="45.48363" lon="6.68238">
        <ele>2145</ele>
        <time>2011-03-13T11:12:34Z</time>
      </trkpt>
      <trkpt lat="45.48327" lon="6.6828">
        <ele>2145</ele>
        <time>2011-03-13T11:12:41Z</time>
      </trkpt>
      <trkpt lat="45.48297" lon="6.68284">
        <ele>2145</ele>
        <time>2011-03-13T11:12:56.092Z</time>
      </trkpt>
      <trkpt lat="45.48298" lon="6.68276">
        <ele>2145</ele>
        <time>2011-03-13T11:13:11.097Z</time>
      </trkpt>
      <trkpt lat="45.48301" lon="6.68273">
        <ele>2145</ele>
        <time>2011-03-13T11:13:26.102Z</time>
      </trkpt>
      <trkpt lat="45.48303" lon="6.68272">
        <ele>2145</ele>
        <time>2011-03-13T11:13:42Z</time>
      </trkpt>
      <trkpt lat="45.48303" lon="6.68272">
        <ele>2145</ele>
        <time>2011-03-13T11:13:57.089Z</time>
      </trkpt>
      <trkpt lat="45.4825" lon="6.68265">
        <ele>2131</ele>
        <time>2011-03-13T11:14:09Z</time>
      </trkpt>
      <trkpt lat="45.48202" lon="6.68271">
        <ele>2126</ele>
        <time>2011-03-13T11:14:14Z</time>
      </trkpt>
      <trkpt lat="45.48161" lon="6.68298">
        <ele>2107</ele>
        <time>2011-03-13T11:14:20.083Z</time>
      </trkpt>
      <trkpt lat="45.48116" lon="6.68315">
        <ele>2108</ele>
        <time>2011-03-13T11:14:28.684Z</time>
      </trkpt>
      <trkpt lat="45.48072" lon="6.68345">
        <ele>2108</ele>
        <time>2011-03-13T11:14:36Z</time>
      </trkpt>
      <trkpt lat="45.48039" lon="6.68395">
        <ele>2079</ele>
        <time>2011-03-13T11:14:44Z</time>
      </trkpt>
      <trkpt lat="45.48026" lon="6.68457">
        <ele>2079</ele>
        <time>2011-03-13T11:14:52Z</time>
      </trkpt>
      <trkpt lat="45.48023" lon="6.68528">
        <ele>2053</ele>
        <time>2011-03-13T11:14:59Z</time>
      </trkpt>
      <trkpt lat="45.48059" lon="6.68572">
        <ele>2033</ele>
        <time>2011-03-13T11:15:07Z</time>
      </trkpt>
      <trkpt lat="45.48101" lon="6.68606">
        <ele>2033</ele>
        <time>2011-03-13T11:15:16.096Z</time>
      </trkpt>
      <trkpt lat="45.48127" lon="6.68663">
        <ele>2022</ele>
        <time>2011-03-13T11:15:21.094Z</time>
      </trkpt>
      <trkpt lat="45.48133" lon="6.68742">
        <ele>2007</ele>
        <time>2011-03-13T11:15:26.086Z</time>
      </trkpt>
      <trkpt lat="45.48134" lon="6.6881">
        <ele>1998</ele>
        <time>2011-03-13T11:15:30.095Z</time>
      </trkpt>
      <trkpt lat="45.48124" lon="6.68875">
        <ele>1973</ele>
        <time>2011-03-13T11:15:35.085Z</time>
      </trkpt>
      <trkpt lat="45.48111" lon="6.68938">
        <ele>1968</ele>
        <time>2011-03-13T11:15:42.091Z</time>
      </trkpt>
      <trkpt lat="45.481" lon="6.69004">
        <ele>1961</ele>
        <time>2011-03-13T11:15:48.582Z</time>
      </trkpt>
      <trkpt lat="45.48134" lon="6.69051">
        <ele>1952</ele>
        <time>2011-03-13T11:15:57Z</time>
      </trkpt>
      <trkpt lat="45.48179" lon="6.69071">
        <ele>1952</ele>
        <time>2011-03-13T11:16:04Z</time>
      </trkpt>
      <trkpt lat="45.48226" lon="6.69089">
        <ele>1964</ele>
        <time>2011-03-13T11:16:11.125Z</time>
      </trkpt>
      <trkpt lat="45.48271" lon="6.69106">
        <ele>1964</ele>
        <time>2011-03-13T11:16:21.094Z</time>
      </trkpt>
      <trkpt lat="45.48262" lon="6.69148">
        <ele>1951</ele>
        <time>2011-03-13T11:16:37.086Z</time>
      </trkpt>
      <trkpt lat="45.48212" lon="6.69158">
        <ele>1951</ele>
        <time>2011-03-13T11:16:42.455Z</time>
      </trkpt>
      <trkpt lat="45.48166" lon="6.69157">
        <ele>1937</ele>
        <time>2011-03-13T11:16:46Z</time>
      </trkpt>
      <trkpt lat="45.48118" lon="6.69153">
        <ele>1924</ele>
        <time>2011-03-13T11:16:50Z</time>
      </trkpt>
      <trkpt lat="45.48072" lon="6.69143">
        <ele>1924</ele>
        <time>2011-03-13T11:16:54Z</time>
      </trkpt>
      <trkpt lat="45.4802" lon="6.69117">
        <ele>1901</ele>
        <time>2011-03-13T11:16:58.089Z</time>
      </trkpt>
      <trkpt lat="45.47975" lon="6.69091">
        <ele>1901</ele>
        <time>2011-03-13T11:17:02.102Z</time>
      </trkpt>
      <trkpt lat="45.47927" lon="6.69059">
        <ele>1886</ele>
        <time>2011-03-13T11:17:06.079Z</time>
      </trkpt>
      <trkpt lat="45.47879" lon="6.69034">
        <ele>1890</ele>
        <time>2011-03-13T11:17:10.077Z</time>
      </trkpt>
      <trkpt lat="45.47833" lon="6.68994">
        <ele>1862</ele>
        <time>2011-03-13T11:17:14.659Z</time>
      </trkpt>
      <trkpt lat="45.47788" lon="6.68953">
        <ele>1839</ele>
        <time>2011-03-13T11:17:19.101Z</time>
      </trkpt>
      <trkpt lat="45.47735" lon="6.68933">
        <ele>1839</ele>
        <time>2011-03-13T11:17:23Z</time>
      </trkpt>
      <trkpt lat="45.47684" lon="6.68955">
        <ele>1826</ele>
        <time>2011-03-13T11:17:27.103Z</time>
      </trkpt>
      <trkpt lat="45.4763" lon="6.68979">
        <ele>1838</ele>
        <time>2011-03-13T11:17:32.103Z</time>
      </trkpt>
      <trkpt lat="45.4758" lon="6.68969">
        <ele>1840</ele>
        <time>2011-03-13T11:17:39.079Z</time>
      </trkpt>
      <trkpt lat="45.47538" lon="6.68933">
        <ele>1818</ele>
        <time>2011-03-13T11:17:46Z</time>
      </trkpt>
      <trkpt lat="45.47492" lon="6.68908">
        <ele>1818</ele>
        <time>2011-03-13T11:17:54Z</time>
      </trkpt>
      <trkpt lat="45.47451" lon="6.68881">
        <ele>1822</ele>
        <time>2011-03-13T11:18:08Z</time>
      </trkpt>
      <trkpt lat="45.4741" lon="6.68859">
        <ele>1794</ele>
        <time>2011-03-13T11:18:24Z</time>
      </trkpt>
      <trkpt lat="45.47373" lon="6.68893">
        <ele>1818</ele>
        <time>2011-03-13T11:18:40Z</time>
      </trkpt>
      <trkpt lat="45.47347" lon="6.6891">
        <ele>1818</ele>
        <time>2011-03-13T11:18:56Z</time>
      </trkpt>
      <trkpt lat="45.47336" lon="6.68911">
        <ele>1818</ele>
        <time>2011-03-13T11:19:11.119Z</time>
      </trkpt>
      <trkpt lat="45.47328" lon="6.68915">
        <ele>1818</ele>
        <time>2011-03-13T11:19:27.092Z</time>
      </trkpt>
      <trkpt lat="45.47319" lon="6.68919">
        <ele>1818</ele>
        <time>2011-03-13T11:19:42.288Z</time>
      </trkpt>
      <trkpt lat="45.47308" lon="6.68928">
        <ele>1818</ele>
        <time>2011-03-13T11:19:58Z</time>
      </trkpt>
      <trkpt lat="45.47301" lon="6.68928">
        <ele>1818</ele>
        <time>2011-03-13T11:20:14Z</time>
      </trkpt>
      <trkpt lat="45.47299" lon="6.68929">
        <ele>1818</ele>
        <time>2011-03-13T11:20:30Z</time>
      </trkpt>
      <trkpt lat="45.47296" lon="6.68932">
        <ele>1818</ele>
        <time>2011-03-13T11:20:46Z</time>
      </trkpt>
      <trkpt lat="45.47298" lon="6.68933">
        <ele>1818</ele>
        <time>2011-03-13T11:21:01.112Z</time>
      </trkpt>
      <trkpt lat="45.47298" lon="6.68936">
        <ele>1818</ele>
        <time>2011-03-13T11:21:16.121Z</time>
      </trkpt>
      <trkpt lat="45.47301" lon="6.68946">
        <ele>1818</ele>
        <time>2011-03-13T11:21:32.126Z</time>
      </trkpt>
      <trkpt lat="45.47317" lon="6.68999">
        <ele>1833</ele>
        <time>2011-03-13T11:21:48.917Z</time>
      </trkpt>
      <trkpt lat="45.47322" lon="6.69028">
        <ele>1833</ele>
        <time>2011-03-13T11:22:04.116Z</time>
      </trkpt>
      <trkpt lat="45.47324" lon="6.69033">
        <ele>1833</ele>
        <time>2011-03-13T11:22:19.12Z</time>
      </trkpt>
      <trkpt lat="45.47324" lon="6.69035">
        <ele>1833</ele>
        <time>2011-03-13T11:22:35.079Z</time>
      </trkpt>
      <trkpt lat="45.47324" lon="6.69038">
        <ele>1833</ele>
        <time>2011-03-13T11:22:51Z</time>
      </trkpt>
      <trkpt lat="45.47323" lon="6.69042">
        <ele>1833</ele>
        <time>2011-03-13T11:23:06.157Z</time>
      </trkpt>
      <trkpt lat="45.47334" lon="6.69097">
        <ele>1851</ele>
        <time>2011-03-13T11:23:22.095Z</time>
      </trkpt>
      <trkpt lat="45.47345" lon="6.69161">
        <ele>1869</ele>
        <time>2011-03-13T11:23:36.085Z</time>
      </trkpt>
      <trkpt lat="45.47357" lon="6.69227">
        <ele>1887</ele>
        <time>2011-03-13T11:23:51Z</time>
      </trkpt>
      <trkpt lat="45.47367" lon="6.69292">
        <ele>1911</ele>
        <time>2011-03-13T11:24:06Z</time>
      </trkpt>
      <trkpt lat="45.47375" lon="6.69357">
        <ele>1914</ele>
        <time>2011-03-13T11:24:21.09Z</time>
      </trkpt>
      <trkpt lat="45.47391" lon="6.69418">
        <ele>1932</ele>
        <time>2011-03-13T11:24:36.077Z</time>
      </trkpt>
      <trkpt lat="45.47409" lon="6.69477">
        <ele>1951</ele>
        <time>2011-03-13T11:24:51Z</time>
      </trkpt>
      <trkpt lat="45.47428" lon="6.69535">
        <ele>1951</ele>
        <time>2011-03-13T11:25:06Z</time>
      </trkpt>
      <trkpt lat="45.47444" lon="6.69595">
        <ele>1973</ele>
        <time>2011-03-13T11:25:21Z</time>
      </trkpt>
      <trkpt lat="45.47455" lon="6.69661">
        <ele>1993</ele>
        <time>2011-03-13T11:25:36.103Z</time>
      </trkpt>
      <trkpt lat="45.47474" lon="6.6972">
        <ele>2026</ele>
        <time>2011-03-13T11:25:51Z</time>
      </trkpt>
      <trkpt lat="45.47485" lon="6.69783">
        <ele>2026</ele>
        <time>2011-03-13T11:26:04Z</time>
      </trkpt>
      <trkpt lat="45.47503" lon="6.69843">
        <ele>2045</ele>
        <time>2011-03-13T11:26:19.081Z</time>
      </trkpt>
      <trkpt lat="45.47516" lon="6.69905">
        <ele>2067</ele>
        <time>2011-03-13T11:26:32.088Z</time>
      </trkpt>
      <trkpt lat="45.47519" lon="6.69969">
        <ele>2091</ele>
        <time>2011-03-13T11:26:46.073Z</time>
      </trkpt>
      <trkpt lat="45.47518" lon="6.70035">
        <ele>2091</ele>
        <time>2011-03-13T11:27:02Z</time>
      </trkpt>
      <trkpt lat="45.47506" lon="6.70068">
        <ele>2109</ele>
        <time>2011-03-13T11:27:18Z</time>
      </trkpt>
      <trkpt lat="45.47494" lon="6.70093">
        <ele>2109</ele>
        <time>2011-03-13T11:27:33.113Z</time>
      </trkpt>
      <trkpt lat="45.4747" lon="6.70151">
        <ele>2112</ele>
        <time>2011-03-13T11:27:41.092Z</time>
      </trkpt>
      <trkpt lat="45.47449" lon="6.70211">
        <ele>2091</ele>
        <time>2011-03-13T11:27:46.539Z</time>
      </trkpt>
      <trkpt lat="45.47424" lon="6.70266">
        <ele>2091</ele>
        <time>2011-03-13T11:27:53Z</time>
      </trkpt>
      <trkpt lat="45.47391" lon="6.70312">
        <ele>2098</ele>
        <time>2011-03-13T11:28:08Z</time>
      </trkpt>
      <trkpt lat="45.47386" lon="6.70321">
        <ele>2098</ele>
        <time>2011-03-13T11:28:23.086Z</time>
      </trkpt>
      <trkpt lat="45.4738" lon="6.70327">
        <ele>2098</ele>
        <time>2011-03-13T11:28:39Z</time>
      </trkpt>
      <trkpt lat="45.4738" lon="6.70323">
        <ele>2098</ele>
        <time>2011-03-13T11:28:55Z</time>
      </trkpt>
      <trkpt lat="45.47382" lon="6.70295">
        <ele>2098</ele>
        <time>2011-03-13T11:29:11Z</time>
      </trkpt>
      <trkpt lat="45.47387" lon="6.70232">
        <ele>2091</ele>
        <time>2011-03-13T11:29:20Z</time>
      </trkpt>
      <trkpt lat="45.47375" lon="6.70163">
        <ele>2064</ele>
        <time>2011-03-13T11:29:26Z</time>
      </trkpt>
      <trkpt lat="45.47346" lon="6.70112">
        <ele>2066</ele>
        <time>2011-03-13T11:29:31.076Z</time>
      </trkpt>
      <trkpt lat="45.47317" lon="6.70088">
        <ele>2066</ele>
        <time>2011-03-13T11:29:46.105Z</time>
      </trkpt>
      <trkpt lat="45.47314" lon="6.70093">
        <ele>2066</ele>
        <time>2011-03-13T11:30:02Z</time>
      </trkpt>
      <trkpt lat="45.47303" lon="6.70108">
        <ele>2066</ele>
        <time>2011-03-13T11:30:17.106Z</time>
      </trkpt>
      <trkpt lat="45.47305" lon="6.70116">
        <ele>2066</ele>
        <time>2011-03-13T11:30:33Z</time>
      </trkpt>
      <trkpt lat="45.47306" lon="6.70118">
        <ele>2066</ele>
        <time>2011-03-13T11:30:49Z</time>
      </trkpt>
      <trkpt lat="45.47322" lon="6.70137">
        <ele>2064</ele>
        <time>2011-03-13T11:31:05Z</time>
      </trkpt>
      <trkpt lat="45.47364" lon="6.70167">
        <ele>2064</ele>
        <time>2011-03-13T11:31:18Z</time>
      </trkpt>
      <trkpt lat="45.47403" lon="6.7019">
        <ele>2084</ele>
        <time>2011-03-13T11:31:33.095Z</time>
      </trkpt>
      <trkpt lat="45.47447" lon="6.70211">
        <ele>2091</ele>
        <time>2011-03-13T11:31:49.094Z</time>
      </trkpt>
      <trkpt lat="45.47491" lon="6.70236">
        <ele>2114</ele>
        <time>2011-03-13T11:32:02Z</time>
      </trkpt>
      <trkpt lat="45.47534" lon="6.70264">
        <ele>2114</ele>
        <time>2011-03-13T11:32:15.085Z</time>
      </trkpt>
      <trkpt lat="45.47577" lon="6.70289">
        <ele>2136</ele>
        <time>2011-03-13T11:32:28.085Z</time>
      </trkpt>
      <trkpt lat="45.47621" lon="6.70316">
        <ele>2144</ele>
        <time>2011-03-13T11:32:42.502Z</time>
      </trkpt>
      <trkpt lat="45.47654" lon="6.70361">
        <ele>2161</ele>
        <time>2011-03-13T11:32:56Z</time>
      </trkpt>
      <trkpt lat="45.47695" lon="6.70392">
        <ele>2177</ele>
        <time>2011-03-13T11:33:10Z</time>
      </trkpt>
      <trkpt lat="45.4772" lon="6.70441">
        <ele>2191</ele>
        <time>2011-03-13T11:33:26Z</time>
      </trkpt>
      <trkpt lat="45.47759" lon="6.70478">
        <ele>2204</ele>
        <time>2011-03-13T11:33:40Z</time>
      </trkpt>
      <trkpt lat="45.478" lon="6.70512">
        <ele>2215</ele>
        <time>2011-03-13T11:33:54Z</time>
      </trkpt>
      <trkpt lat="45.4784" lon="6.70546">
        <ele>2225</ele>
        <time>2011-03-13T11:34:08.072Z</time>
      </trkpt>
      <trkpt lat="45.47881" lon="6.70581">
        <ele>2235</ele>
        <time>2011-03-13T11:34:22.077Z</time>
      </trkpt>
      <trkpt lat="45.47921" lon="6.70615">
        <ele>2235</ele>
        <time>2011-03-13T11:34:36.092Z</time>
      </trkpt>
      <trkpt lat="45.47962" lon="6.70649">
        <ele>2252</ele>
        <time>2011-03-13T11:34:50Z</time>
      </trkpt>
      <trkpt lat="45.48002" lon="6.70681">
        <ele>2252</ele>
        <time>2011-03-13T11:35:03Z</time>
      </trkpt>
      <trkpt lat="45.48043" lon="6.70716">
        <ele>2276</ele>
        <time>2011-03-13T11:35:17Z</time>
      </trkpt>
      <trkpt lat="45.48084" lon="6.70749">
        <ele>2276</ele>
        <time>2011-03-13T11:35:31Z</time>
      </trkpt>
      <trkpt lat="45.48124" lon="6.70783">
        <ele>2276</ele>
        <time>2011-03-13T11:35:45Z</time>
      </trkpt>
      <trkpt lat="45.48166" lon="6.70817">
        <ele>2300</ele>
        <time>2011-03-13T11:36:00.091Z</time>
      </trkpt>
      <trkpt lat="45.48206" lon="6.70848">
        <ele>2300</ele>
        <time>2011-03-13T11:36:14.112Z</time>
      </trkpt>
      <trkpt lat="45.48245" lon="6.70881">
        <ele>2325</ele>
        <time>2011-03-13T11:36:28.076Z</time>
      </trkpt>
      <trkpt lat="45.48286" lon="6.70915">
        <ele>2325</ele>
        <time>2011-03-13T11:36:42.114Z</time>
      </trkpt>
      <trkpt lat="45.48327" lon="6.70949">
        <ele>2336</ele>
        <time>2011-03-13T11:36:56.079Z</time>
      </trkpt>
      <trkpt lat="45.48367" lon="6.70981">
        <ele>2340</ele>
        <time>2011-03-13T11:37:09Z</time>
      </trkpt>
      <trkpt lat="45.48408" lon="6.71014">
        <ele>2351</ele>
        <time>2011-03-13T11:37:23Z</time>
      </trkpt>
      <trkpt lat="45.48449" lon="6.71048">
        <ele>2365</ele>
        <time>2011-03-13T11:37:37.074Z</time>
      </trkpt>
      <trkpt lat="45.48489" lon="6.71081">
        <ele>2372</ele>
        <time>2011-03-13T11:37:51.085Z</time>
      </trkpt>
      <trkpt lat="45.48512" lon="6.71091">
        <ele>2372</ele>
        <time>2011-03-13T11:38:06.094Z</time>
      </trkpt>
      <trkpt lat="45.48512" lon="6.71092">
        <ele>2372</ele>
        <time>2011-03-13T11:38:21.897Z</time>
      </trkpt>
      <trkpt lat="45.48512" lon="6.71092">
        <ele>2372</ele>
        <time>2011-03-13T11:38:37.095Z</time>
      </trkpt>
      <trkpt lat="45.48512" lon="6.71092">
        <ele>2372</ele>
        <time>2011-03-13T11:38:52.109Z</time>
      </trkpt>
      <trkpt lat="45.48512" lon="6.71093">
        <ele>2372</ele>
        <time>2011-03-13T11:39:08Z</time>
      </trkpt>
      <trkpt lat="45.48513" lon="6.71094">
        <ele>2372</ele>
        <time>2011-03-13T11:39:23.083Z</time>
      </trkpt>
      <trkpt lat="45.48503" lon="6.71029">
        <ele>2364</ele>
        <time>2011-03-13T11:39:38.091Z</time>
      </trkpt>
      <trkpt lat="45.48498" lon="6.70965">
        <ele>2364</ele>
        <time>2011-03-13T11:39:46.075Z</time>
      </trkpt>
      <trkpt lat="45.48494" lon="6.70893">
        <ele>2346</ele>
        <time>2011-03-13T11:39:53.063Z</time>
      </trkpt>
      <trkpt lat="45.48483" lon="6.70825">
        <ele>2331</ele>
        <time>2011-03-13T11:39:58Z</time>
      </trkpt>
      <trkpt lat="45.48461" lon="6.70768">
        <ele>2321</ele>
        <time>2011-03-13T11:40:08Z</time>
      </trkpt>
      <trkpt lat="45.48428" lon="6.70714">
        <ele>2328</ele>
        <time>2011-03-13T11:40:17Z</time>
      </trkpt>
      <trkpt lat="45.4839" lon="6.70665">
        <ele>2317</ele>
        <time>2011-03-13T11:40:22Z</time>
      </trkpt>
      <trkpt lat="45.48352" lon="6.70616">
        <ele>2304</ele>
        <time>2011-03-13T11:40:27Z</time>
      </trkpt>
      <trkpt lat="45.48315" lon="6.70565">
        <ele>2304</ele>
        <time>2011-03-13T11:40:32Z</time>
      </trkpt>
      <trkpt lat="45.48279" lon="6.70523">
        <ele>2293</ele>
        <time>2011-03-13T11:40:38Z</time>
      </trkpt>
      <trkpt lat="45.48236" lon="6.70486">
        <ele>2293</ele>
        <time>2011-03-13T11:40:45Z</time>
      </trkpt>
      <trkpt lat="45.48195" lon="6.70452">
        <ele>2281</ele>
        <time>2011-03-13T11:40:50Z</time>
      </trkpt>
      <trkpt lat="45.48148" lon="6.70421">
        <ele>2281</ele>
        <time>2011-03-13T11:40:56Z</time>
      </trkpt>
      <trkpt lat="45.48101" lon="6.70382">
        <ele>2262</ele>
        <time>2011-03-13T11:41:02Z</time>
      </trkpt>
      <trkpt lat="45.48057" lon="6.70341">
        <ele>2270</ele>
        <time>2011-03-13T11:41:07Z</time>
      </trkpt>
      <trkpt lat="45.48013" lon="6.70301">
        <ele>2249</ele>
        <time>2011-03-13T11:41:12Z</time>
      </trkpt>
      <trkpt lat="45.47966" lon="6.70302">
        <ele>2249</ele>
        <time>2011-03-13T11:41:17Z</time>
      </trkpt>
      <trkpt lat="45.47923" lon="6.7033">
        <ele>2224</ele>
        <time>2011-03-13T11:41:23.088Z</time>
      </trkpt>
      <trkpt lat="45.47882" lon="6.70359">
        <ele>2224</ele>
        <time>2011-03-13T11:41:30.085Z</time>
      </trkpt>
      <trkpt lat="45.47832" lon="6.70366">
        <ele>2199</ele>
        <time>2011-03-13T11:41:38.118Z</time>
      </trkpt>
      <trkpt lat="45.47783" lon="6.70352">
        <ele>2178</ele>
        <time>2011-03-13T11:41:44.085Z</time>
      </trkpt>
      <trkpt lat="45.47732" lon="6.70329">
        <ele>2178</ele>
        <time>2011-03-13T11:41:50.095Z</time>
      </trkpt>
      <trkpt lat="45.47687" lon="6.70298">
        <ele>2161</ele>
        <time>2011-03-13T11:41:56.084Z</time>
      </trkpt>
      <trkpt lat="45.47637" lon="6.70294">
        <ele>2161</ele>
        <time>2011-03-13T11:42:03.487Z</time>
      </trkpt>
      <trkpt lat="45.47592" lon="6.70304">
        <ele>2144</ele>
        <time>2011-03-13T11:42:09Z</time>
      </trkpt>
      <trkpt lat="45.47571" lon="6.70308">
        <ele>2144</ele>
        <time>2011-03-13T11:42:25Z</time>
      </trkpt>
      <trkpt lat="45.47531" lon="6.70341">
        <ele>2120</ele>
        <time>2011-03-13T11:42:40Z</time>
      </trkpt>
      <trkpt lat="45.47497" lon="6.70375">
        <ele>2129</ele>
        <time>2011-03-13T11:42:56Z</time>
      </trkpt>
      <trkpt lat="45.47502" lon="6.70375">
        <ele>2129</ele>
        <time>2011-03-13T11:43:11.116Z</time>
      </trkpt>
      <trkpt lat="45.47504" lon="6.70376">
        <ele>2129</ele>
        <time>2011-03-13T11:43:27Z</time>
      </trkpt>
      <trkpt lat="45.47503" lon="6.70372">
        <ele>2120</ele>
        <time>2011-03-13T11:43:42.082Z</time>
      </trkpt>
      <trkpt lat="45.47506" lon="6.70372">
        <ele>2120</ele>
        <time>2011-03-13T11:43:58Z</time>
      </trkpt>
      <trkpt lat="45.47506" lon="6.70371">
        <ele>2120</ele>
        <time>2011-03-13T11:44:14Z</time>
      </trkpt>
      <trkpt lat="45.47508" lon="6.70374">
        <ele>2120</ele>
        <time>2011-03-13T11:44:30Z</time>
      </trkpt>
      <trkpt lat="45.47508" lon="6.70374">
        <ele>2120</ele>
        <time>2011-03-13T11:44:45.078Z</time>
      </trkpt>
      <trkpt lat="45.48076" lon="6.70566">
        <ele>2273</ele>
        <time>2011-03-13T12:21:19.173Z</time>
      </trkpt>
      <trkpt lat="45.47879" lon="6.70438">
        <ele>2223</ele>
        <time>2011-03-13T12:21:20.109Z</time>
      </trkpt>
      <trkpt lat="45.47805" lon="6.70392">
        <ele>2204</ele>
        <time>2011-03-13T12:21:22Z</time>
      </trkpt>
      <trkpt lat="45.47755" lon="6.7036">
        <ele>2178</ele>
        <time>2011-03-13T12:21:23Z</time>
      </trkpt>
      <trkpt lat="45.47701" lon="6.70329">
        <ele>2161</ele>
        <time>2011-03-13T12:21:25Z</time>
      </trkpt>
      <trkpt lat="45.47654" lon="6.70301">
        <ele>2161</ele>
        <time>2011-03-13T12:21:29.134Z</time>
      </trkpt>
      <trkpt lat="45.47758" lon="6.7033">
        <ele>2178</ele>
        <time>2011-03-13T12:21:32.134Z</time>
      </trkpt>
      <trkpt lat="45.47703" lon="6.70314">
        <ele>2161</ele>
        <time>2011-03-13T12:22:17Z</time>
      </trkpt>
      <trkpt lat="45.47692" lon="6.70318">
        <ele>2161</ele>
        <time>2011-03-13T12:22:33Z</time>
      </trkpt>
      <trkpt lat="45.47671" lon="6.70325">
        <ele>2161</ele>
        <time>2011-03-13T12:22:49Z</time>
      </trkpt>
      <trkpt lat="45.47661" lon="6.70331">
        <ele>2161</ele>
        <time>2011-03-13T12:23:05Z</time>
      </trkpt>
      <trkpt lat="45.47659" lon="6.70332">
        <ele>2161</ele>
        <time>2011-03-13T12:23:20.267Z</time>
      </trkpt>
      <trkpt lat="45.47644" lon="6.70347">
        <ele>2161</ele>
        <time>2011-03-13T12:23:36.131Z</time>
      </trkpt>
      <trkpt lat="45.47625" lon="6.70346">
        <ele>2161</ele>
        <time>2011-03-13T12:23:51.132Z</time>
      </trkpt>
      <trkpt lat="45.47619" lon="6.7034">
        <ele>2144</ele>
        <time>2011-03-13T12:24:07Z</time>
      </trkpt>
      <trkpt lat="45.47606" lon="6.70345">
        <ele>2144</ele>
        <time>2011-03-13T12:24:23Z</time>
      </trkpt>
      <trkpt lat="45.47592" lon="6.7035">
        <ele>2144</ele>
        <time>2011-03-13T12:24:39Z</time>
      </trkpt>
      <trkpt lat="45.47573" lon="6.70328">
        <ele>2144</ele>
        <time>2011-03-13T12:24:54.122Z</time>
      </trkpt>
      <trkpt lat="45.47559" lon="6.70322">
        <ele>2144</ele>
        <time>2011-03-13T12:25:09.132Z</time>
      </trkpt>
      <trkpt lat="45.47554" lon="6.70324">
        <ele>2144</ele>
        <time>2011-03-13T12:25:24.133Z</time>
      </trkpt>
      <trkpt lat="45.47544" lon="6.70328">
        <ele>2144</ele>
        <time>2011-03-13T12:25:40Z</time>
      </trkpt>
      <trkpt lat="45.47497" lon="6.70298">
        <ele>2120</ele>
        <time>2011-03-13T12:25:51Z</time>
      </trkpt>
      <trkpt lat="45.47454" lon="6.70259">
        <ele>2091</ele>
        <time>2011-03-13T12:25:58Z</time>
      </trkpt>
      <trkpt lat="45.4743" lon="6.70202">
        <ele>2084</ele>
        <time>2011-03-13T12:26:05Z</time>
      </trkpt>
      <trkpt lat="45.47394" lon="6.70162">
        <ele>2084</ele>
        <time>2011-03-13T12:26:11Z</time>
      </trkpt>
      <trkpt lat="45.47352" lon="6.70115">
        <ele>2066</ele>
        <time>2011-03-13T12:26:17.133Z</time>
      </trkpt>
      <trkpt lat="45.47313" lon="6.70078">
        <ele>2066</ele>
        <time>2011-03-13T12:26:24Z</time>
      </trkpt>
      <trkpt lat="45.47294" lon="6.70107">
        <ele>2066</ele>
        <time>2011-03-13T12:26:40Z</time>
      </trkpt>
      <trkpt lat="45.47298" lon="6.70115">
        <ele>2066</ele>
        <time>2011-03-13T12:26:56Z</time>
      </trkpt>
      <trkpt lat="45.47306" lon="6.7012">
        <ele>2066</ele>
        <time>2011-03-13T12:27:12Z</time>
      </trkpt>
      <trkpt lat="45.47346" lon="6.70149">
        <ele>2064</ele>
        <time>2011-03-13T12:27:24.12Z</time>
      </trkpt>
      <trkpt lat="45.47388" lon="6.7018">
        <ele>2084</ele>
        <time>2011-03-13T12:27:37.129Z</time>
      </trkpt>
      <trkpt lat="45.47431" lon="6.70211">
        <ele>2091</ele>
        <time>2011-03-13T12:27:51.521Z</time>
      </trkpt>
      <trkpt lat="45.47472" lon="6.70241">
        <ele>2114</ele>
        <time>2011-03-13T12:28:05Z</time>
      </trkpt>
      <trkpt lat="45.47515" lon="6.70272">
        <ele>2114</ele>
        <time>2011-03-13T12:28:19Z</time>
      </trkpt>
      <trkpt lat="45.47556" lon="6.70305">
        <ele>2144</ele>
        <time>2011-03-13T12:28:33Z</time>
      </trkpt>
      <trkpt lat="45.47596" lon="6.70338">
        <ele>2144</ele>
        <time>2011-03-13T12:28:47Z</time>
      </trkpt>
      <trkpt lat="45.47636" lon="6.70371">
        <ele>2161</ele>
        <time>2011-03-13T12:29:01.113Z</time>
      </trkpt>
      <trkpt lat="45.47676" lon="6.70403">
        <ele>2177</ele>
        <time>2011-03-13T12:29:15.136Z</time>
      </trkpt>
      <trkpt lat="45.47718" lon="6.70433">
        <ele>2191</ele>
        <time>2011-03-13T12:29:29Z</time>
      </trkpt>
      <trkpt lat="45.47757" lon="6.70468">
        <ele>2204</ele>
        <time>2011-03-13T12:29:43Z</time>
      </trkpt>
      <trkpt lat="45.47798" lon="6.70501">
        <ele>2215</ele>
        <time>2011-03-13T12:29:57Z</time>
      </trkpt>
      <trkpt lat="45.47839" lon="6.70535">
        <ele>2215</ele>
        <time>2011-03-13T12:30:11Z</time>
      </trkpt>
      <trkpt lat="45.4788" lon="6.70566">
        <ele>2235</ele>
        <time>2011-03-13T12:30:25Z</time>
      </trkpt>
      <trkpt lat="45.47921" lon="6.70601">
        <ele>2235</ele>
        <time>2011-03-13T12:30:39Z</time>
      </trkpt>
      <trkpt lat="45.47962" lon="6.70633">
        <ele>2252</ele>
        <time>2011-03-13T12:30:53.155Z</time>
      </trkpt>
      <trkpt lat="45.48002" lon="6.70668">
        <ele>2252</ele>
        <time>2011-03-13T12:31:07.114Z</time>
      </trkpt>
      <trkpt lat="45.48042" lon="6.70702">
        <ele>2274</ele>
        <time>2011-03-13T12:31:21.119Z</time>
      </trkpt>
      <trkpt lat="45.48083" lon="6.70734">
        <ele>2276</ele>
        <time>2011-03-13T12:31:35.119Z</time>
      </trkpt>
      <trkpt lat="45.48124" lon="6.70768">
        <ele>2276</ele>
        <time>2011-03-13T12:31:49Z</time>
      </trkpt>
      <trkpt lat="45.48164" lon="6.70801">
        <ele>2300</ele>
        <time>2011-03-13T12:32:03Z</time>
      </trkpt>
      <trkpt lat="45.48205" lon="6.70832">
        <ele>2300</ele>
        <time>2011-03-13T12:32:17Z</time>
      </trkpt>
      <trkpt lat="45.48246" lon="6.70865">
        <ele>2320</ele>
        <time>2011-03-13T12:32:31Z</time>
      </trkpt>
      <trkpt lat="45.48287" lon="6.70896">
        <ele>2325</ele>
        <time>2011-03-13T12:32:45Z</time>
      </trkpt>
      <trkpt lat="45.4833" lon="6.70933">
        <ele>2336</ele>
        <time>2011-03-13T12:33:00.132Z</time>
      </trkpt>
      <trkpt lat="45.4837" lon="6.7097">
        <ele>2340</ele>
        <time>2011-03-13T12:33:14.133Z</time>
      </trkpt>
      <trkpt lat="45.4841" lon="6.71004">
        <ele>2351</ele>
        <time>2011-03-13T12:33:28.547Z</time>
      </trkpt>
      <trkpt lat="45.4845" lon="6.71038">
        <ele>2351</ele>
        <time>2011-03-13T12:33:42Z</time>
      </trkpt>
      <trkpt lat="45.48491" lon="6.71072">
        <ele>2372</ele>
        <time>2011-03-13T12:33:56Z</time>
      </trkpt>
      <trkpt lat="45.48528" lon="6.71105">
        <ele>2372</ele>
        <time>2011-03-13T12:34:12Z</time>
      </trkpt>
      <trkpt lat="45.4854" lon="6.71114">
        <ele>2372</ele>
        <time>2011-03-13T12:34:28Z</time>
      </trkpt>
      <trkpt lat="45.4854" lon="6.71114">
        <ele>2372</ele>
        <time>2011-03-13T12:34:44Z</time>
      </trkpt>
      <trkpt lat="45.48585" lon="6.71125">
        <ele>2361</ele>
        <time>2011-03-13T12:34:57Z</time>
      </trkpt>
      <trkpt lat="45.48624" lon="6.71163">
        <ele>2367</ele>
        <time>2011-03-13T12:35:06Z</time>
      </trkpt>
      <trkpt lat="45.48674" lon="6.71159">
        <ele>2355</ele>
        <time>2011-03-13T12:35:12.128Z</time>
      </trkpt>
      <trkpt lat="45.48721" lon="6.71156">
        <ele>2340</ele>
        <time>2011-03-13T12:35:18Z</time>
      </trkpt>
      <trkpt lat="45.48762" lon="6.71117">
        <ele>2333</ele>
        <time>2011-03-13T12:35:32Z</time>
      </trkpt>
      <trkpt lat="45.48794" lon="6.7106">
        <ele>2311</ele>
        <time>2011-03-13T12:35:40.161Z</time>
      </trkpt>
      <trkpt lat="45.48832" lon="6.71013">
        <ele>2307</ele>
        <time>2011-03-13T12:35:46.144Z</time>
      </trkpt>
      <trkpt lat="45.48874" lon="6.70979">
        <ele>2307</ele>
        <time>2011-03-13T12:35:53.115Z</time>
      </trkpt>
      <trkpt lat="45.48907" lon="6.70934">
        <ele>2304</ele>
        <time>2011-03-13T12:36:02Z</time>
      </trkpt>
      <trkpt lat="45.48942" lon="6.70893">
        <ele>2304</ele>
        <time>2011-03-13T12:36:16.113Z</time>
      </trkpt>
      <trkpt lat="45.48942" lon="6.70891">
        <ele>2304</ele>
        <time>2011-03-13T12:36:32.135Z</time>
      </trkpt>
      <trkpt lat="45.48943" lon="6.70899">
        <ele>2304</ele>
        <time>2011-03-13T12:36:48Z</time>
      </trkpt>
      <trkpt lat="45.48942" lon="6.709">
        <ele>2304</ele>
        <time>2011-03-13T12:37:03.114Z</time>
      </trkpt>
      <trkpt lat="45.48942" lon="6.70902">
        <ele>2304</ele>
        <time>2011-03-13T12:37:19.115Z</time>
      </trkpt>
      <trkpt lat="45.48942" lon="6.70902">
        <ele>2304</ele>
        <time>2011-03-13T12:37:35Z</time>
      </trkpt>
      <trkpt lat="45.48963" lon="6.70961">
        <ele>2320</ele>
        <time>2011-03-13T12:37:46.109Z</time>
      </trkpt>
      <trkpt lat="45.48976" lon="6.71026">
        <ele>2320</ele>
        <time>2011-03-13T12:37:57Z</time>
      </trkpt>
      <trkpt lat="45.48991" lon="6.71091">
        <ele>2328</ele>
        <time>2011-03-13T12:38:09.109Z</time>
      </trkpt>
      <trkpt lat="45.49005" lon="6.71153">
        <ele>2338</ele>
        <time>2011-03-13T12:38:21.108Z</time>
      </trkpt>
      <trkpt lat="45.49022" lon="6.71216">
        <ele>2353</ele>
        <time>2011-03-13T12:38:35Z</time>
      </trkpt>
      <trkpt lat="45.49038" lon="6.71281">
        <ele>2353</ele>
        <time>2011-03-13T12:38:49.111Z</time>
      </trkpt>
      <trkpt lat="45.4905" lon="6.71344">
        <ele>2372</ele>
        <time>2011-03-13T12:39:01Z</time>
      </trkpt>
      <trkpt lat="45.4906" lon="6.71411">
        <ele>2389</ele>
        <time>2011-03-13T12:39:14.155Z</time>
      </trkpt>
      <trkpt lat="45.49068" lon="6.71476">
        <ele>2406</ele>
        <time>2011-03-13T12:39:25.11Z</time>
      </trkpt>
      <trkpt lat="45.49076" lon="6.71539">
        <ele>2406</ele>
        <time>2011-03-13T12:39:36.13Z</time>
      </trkpt>
      <trkpt lat="45.49084" lon="6.71603">
        <ele>2413</ele>
        <time>2011-03-13T12:39:47Z</time>
      </trkpt>
      <trkpt lat="45.49096" lon="6.7167">
        <ele>2410</ele>
        <time>2011-03-13T12:39:59Z</time>
      </trkpt>
      <trkpt lat="45.49108" lon="6.71735">
        <ele>2417</ele>
        <time>2011-03-13T12:40:11Z</time>
      </trkpt>
      <trkpt lat="45.4912" lon="6.71799">
        <ele>2429</ele>
        <time>2011-03-13T12:40:23.121Z</time>
      </trkpt>
      <trkpt lat="45.49133" lon="6.71866">
        <ele>2434</ele>
        <time>2011-03-13T12:40:36.106Z</time>
      </trkpt>
      <trkpt lat="45.49148" lon="6.71929">
        <ele>2446</ele>
        <time>2011-03-13T12:40:49Z</time>
      </trkpt>
      <trkpt lat="45.49158" lon="6.71994">
        <ele>2460</ele>
        <time>2011-03-13T12:41:01Z</time>
      </trkpt>
      <trkpt lat="45.49168" lon="6.72061">
        <ele>2467</ele>
        <time>2011-03-13T12:41:13Z</time>
      </trkpt>
      <trkpt lat="45.49177" lon="6.72126">
        <ele>2469</ele>
        <time>2011-03-13T12:41:24Z</time>
      </trkpt>
      <trkpt lat="45.49187" lon="6.72193">
        <ele>2469</ele>
        <time>2011-03-13T12:41:36Z</time>
      </trkpt>
      <trkpt lat="45.49198" lon="6.72261">
        <ele>2472</ele>
        <time>2011-03-13T12:41:48Z</time>
      </trkpt>
      <trkpt lat="45.49207" lon="6.72329">
        <ele>2479</ele>
        <time>2011-03-13T12:42:00.129Z</time>
      </trkpt>
      <trkpt lat="45.49216" lon="6.72397">
        <ele>2493</ele>
        <time>2011-03-13T12:42:14.119Z</time>
      </trkpt>
      <trkpt lat="45.49228" lon="6.72462">
        <ele>2497</ele>
        <time>2011-03-13T12:42:26Z</time>
      </trkpt>
      <trkpt lat="45.49239" lon="6.7253">
        <ele>2497</ele>
        <time>2011-03-13T12:42:38.107Z</time>
      </trkpt>
      <trkpt lat="45.4925" lon="6.72596">
        <ele>2499</ele>
        <time>2011-03-13T12:42:50.121Z</time>
      </trkpt>
      <trkpt lat="45.49263" lon="6.72662">
        <ele>2512</ele>
        <time>2011-03-13T12:43:03Z</time>
      </trkpt>
      <trkpt lat="45.49277" lon="6.72724">
        <ele>2531</ele>
        <time>2011-03-13T12:43:16.103Z</time>
      </trkpt>
      <trkpt lat="45.49285" lon="6.72789">
        <ele>2531</ele>
        <time>2011-03-13T12:43:27Z</time>
      </trkpt>
      <trkpt lat="45.49294" lon="6.72853">
        <ele>2536</ele>
        <time>2011-03-13T12:43:38.111Z</time>
      </trkpt>
      <trkpt lat="45.49304" lon="6.72919">
        <ele>2543</ele>
        <time>2011-03-13T12:43:50Z</time>
      </trkpt>
      <trkpt lat="45.49316" lon="6.72985">
        <ele>2555</ele>
        <time>2011-03-13T12:44:02.107Z</time>
      </trkpt>
      <trkpt lat="45.49326" lon="6.73059">
        <ele>2573</ele>
        <time>2011-03-13T12:44:15.119Z</time>
      </trkpt>
      <trkpt lat="45.49339" lon="6.73121">
        <ele>2573</ele>
        <time>2011-03-13T12:44:28.13Z</time>
      </trkpt>
      <trkpt lat="45.49353" lon="6.73187">
        <ele>2596</ele>
        <time>2011-03-13T12:44:42Z</time>
      </trkpt>
      <trkpt lat="45.49366" lon="6.7325">
        <ele>2626</ele>
        <time>2011-03-13T12:44:56.954Z</time>
      </trkpt>
      <trkpt lat="45.4938" lon="6.73311">
        <ele>2672</ele>
        <time>2011-03-13T12:45:10.11Z</time>
      </trkpt>
      <trkpt lat="45.49393" lon="6.73376">
        <ele>2706</ele>
        <time>2011-03-13T12:45:25Z</time>
      </trkpt>
      <trkpt lat="45.49412" lon="6.73435">
        <ele>2706</ele>
        <time>2011-03-13T12:45:41Z</time>
      </trkpt>
      <trkpt lat="45.49405" lon="6.7348">
        <ele>2710</ele>
        <time>2011-03-13T12:45:57Z</time>
      </trkpt>
      <trkpt lat="45.49408" lon="6.73504">
        <ele>2710</ele>
        <time>2011-03-13T12:46:12.12Z</time>
      </trkpt>
      <trkpt lat="45.49405" lon="6.73504">
        <ele>2710</ele>
        <time>2011-03-13T12:46:28Z</time>
      </trkpt>
      <trkpt lat="45.49407" lon="6.73503">
        <ele>2710</ele>
        <time>2011-03-13T12:46:44Z</time>
      </trkpt>
      <trkpt lat="45.49452" lon="6.7348">
        <ele>2710</ele>
        <time>2011-03-13T12:47:00.433Z</time>
      </trkpt>
      <trkpt lat="45.4948" lon="6.73428">
        <ele>2692</ele>
        <time>2011-03-13T12:47:10Z</time>
      </trkpt>
      <trkpt lat="45.49522" lon="6.7339">
        <ele>2692</ele>
        <time>2011-03-13T12:47:19Z</time>
      </trkpt>
      <trkpt lat="45.49566" lon="6.73377">
        <ele>2665</ele>
        <time>2011-03-13T12:47:27Z</time>
      </trkpt>
      <trkpt lat="45.49613" lon="6.73366">
        <ele>2666</ele>
        <time>2011-03-13T12:47:36Z</time>
      </trkpt>
      <trkpt lat="45.49652" lon="6.73335">
        <ele>2657</ele>
        <time>2011-03-13T12:47:44Z</time>
      </trkpt>
      <trkpt lat="45.49683" lon="6.73285">
        <ele>2643</ele>
        <time>2011-03-13T12:47:53Z</time>
      </trkpt>
      <trkpt lat="45.49701" lon="6.73219">
        <ele>2643</ele>
        <time>2011-03-13T12:48:03.141Z</time>
      </trkpt>
      <trkpt lat="45.49723" lon="6.73163">
        <ele>2641</ele>
        <time>2011-03-13T12:48:16.137Z</time>
      </trkpt>
      <trkpt lat="45.49694" lon="6.73163">
        <ele>2626</ele>
        <time>2011-03-13T12:48:32.11Z</time>
      </trkpt>
      <trkpt lat="45.49695" lon="6.73159">
        <ele>2626</ele>
        <time>2011-03-13T12:48:48.12Z</time>
      </trkpt>
      <trkpt lat="45.49708" lon="6.73092">
        <ele>2612</ele>
        <time>2011-03-13T12:49:01.187Z</time>
      </trkpt>
      <trkpt lat="45.49745" lon="6.73052">
        <ele>2618</ele>
        <time>2011-03-13T12:49:14Z</time>
      </trkpt>
      <trkpt lat="45.49756" lon="6.73037">
        <ele>2595</ele>
        <time>2011-03-13T12:49:30Z</time>
      </trkpt>
      <trkpt lat="45.49797" lon="6.7301">
        <ele>2567</ele>
        <time>2011-03-13T12:49:42Z</time>
      </trkpt>
      <trkpt lat="45.4984" lon="6.72976">
        <ele>2567</ele>
        <time>2011-03-13T12:49:50Z</time>
      </trkpt>
      <trkpt lat="45.49884" lon="6.72942">
        <ele>2535</ele>
        <time>2011-03-13T12:49:56Z</time>
      </trkpt>
      <trkpt lat="45.49934" lon="6.7292">
        <ele>2535</ele>
        <time>2011-03-13T12:50:04.137Z</time>
      </trkpt>
      <trkpt lat="45.49942" lon="6.72891">
        <ele>2535</ele>
        <time>2011-03-13T12:50:19.466Z</time>
      </trkpt>
      <trkpt lat="45.49981" lon="6.72849">
        <ele>2505</ele>
        <time>2011-03-13T12:50:34.119Z</time>
      </trkpt>
      <trkpt lat="45.5002" lon="6.72803">
        <ele>2505</ele>
        <time>2011-03-13T12:50:42.099Z</time>
      </trkpt>
      <trkpt lat="45.50057" lon="6.72759">
        <ele>2486</ele>
        <time>2011-03-13T12:50:52Z</time>
      </trkpt>
      <trkpt lat="45.50103" lon="6.72737">
        <ele>2486</ele>
        <time>2011-03-13T12:51:01Z</time>
      </trkpt>
      <trkpt lat="45.50148" lon="6.72739">
        <ele>2473</ele>
        <time>2011-03-13T12:51:07Z</time>
      </trkpt>
      <trkpt lat="45.50175" lon="6.72751">
        <ele>2473</ele>
        <time>2011-03-13T12:51:23Z</time>
      </trkpt>
      <trkpt lat="45.5022" lon="6.72737">
        <ele>2455</ele>
        <time>2011-03-13T12:51:38Z</time>
      </trkpt>
      <trkpt lat="45.50268" lon="6.72748">
        <ele>2455</ele>
        <time>2011-03-13T12:51:46Z</time>
      </trkpt>
      <trkpt lat="45.50312" lon="6.72732">
        <ele>2438</ele>
        <time>2011-03-13T12:51:53Z</time>
      </trkpt>
      <trkpt lat="45.50355" lon="6.72703">
        <ele>2433</ele>
        <time>2011-03-13T12:51:59Z</time>
      </trkpt>
      <trkpt lat="45.50395" lon="6.72672">
        <ele>2404</ele>
        <time>2011-03-13T12:52:05Z</time>
      </trkpt>
      <trkpt lat="45.5044" lon="6.72643">
        <ele>2404</ele>
        <time>2011-03-13T12:52:12Z</time>
      </trkpt>
      <trkpt lat="45.50487" lon="6.72644">
        <ele>2373</ele>
        <time>2011-03-13T12:52:19.11Z</time>
      </trkpt>
      <trkpt lat="45.50535" lon="6.72641">
        <ele>2373</ele>
        <time>2011-03-13T12:52:28.136Z</time>
      </trkpt>
      <trkpt lat="45.50581" lon="6.72618">
        <ele>2343</ele>
        <time>2011-03-13T12:52:38.106Z</time>
      </trkpt>
      <trkpt lat="45.50625" lon="6.72589">
        <ele>2343</ele>
        <time>2011-03-13T12:52:47Z</time>
      </trkpt>
      <trkpt lat="45.50671" lon="6.72574">
        <ele>2313</ele>
        <time>2011-03-13T12:52:56Z</time>
      </trkpt>
      <trkpt lat="45.50721" lon="6.72569">
        <ele>2282</ele>
        <time>2011-03-13T12:53:04Z</time>
      </trkpt>
      <trkpt lat="45.50769" lon="6.72564">
        <ele>2282</ele>
        <time>2011-03-13T12:53:11Z</time>
      </trkpt>
      <trkpt lat="45.50814" lon="6.72577">
        <ele>2266</ele>
        <time>2011-03-13T12:53:16Z</time>
      </trkpt>
      <trkpt lat="45.5086" lon="6.72576">
        <ele>2266</ele>
        <time>2011-03-13T12:53:24Z</time>
      </trkpt>
      <trkpt lat="45.50909" lon="6.72555">
        <ele>2251</ele>
        <time>2011-03-13T12:53:30Z</time>
      </trkpt>
      <trkpt lat="45.50953" lon="6.72543">
        <ele>2251</ele>
        <time>2011-03-13T12:53:37Z</time>
      </trkpt>
      <trkpt lat="45.50998" lon="6.72531">
        <ele>2214</ele>
        <time>2011-03-13T12:53:44Z</time>
      </trkpt>
      <trkpt lat="45.51048" lon="6.72525">
        <ele>2196</ele>
        <time>2011-03-13T12:53:53Z</time>
      </trkpt>
      <trkpt lat="45.51091" lon="6.72505">
        <ele>2196</ele>
        <time>2011-03-13T12:54:01Z</time>
      </trkpt>
      <trkpt lat="45.51073" lon="6.72502">
        <ele>2196</ele>
        <time>2011-03-13T12:54:16.113Z</time>
      </trkpt>
      <trkpt lat="45.51066" lon="6.72497">
        <ele>2196</ele>
        <time>2011-03-13T12:54:31.363Z</time>
      </trkpt>
      <trkpt lat="45.51073" lon="6.72499">
        <ele>2196</ele>
        <time>2011-03-13T12:54:47Z</time>
      </trkpt>
      <trkpt lat="45.51069" lon="6.72496">
        <ele>2196</ele>
        <time>2011-03-13T12:55:03Z</time>
      </trkpt>
      <trkpt lat="45.51069" lon="6.72496">
        <ele>2196</ele>
        <time>2011-03-13T12:55:19Z</time>
      </trkpt>
      <trkpt lat="45.51067" lon="6.72504">
        <ele>2196</ele>
        <time>2011-03-13T12:55:35Z</time>
      </trkpt>
      <trkpt lat="45.51053" lon="6.7251">
        <ele>2196</ele>
        <time>2011-03-13T12:55:51Z</time>
      </trkpt>
      <trkpt lat="45.5103" lon="6.72521">
        <ele>2214</ele>
        <time>2011-03-13T12:56:06.134Z</time>
      </trkpt>
      <trkpt lat="45.51006" lon="6.72533">
        <ele>2214</ele>
        <time>2011-03-13T12:56:21.352Z</time>
      </trkpt>
      <trkpt lat="45.50981" lon="6.72547">
        <ele>2229</ele>
        <time>2011-03-13T12:56:37Z</time>
      </trkpt>
      <trkpt lat="45.50956" lon="6.72561">
        <ele>2251</ele>
        <time>2011-03-13T12:56:53Z</time>
      </trkpt>
      <trkpt lat="45.5093" lon="6.72576">
        <ele>2251</ele>
        <time>2011-03-13T12:57:09Z</time>
      </trkpt>
      <trkpt lat="45.50905" lon="6.7259">
        <ele>2251</ele>
        <time>2011-03-13T12:57:25Z</time>
      </trkpt>
      <trkpt lat="45.5088" lon="6.72605">
        <ele>2251</ele>
        <time>2011-03-13T12:57:41Z</time>
      </trkpt>
      <trkpt lat="45.50855" lon="6.7262">
        <ele>2266</ele>
        <time>2011-03-13T12:57:57Z</time>
      </trkpt>
      <trkpt lat="45.5083" lon="6.72634">
        <ele>2283</ele>
        <time>2011-03-13T12:58:12.221Z</time>
      </trkpt>
      <trkpt lat="45.50803" lon="6.7265">
        <ele>2283</ele>
        <time>2011-03-13T12:58:28.113Z</time>
      </trkpt>
      <trkpt lat="45.50779" lon="6.72663">
        <ele>2298</ele>
        <time>2011-03-13T12:58:43.115Z</time>
      </trkpt>
      <trkpt lat="45.50753" lon="6.72678">
        <ele>2298</ele>
        <time>2011-03-13T12:58:59.106Z</time>
      </trkpt>
      <trkpt lat="45.50727" lon="6.72693">
        <ele>2298</ele>
        <time>2011-03-13T12:59:15Z</time>
      </trkpt>
      <trkpt lat="45.507" lon="6.7271">
        <ele>2317</ele>
        <time>2011-03-13T12:59:31Z</time>
      </trkpt>
      <trkpt lat="45.5067" lon="6.72726">
        <ele>2317</ele>
        <time>2011-03-13T12:59:47Z</time>
      </trkpt>
      <trkpt lat="45.50647" lon="6.72738">
        <ele>2317</ele>
        <time>2011-03-13T13:00:02.103Z</time>
      </trkpt>
      <trkpt lat="45.50623" lon="6.72753">
        <ele>2345</ele>
        <time>2011-03-13T13:00:18.129Z</time>
      </trkpt>
      <trkpt lat="45.50599" lon="6.72767">
        <ele>2345</ele>
        <time>2011-03-13T13:00:34Z</time>
      </trkpt>
      <trkpt lat="45.50575" lon="6.72781">
        <ele>2345</ele>
        <time>2011-03-13T13:00:50Z</time>
      </trkpt>
      <trkpt lat="45.50551" lon="6.72794">
        <ele>2345</ele>
        <time>2011-03-13T13:01:06Z</time>
      </trkpt>
      <trkpt lat="45.50526" lon="6.72807">
        <ele>2387</ele>
        <time>2011-03-13T13:01:22Z</time>
      </trkpt>
      <trkpt lat="45.50501" lon="6.72821">
        <ele>2387</ele>
        <time>2011-03-13T13:01:38Z</time>
      </trkpt>
      <trkpt lat="45.50477" lon="6.72836">
        <ele>2387</ele>
        <time>2011-03-13T13:01:54Z</time>
      </trkpt>
      <trkpt lat="45.50454" lon="6.72849">
        <ele>2428</ele>
        <time>2011-03-13T13:02:09.95Z</time>
      </trkpt>
      <trkpt lat="45.50431" lon="6.72864">
        <ele>2428</ele>
        <time>2011-03-13T13:02:25.141Z</time>
      </trkpt>
      <trkpt lat="45.50406" lon="6.72879">
        <ele>2433</ele>
        <time>2011-03-13T13:02:41.12Z</time>
      </trkpt>
      <trkpt lat="45.5038" lon="6.72893">
        <ele>2433</ele>
        <time>2011-03-13T13:02:58.12Z</time>
      </trkpt>
      <trkpt lat="45.50355" lon="6.72909">
        <ele>2455</ele>
        <time>2011-03-13T13:03:14Z</time>
      </trkpt>
      <trkpt lat="45.50329" lon="6.72924">
        <ele>2455</ele>
        <time>2011-03-13T13:03:30Z</time>
      </trkpt>
      <trkpt lat="45.50303" lon="6.72939">
        <ele>2455</ele>
        <time>2011-03-13T13:03:46Z</time>
      </trkpt>
      <trkpt lat="45.50279" lon="6.72952">
        <ele>2467</ele>
        <time>2011-03-13T13:04:01.129Z</time>
      </trkpt>
      <trkpt lat="45.50253" lon="6.72968">
        <ele>2476</ele>
        <time>2011-03-13T13:04:17Z</time>
      </trkpt>
      <trkpt lat="45.50229" lon="6.72983">
        <ele>2476</ele>
        <time>2011-03-13T13:04:33Z</time>
      </trkpt>
      <trkpt lat="45.50202" lon="6.72999">
        <ele>2498</ele>
        <time>2011-03-13T13:04:49Z</time>
      </trkpt>
      <trkpt lat="45.50176" lon="6.73014">
        <ele>2498</ele>
        <time>2011-03-13T13:05:05Z</time>
      </trkpt>
      <trkpt lat="45.50151" lon="6.73027">
        <ele>2498</ele>
        <time>2011-03-13T13:05:20.109Z</time>
      </trkpt>
      <trkpt lat="45.50127" lon="6.73043">
        <ele>2506</ele>
        <time>2011-03-13T13:05:36.118Z</time>
      </trkpt>
      <trkpt lat="45.50101" lon="6.73057">
        <ele>2539</ele>
        <time>2011-03-13T13:05:52Z</time>
      </trkpt>
      <trkpt lat="45.50075" lon="6.73073">
        <ele>2539</ele>
        <time>2011-03-13T13:06:08Z</time>
      </trkpt>
      <trkpt lat="45.50052" lon="6.73086">
        <ele>2539</ele>
        <time>2011-03-13T13:06:23.103Z</time>
      </trkpt>
      <trkpt lat="45.50028" lon="6.731">
        <ele>2556</ele>
        <time>2011-03-13T13:06:38.108Z</time>
      </trkpt>
      <trkpt lat="45.50003" lon="6.73115">
        <ele>2556</ele>
        <time>2011-03-13T13:06:54Z</time>
      </trkpt>
      <trkpt lat="45.49979" lon="6.7313">
        <ele>2580</ele>
        <time>2011-03-13T13:07:10Z</time>
      </trkpt>
      <trkpt lat="45.49953" lon="6.73144">
        <ele>2600</ele>
        <time>2011-03-13T13:07:26Z</time>
      </trkpt>
      <trkpt lat="45.4993" lon="6.73158">
        <ele>2600</ele>
        <time>2011-03-13T13:07:41.114Z</time>
      </trkpt>
      <trkpt lat="45.49905" lon="6.73173">
        <ele>2600</ele>
        <time>2011-03-13T13:07:57.11Z</time>
      </trkpt>
      <trkpt lat="45.49879" lon="6.73186">
        <ele>2600</ele>
        <time>2011-03-13T13:08:13Z</time>
      </trkpt>
      <trkpt lat="45.49856" lon="6.73199">
        <ele>2627</ele>
        <time>2011-03-13T13:08:28.101Z</time>
      </trkpt>
      <trkpt lat="45.49831" lon="6.73211">
        <ele>2645</ele>
        <time>2011-03-13T13:08:44.119Z</time>
      </trkpt>
      <trkpt lat="45.49809" lon="6.73224">
        <ele>2645</ele>
        <time>2011-03-13T13:09:00Z</time>
      </trkpt>
      <trkpt lat="45.49784" lon="6.73239">
        <ele>2655</ele>
        <time>2011-03-13T13:09:16Z</time>
      </trkpt>
      <trkpt lat="45.49759" lon="6.73254">
        <ele>2655</ele>
        <time>2011-03-13T13:09:31.129Z</time>
      </trkpt>
      <trkpt lat="45.49732" lon="6.73269">
        <ele>2655</ele>
        <time>2011-03-13T13:09:47.106Z</time>
      </trkpt>
      <trkpt lat="45.49705" lon="6.73283">
        <ele>2643</ele>
        <time>2011-03-13T13:10:03Z</time>
      </trkpt>
      <trkpt lat="45.49678" lon="6.73297">
        <ele>2657</ele>
        <time>2011-03-13T13:10:19Z</time>
      </trkpt>
      <trkpt lat="45.49652" lon="6.73312">
        <ele>2657</ele>
        <time>2011-03-13T13:10:34.1Z</time>
      </trkpt>
      <trkpt lat="45.49626" lon="6.73327">
        <ele>2657</ele>
        <time>2011-03-13T13:10:50.636Z</time>
      </trkpt>
      <trkpt lat="45.49599" lon="6.73343">
        <ele>2666</ele>
        <time>2011-03-13T13:11:06Z</time>
      </trkpt>
      <trkpt lat="45.49575" lon="6.73357">
        <ele>2666</ele>
        <time>2011-03-13T13:11:21.108Z</time>
      </trkpt>
      <trkpt lat="45.4955" lon="6.73373">
        <ele>2666</ele>
        <time>2011-03-13T13:11:37Z</time>
      </trkpt>
      <trkpt lat="45.49524" lon="6.73387">
        <ele>2692</ele>
        <time>2011-03-13T13:11:53Z</time>
      </trkpt>
      <trkpt lat="45.49498" lon="6.73402">
        <ele>2692</ele>
        <time>2011-03-13T13:12:09Z</time>
      </trkpt>
      <trkpt lat="45.49472" lon="6.73417">
        <ele>2692</ele>
        <time>2011-03-13T13:12:25Z</time>
      </trkpt>
      <trkpt lat="45.49447" lon="6.73432">
        <ele>2706</ele>
        <time>2011-03-13T13:12:40.117Z</time>
      </trkpt>
      <trkpt lat="45.49421" lon="6.73459">
        <ele>2710</ele>
        <time>2011-03-13T13:12:56.096Z</time>
      </trkpt>
      <trkpt lat="45.49442" lon="6.73494">
        <ele>2710</ele>
        <time>2011-03-13T13:13:11.154Z</time>
      </trkpt>
      <trkpt lat="45.49451" lon="6.73482">
        <ele>2710</ele>
        <time>2011-03-13T13:13:27Z</time>
      </trkpt>
      <trkpt lat="45.49483" lon="6.73431">
        <ele>2692</ele>
        <time>2011-03-13T13:13:35.106Z</time>
      </trkpt>
      <trkpt lat="45.49527" lon="6.73393">
        <ele>2692</ele>
        <time>2011-03-13T13:13:43Z</time>
      </trkpt>
      <trkpt lat="45.49575" lon="6.73376">
        <ele>2665</ele>
        <time>2011-03-13T13:13:50Z</time>
      </trkpt>
      <trkpt lat="45.49623" lon="6.7337">
        <ele>2666</ele>
        <time>2011-03-13T13:13:56Z</time>
      </trkpt>
      <trkpt lat="45.49673" lon="6.73346">
        <ele>2657</ele>
        <time>2011-03-13T13:14:02.12Z</time>
      </trkpt>
      <trkpt lat="45.49717" lon="6.73309">
        <ele>2645</ele>
        <time>2011-03-13T13:14:07.139Z</time>
      </trkpt>
      <trkpt lat="45.49752" lon="6.73263">
        <ele>2655</ele>
        <time>2011-03-13T13:14:13.109Z</time>
      </trkpt>
      <trkpt lat="45.49786" lon="6.73214">
        <ele>2655</ele>
        <time>2011-03-13T13:14:19.131Z</time>
      </trkpt>
      <trkpt lat="45.49801" lon="6.73149">
        <ele>2627</ele>
        <time>2011-03-13T13:14:26.092Z</time>
      </trkpt>
      <trkpt lat="45.49802" lon="6.73084">
        <ele>2593</ele>
        <time>2011-03-13T13:14:34Z</time>
      </trkpt>
      <trkpt lat="45.49814" lon="6.73021">
        <ele>2567</ele>
        <time>2011-03-13T13:14:49.933Z</time>
      </trkpt>
      <trkpt lat="45.49859" lon="6.73">
        <ele>2567</ele>
        <time>2011-03-13T13:14:58Z</time>
      </trkpt>
      <trkpt lat="45.49907" lon="6.72974">
        <ele>2543</ele>
        <time>2011-03-13T13:15:04.104Z</time>
      </trkpt>
      <trkpt lat="45.49951" lon="6.72945">
        <ele>2535</ele>
        <time>2011-03-13T13:15:09.114Z</time>
      </trkpt>
      <trkpt lat="45.49996" lon="6.7293">
        <ele>2516</ele>
        <time>2011-03-13T13:15:13Z</time>
      </trkpt>
      <trkpt lat="45.5004" lon="6.72902">
        <ele>2516</ele>
        <time>2011-03-13T13:15:18Z</time>
      </trkpt>
      <trkpt lat="45.50072" lon="6.72845">
        <ele>2480</ele>
        <time>2011-03-13T13:15:26Z</time>
      </trkpt>
      <trkpt lat="45.50114" lon="6.72799">
        <ele>2480</ele>
        <time>2011-03-13T13:15:31Z</time>
      </trkpt>
      <trkpt lat="45.5015" lon="6.72757">
        <ele>2473</ele>
        <time>2011-03-13T13:15:35Z</time>
      </trkpt>
      <trkpt lat="45.502" lon="6.72733">
        <ele>2473</ele>
        <time>2011-03-13T13:15:41Z</time>
      </trkpt>
      <trkpt lat="45.50251" lon="6.72724">
        <ele>2455</ele>
        <time>2011-03-13T13:15:47Z</time>
      </trkpt>
      <trkpt lat="45.50297" lon="6.72724">
        <ele>2438</ele>
        <time>2011-03-13T13:15:54Z</time>
      </trkpt>
      <trkpt lat="45.50347" lon="6.72735">
        <ele>2438</ele>
        <time>2011-03-13T13:16:02.105Z</time>
      </trkpt>
      <trkpt lat="45.50404" lon="6.72718">
        <ele>2408</ele>
        <time>2011-03-13T13:16:09.127Z</time>
      </trkpt>
      <trkpt lat="45.50445" lon="6.72674">
        <ele>2404</ele>
        <time>2011-03-13T13:16:16.096Z</time>
      </trkpt>
      <trkpt lat="45.50484" lon="6.72629">
        <ele>2373</ele>
        <time>2011-03-13T13:16:22.105Z</time>
      </trkpt>
      <trkpt lat="45.50525" lon="6.72605">
        <ele>2382</ele>
        <time>2011-03-13T13:16:29.111Z</time>
      </trkpt>
      <trkpt lat="45.5057" lon="6.72601">
        <ele>2343</ele>
        <time>2011-03-13T13:16:36.095Z</time>
      </trkpt>
      <trkpt lat="45.50621" lon="6.72603">
        <ele>2343</ele>
        <time>2011-03-13T13:16:44Z</time>
      </trkpt>
      <trkpt lat="45.50672" lon="6.72581">
        <ele>2313</ele>
        <time>2011-03-13T13:16:52.102Z</time>
      </trkpt>
      <trkpt lat="45.50718" lon="6.72555">
        <ele>2282</ele>
        <time>2011-03-13T13:16:58.099Z</time>
      </trkpt>
      <trkpt lat="45.50757" lon="6.72523">
        <ele>2281</ele>
        <time>2011-03-13T13:17:04Z</time>
      </trkpt>
      <trkpt lat="45.50803" lon="6.72517">
        <ele>2255</ele>
        <time>2011-03-13T13:17:11.107Z</time>
      </trkpt>
      <trkpt lat="45.50855" lon="6.72524">
        <ele>2255</ele>
        <time>2011-03-13T13:17:19.932Z</time>
      </trkpt>
      <trkpt lat="45.50905" lon="6.72541">
        <ele>2236</ele>
        <time>2011-03-13T13:17:29Z</time>
      </trkpt>
      <trkpt lat="45.50951" lon="6.72544">
        <ele>2251</ele>
        <time>2011-03-13T13:17:33.101Z</time>
      </trkpt>
      <trkpt lat="45.50998" lon="6.7253">
        <ele>2214</ele>
        <time>2011-03-13T13:17:40.099Z</time>
      </trkpt>
      <trkpt lat="45.51044" lon="6.72518">
        <ele>2196</ele>
        <time>2011-03-13T13:17:46.1Z</time>
      </trkpt>
      <trkpt lat="45.51089" lon="6.725">
        <ele>2196</ele>
        <time>2011-03-13T13:17:54.096Z</time>
      </trkpt>
      <trkpt lat="45.51136" lon="6.72504">
        <ele>2190</ele>
        <time>2011-03-13T13:18:04.129Z</time>
      </trkpt>
      <trkpt lat="45.5114" lon="6.72493">
        <ele>2190</ele>
        <time>2011-03-13T13:18:20.189Z</time>
      </trkpt>
      <trkpt lat="45.51121" lon="6.72497">
        <ele>2196</ele>
        <time>2011-03-13T13:18:36.099Z</time>
      </trkpt>
      <trkpt lat="45.51101" lon="6.72497">
        <ele>2196</ele>
        <time>2011-03-13T13:18:51.119Z</time>
      </trkpt>
      <trkpt lat="45.51088" lon="6.72496">
        <ele>2196</ele>
        <time>2011-03-13T13:19:06.127Z</time>
      </trkpt>
      <trkpt lat="45.51084" lon="6.72496">
        <ele>2196</ele>
        <time>2011-03-13T13:19:22.944Z</time>
      </trkpt>
      <trkpt lat="45.51079" lon="6.72498">
        <ele>2196</ele>
        <time>2011-03-13T13:19:38.106Z</time>
      </trkpt>
      <trkpt lat="45.51073" lon="6.72499">
        <ele>2196</ele>
        <time>2011-03-13T13:19:53.151Z</time>
      </trkpt>
      <trkpt lat="45.51068" lon="6.72497">
        <ele>2196</ele>
        <time>2011-03-13T13:20:08.935Z</time>
      </trkpt>
      <trkpt lat="45.51059" lon="6.72505">
        <ele>2196</ele>
        <time>2011-03-13T13:20:24.096Z</time>
      </trkpt>
      <trkpt lat="45.51038" lon="6.7252">
        <ele>2214</ele>
        <time>2011-03-13T13:20:40.11Z</time>
      </trkpt>
      <trkpt lat="45.51017" lon="6.72536">
        <ele>2214</ele>
        <time>2011-03-13T13:20:56Z</time>
      </trkpt>
      <trkpt lat="45.50994" lon="6.72551">
        <ele>2229</ele>
        <time>2011-03-13T13:21:11.092Z</time>
      </trkpt>
      <trkpt lat="45.5097" lon="6.72564">
        <ele>2229</ele>
        <time>2011-03-13T13:21:26.1Z</time>
      </trkpt>
      <trkpt lat="45.50949" lon="6.7258">
        <ele>2251</ele>
        <time>2011-03-13T13:21:41.129Z</time>
      </trkpt>
      <trkpt lat="45.50924" lon="6.72595">
        <ele>2251</ele>
        <time>2011-03-13T13:21:56.932Z</time>
      </trkpt>
      <trkpt lat="45.50899" lon="6.7261">
        <ele>2251</ele>
        <time>2011-03-13T13:22:12Z</time>
      </trkpt>
      <trkpt lat="45.50873" lon="6.72626">
        <ele>2283</ele>
        <time>2011-03-13T13:22:28Z</time>
      </trkpt>
      <trkpt lat="45.50846" lon="6.7264">
        <ele>2283</ele>
        <time>2011-03-13T13:22:44Z</time>
      </trkpt>
      <trkpt lat="45.50816" lon="6.7265">
        <ele>2283</ele>
        <time>2011-03-13T13:23:01.11Z</time>
      </trkpt>
      <trkpt lat="45.50788" lon="6.72664">
        <ele>2298</ele>
        <time>2011-03-13T13:23:17.092Z</time>
      </trkpt>
      <trkpt lat="45.50761" lon="6.72677">
        <ele>2298</ele>
        <time>2011-03-13T13:23:33.099Z</time>
      </trkpt>
      <trkpt lat="45.50736" lon="6.72691">
        <ele>2298</ele>
        <time>2011-03-13T13:23:48.108Z</time>
      </trkpt>
      <trkpt lat="45.50708" lon="6.72708">
        <ele>2314</ele>
        <time>2011-03-13T13:24:04Z</time>
      </trkpt>
      <trkpt lat="45.5068" lon="6.72731">
        <ele>2317</ele>
        <time>2011-03-13T13:24:20Z</time>
      </trkpt>
      <trkpt lat="45.5065" lon="6.72744">
        <ele>2317</ele>
        <time>2011-03-13T13:24:36Z</time>
      </trkpt>
      <trkpt lat="45.5062" lon="6.72764">
        <ele>2345</ele>
        <time>2011-03-13T13:24:52Z</time>
      </trkpt>
      <trkpt lat="45.50592" lon="6.7278">
        <ele>2345</ele>
        <time>2011-03-13T13:25:09Z</time>
      </trkpt>
      <trkpt lat="45.50568" lon="6.72795">
        <ele>2345</ele>
        <time>2011-03-13T13:25:24.091Z</time>
      </trkpt>
      <trkpt lat="45.50541" lon="6.7281">
        <ele>2387</ele>
        <time>2011-03-13T13:25:40Z</time>
      </trkpt>
      <trkpt lat="45.50514" lon="6.72828">
        <ele>2387</ele>
        <time>2011-03-13T13:25:56Z</time>
      </trkpt>
      <trkpt lat="45.50486" lon="6.72845">
        <ele>2387</ele>
        <time>2011-03-13T13:26:12Z</time>
      </trkpt>
      <trkpt lat="45.50462" lon="6.72861">
        <ele>2387</ele>
        <time>2011-03-13T13:26:27.112Z</time>
      </trkpt>
      <trkpt lat="45.50435" lon="6.72876">
        <ele>2433</ele>
        <time>2011-03-13T13:26:43.105Z</time>
      </trkpt>
      <trkpt lat="45.50406" lon="6.72892">
        <ele>2433</ele>
        <time>2011-03-13T13:26:59.103Z</time>
      </trkpt>
      <trkpt lat="45.50381" lon="6.72911">
        <ele>2433</ele>
        <time>2011-03-13T13:27:14.93Z</time>
      </trkpt>
      <trkpt lat="45.5035" lon="6.72927">
        <ele>2455</ele>
        <time>2011-03-13T13:27:30.091Z</time>
      </trkpt>
      <trkpt lat="45.50321" lon="6.72941">
        <ele>2455</ele>
        <time>2011-03-13T13:27:45.935Z</time>
      </trkpt>
      <trkpt lat="45.50291" lon="6.72958">
        <ele>2467</ele>
        <time>2011-03-13T13:28:01.107Z</time>
      </trkpt>
      <trkpt lat="45.50261" lon="6.72973">
        <ele>2476</ele>
        <time>2011-03-13T13:28:17.107Z</time>
      </trkpt>
      <trkpt lat="45.50232" lon="6.7299">
        <ele>2476</ele>
        <time>2011-03-13T13:28:33Z</time>
      </trkpt>
      <trkpt lat="45.50203" lon="6.73005">
        <ele>2498</ele>
        <time>2011-03-13T13:28:48.739Z</time>
      </trkpt>
      <trkpt lat="45.50173" lon="6.73023">
        <ele>2498</ele>
        <time>2011-03-13T13:29:04Z</time>
      </trkpt>
      <trkpt lat="45.50144" lon="6.7304">
        <ele>2498</ele>
        <time>2011-03-13T13:29:20Z</time>
      </trkpt>
      <trkpt lat="45.50117" lon="6.73056">
        <ele>2539</ele>
        <time>2011-03-13T13:29:35.099Z</time>
      </trkpt>
      <trkpt lat="45.50088" lon="6.73074">
        <ele>2539</ele>
        <time>2011-03-13T13:29:51.111Z</time>
      </trkpt>
      <trkpt lat="45.50058" lon="6.7309">
        <ele>2539</ele>
        <time>2011-03-13T13:30:07Z</time>
      </trkpt>
      <trkpt lat="45.5003" lon="6.73106">
        <ele>2556</ele>
        <time>2011-03-13T13:30:23Z</time>
      </trkpt>
      <trkpt lat="45.50004" lon="6.73124">
        <ele>2556</ele>
        <time>2011-03-13T13:30:38.109Z</time>
      </trkpt>
      <trkpt lat="45.49974" lon="6.73138">
        <ele>2580</ele>
        <time>2011-03-13T13:30:54Z</time>
      </trkpt>
      <trkpt lat="45.49949" lon="6.73152">
        <ele>2600</ele>
        <time>2011-03-13T13:31:09.489Z</time>
      </trkpt>
      <trkpt lat="45.49922" lon="6.7317">
        <ele>2600</ele>
        <time>2011-03-13T13:31:25Z</time>
      </trkpt>
      <trkpt lat="45.49894" lon="6.73187">
        <ele>2600</ele>
        <time>2011-03-13T13:31:40.102Z</time>
      </trkpt>
      <trkpt lat="45.49866" lon="6.73202">
        <ele>2627</ele>
        <time>2011-03-13T13:31:56.127Z</time>
      </trkpt>
      <trkpt lat="45.49838" lon="6.73218">
        <ele>2645</ele>
        <time>2011-03-13T13:32:12Z</time>
      </trkpt>
      <trkpt lat="45.49813" lon="6.73235">
        <ele>2645</ele>
        <time>2011-03-13T13:32:27.092Z</time>
      </trkpt>
      <trkpt lat="45.49785" lon="6.73252">
        <ele>2655</ele>
        <time>2011-03-13T13:32:43.105Z</time>
      </trkpt>
      <trkpt lat="45.49753" lon="6.73267">
        <ele>2655</ele>
        <time>2011-03-13T13:32:59Z</time>
      </trkpt>
      <trkpt lat="45.49722" lon="6.73283">
        <ele>2655</ele>
        <time>2011-03-13T13:33:15Z</time>
      </trkpt>
      <trkpt lat="45.4969" lon="6.73298">
        <ele>2657</ele>
        <time>2011-03-13T13:33:31Z</time>
      </trkpt>
      <trkpt lat="45.49659" lon="6.73314">
        <ele>2657</ele>
        <time>2011-03-13T13:33:47Z</time>
      </trkpt>
      <trkpt lat="45.49629" lon="6.73332">
        <ele>2657</ele>
        <time>2011-03-13T13:34:03Z</time>
      </trkpt>
      <trkpt lat="45.49599" lon="6.73349">
        <ele>2666</ele>
        <time>2011-03-13T13:34:19Z</time>
      </trkpt>
      <trkpt lat="45.4957" lon="6.73366">
        <ele>2666</ele>
        <time>2011-03-13T13:34:35Z</time>
      </trkpt>
      <trkpt lat="45.49543" lon="6.73382">
        <ele>2665</ele>
        <time>2011-03-13T13:34:50.108Z</time>
      </trkpt>
      <trkpt lat="45.49513" lon="6.73399">
        <ele>2692</ele>
        <time>2011-03-13T13:35:06.118Z</time>
      </trkpt>
      <trkpt lat="45.49484" lon="6.73416">
        <ele>2692</ele>
        <time>2011-03-13T13:35:22.928Z</time>
      </trkpt>
      <trkpt lat="45.49454" lon="6.73433">
        <ele>2706</ele>
        <time>2011-03-13T13:35:38.099Z</time>
      </trkpt>
      <trkpt lat="45.49424" lon="6.7345">
        <ele>2706</ele>
        <time>2011-03-13T13:35:54Z</time>
      </trkpt>
      <trkpt lat="45.49421" lon="6.73445">
        <ele>2706</ele>
        <time>2011-03-13T13:36:10.116Z</time>
      </trkpt>
      <trkpt lat="45.49421" lon="6.73445">
        <ele>2706</ele>
        <time>2011-03-13T13:36:26Z</time>
      </trkpt>
      <trkpt lat="45.49445" lon="6.73466">
        <ele>2710</ele>
        <time>2011-03-13T13:36:41.086Z</time>
      </trkpt>
      <trkpt lat="45.49474" lon="6.73413">
        <ele>2692</ele>
        <time>2011-03-13T13:36:48Z</time>
      </trkpt>
      <trkpt lat="45.49514" lon="6.7338">
        <ele>2692</ele>
        <time>2011-03-13T13:36:57Z</time>
      </trkpt>
      <trkpt lat="45.49565" lon="6.73374">
        <ele>2666</ele>
        <time>2011-03-13T13:37:06Z</time>
      </trkpt>
      <trkpt lat="45.49615" lon="6.73384">
        <ele>2665</ele>
        <time>2011-03-13T13:37:14Z</time>
      </trkpt>
      <trkpt lat="45.49656" lon="6.73357">
        <ele>2657</ele>
        <time>2011-03-13T13:37:21Z</time>
      </trkpt>
      <trkpt lat="45.49685" lon="6.73303">
        <ele>2657</ele>
        <time>2011-03-13T13:37:30Z</time>
      </trkpt>
      <trkpt lat="45.49705" lon="6.73237">
        <ele>2643</ele>
        <time>2011-03-13T13:37:40Z</time>
      </trkpt>
      <trkpt lat="45.49718" lon="6.73172">
        <ele>2641</ele>
        <time>2011-03-13T13:37:48Z</time>
      </trkpt>
      <trkpt lat="45.4972" lon="6.73108">
        <ele>2618</ele>
        <time>2011-03-13T13:37:56Z</time>
      </trkpt>
      <trkpt lat="45.49715" lon="6.73035">
        <ele>2595</ele>
        <time>2011-03-13T13:38:02Z</time>
      </trkpt>
      <trkpt lat="45.49704" lon="6.72966">
        <ele>2605</ele>
        <time>2011-03-13T13:38:07Z</time>
      </trkpt>
      <trkpt lat="45.49682" lon="6.72901">
        <ele>2603</ele>
        <time>2011-03-13T13:38:13.113Z</time>
      </trkpt>
      <trkpt lat="45.49661" lon="6.7284">
        <ele>2597</ele>
        <time>2011-03-13T13:38:22Z</time>
      </trkpt>
      <trkpt lat="45.49677" lon="6.72774">
        <ele>2579</ele>
        <time>2011-03-13T13:38:31Z</time>
      </trkpt>
      <trkpt lat="45.4971" lon="6.72721">
        <ele>2579</ele>
        <time>2011-03-13T13:38:39Z</time>
      </trkpt>
      <trkpt lat="45.49741" lon="6.72672">
        <ele>2566</ele>
        <time>2011-03-13T13:38:46Z</time>
      </trkpt>
      <trkpt lat="45.49737" lon="6.72604">
        <ele>2545</ele>
        <time>2011-03-13T13:38:57Z</time>
      </trkpt>
      <trkpt lat="45.49723" lon="6.7254">
        <ele>2540</ele>
        <time>2011-03-13T13:39:04Z</time>
      </trkpt>
      <trkpt lat="45.49712" lon="6.72477">
        <ele>2540</ele>
        <time>2011-03-13T13:39:11Z</time>
      </trkpt>
      <trkpt lat="45.49704" lon="6.72409">
        <ele>2514</ele>
        <time>2011-03-13T13:39:17.089Z</time>
      </trkpt>
      <trkpt lat="45.49714" lon="6.72337">
        <ele>2523</ele>
        <time>2011-03-13T13:39:23.088Z</time>
      </trkpt>
      <trkpt lat="45.49695" lon="6.72266">
        <ele>2492</ele>
        <time>2011-03-13T13:39:31Z</time>
      </trkpt>
      <trkpt lat="45.49671" lon="6.72206">
        <ele>2497</ele>
        <time>2011-03-13T13:39:36Z</time>
      </trkpt>
      <trkpt lat="45.49636" lon="6.72153">
        <ele>2497</ele>
        <time>2011-03-13T13:39:41Z</time>
      </trkpt>
      <trkpt lat="45.49603" lon="6.72107">
        <ele>2471</ele>
        <time>2011-03-13T13:39:46Z</time>
      </trkpt>
      <trkpt lat="45.49576" lon="6.72055">
        <ele>2471</ele>
        <time>2011-03-13T13:39:52Z</time>
      </trkpt>
      <trkpt lat="45.49568" lon="6.71988">
        <ele>2471</ele>
        <time>2011-03-13T13:40:01Z</time>
      </trkpt>
      <trkpt lat="45.49587" lon="6.71922">
        <ele>2465</ele>
        <time>2011-03-13T13:40:11Z</time>
      </trkpt>
      <trkpt lat="45.49604" lon="6.71859">
        <ele>2449</ele>
        <time>2011-03-13T13:40:19Z</time>
      </trkpt>
      <trkpt lat="45.49602" lon="6.71793">
        <ele>2449</ele>
        <time>2011-03-13T13:40:27Z</time>
      </trkpt>
      <trkpt lat="45.49574" lon="6.71742">
        <ele>2438</ele>
        <time>2011-03-13T13:40:34Z</time>
      </trkpt>
      <trkpt lat="45.4954" lon="6.71697">
        <ele>2417</ele>
        <time>2011-03-13T13:40:40Z</time>
      </trkpt>
      <trkpt lat="45.49509" lon="6.71642">
        <ele>2417</ele>
        <time>2011-03-13T13:40:48Z</time>
      </trkpt>
      <trkpt lat="45.49494" lon="6.71626">
        <ele>2417</ele>
        <time>2011-03-13T13:41:04Z</time>
      </trkpt>
      <trkpt lat="45.49493" lon="6.71624">
        <ele>2403</ele>
        <time>2011-03-13T13:41:20.122Z</time>
      </trkpt>
      <trkpt lat="45.49494" lon="6.71621">
        <ele>2403</ele>
        <time>2011-03-13T13:41:36.1Z</time>
      </trkpt>
      <trkpt lat="45.49488" lon="6.71589">
        <ele>2403</ele>
        <time>2011-03-13T13:41:52Z</time>
      </trkpt>
      <trkpt lat="45.49477" lon="6.71523">
        <ele>2374</ele>
        <time>2011-03-13T13:42:05Z</time>
      </trkpt>
      <trkpt lat="45.49483" lon="6.71456">
        <ele>2338</ele>
        <time>2011-03-13T13:42:15Z</time>
      </trkpt>
      <trkpt lat="45.49504" lon="6.71399">
        <ele>2338</ele>
        <time>2011-03-13T13:42:21Z</time>
      </trkpt>
      <trkpt lat="45.49511" lon="6.71319">
        <ele>2322</ele>
        <time>2011-03-13T13:42:26Z</time>
      </trkpt>
      <trkpt lat="45.49547" lon="6.71255">
        <ele>2304</ele>
        <time>2011-03-13T13:42:30Z</time>
      </trkpt>
      <trkpt lat="45.49591" lon="6.71215">
        <ele>2304</ele>
        <time>2011-03-13T13:42:35Z</time>
      </trkpt>
      <trkpt lat="45.49633" lon="6.7118">
        <ele>2286</ele>
        <time>2011-03-13T13:42:41Z</time>
      </trkpt>
      <trkpt lat="45.49627" lon="6.71165">
        <ele>2286</ele>
        <time>2011-03-13T13:42:57Z</time>
      </trkpt>
      <trkpt lat="45.49628" lon="6.7117">
        <ele>2286</ele>
        <time>2011-03-13T13:43:12.111Z</time>
      </trkpt>
      <trkpt lat="45.49625" lon="6.71172">
        <ele>2301</ele>
        <time>2011-03-13T13:43:28Z</time>
      </trkpt>
      <trkpt lat="45.4962" lon="6.71171">
        <ele>2301</ele>
        <time>2011-03-13T13:43:44Z</time>
      </trkpt>
      <trkpt lat="45.49651" lon="6.71121">
        <ele>2273</ele>
        <time>2011-03-13T13:44:00.186Z</time>
      </trkpt>
      <trkpt lat="45.49691" lon="6.71071">
        <ele>2273</ele>
        <time>2011-03-13T13:44:06Z</time>
      </trkpt>
      <trkpt lat="45.49732" lon="6.71027">
        <ele>2243</ele>
        <time>2011-03-13T13:44:12Z</time>
      </trkpt>
      <trkpt lat="45.49778" lon="6.70981">
        <ele>2243</ele>
        <time>2011-03-13T13:44:18Z</time>
      </trkpt>
      <trkpt lat="45.49812" lon="6.70932">
        <ele>2212</ele>
        <time>2011-03-13T13:44:25Z</time>
      </trkpt>
      <trkpt lat="45.49831" lon="6.70907">
        <ele>2212</ele>
        <time>2011-03-13T13:44:41Z</time>
      </trkpt>
      <trkpt lat="45.49826" lon="6.70919">
        <ele>2212</ele>
        <time>2011-03-13T13:44:57Z</time>
      </trkpt>
      <trkpt lat="45.49869" lon="6.7088">
        <ele>2212</ele>
        <time>2011-03-13T13:45:06.091Z</time>
      </trkpt>
      <trkpt lat="45.49913" lon="6.70833">
        <ele>2187</ele>
        <time>2011-03-13T13:45:11.166Z</time>
      </trkpt>
      <trkpt lat="45.49972" lon="6.7084">
        <ele>2174</ele>
        <time>2011-03-13T13:45:18.093Z</time>
      </trkpt>
      <trkpt lat="45.50017" lon="6.70848">
        <ele>2174</ele>
        <time>2011-03-13T13:45:24Z</time>
      </trkpt>
      <trkpt lat="45.50061" lon="6.70839">
        <ele>2166</ele>
        <time>2011-03-13T13:45:35Z</time>
      </trkpt>
      <trkpt lat="45.50106" lon="6.70828">
        <ele>2166</ele>
        <time>2011-03-13T13:45:46.087Z</time>
      </trkpt>
      <trkpt lat="45.50136" lon="6.7081">
        <ele>2150</ele>
        <time>2011-03-13T13:46:02Z</time>
      </trkpt>
      <trkpt lat="45.50133" lon="6.7081">
        <ele>2150</ele>
        <time>2011-03-13T13:46:18Z</time>
      </trkpt>
      <trkpt lat="45.50132" lon="6.70811">
        <ele>2150</ele>
        <time>2011-03-13T13:46:34Z</time>
      </trkpt>
      <trkpt lat="45.50132" lon="6.70811">
        <ele>2150</ele>
        <time>2011-03-13T13:46:50Z</time>
      </trkpt>
      <trkpt lat="45.50148" lon="6.70817">
        <ele>2150</ele>
        <time>2011-03-13T13:47:05.133Z</time>
      </trkpt>
      <trkpt lat="45.50194" lon="6.70838">
        <ele>2150</ele>
        <time>2011-03-13T13:47:14.103Z</time>
      </trkpt>
      <trkpt lat="45.50243" lon="6.70818">
        <ele>2128</ele>
        <time>2011-03-13T13:47:22Z</time>
      </trkpt>
      <trkpt lat="45.50293" lon="6.70817">
        <ele>2105</ele>
        <time>2011-03-13T13:47:30Z</time>
      </trkpt>
      <trkpt lat="45.50342" lon="6.7083">
        <ele>2105</ele>
        <time>2011-03-13T13:47:35Z</time>
      </trkpt>
      <trkpt lat="45.50391" lon="6.70832">
        <ele>2088</ele>
        <time>2011-03-13T13:47:39Z</time>
      </trkpt>
      <trkpt lat="45.50442" lon="6.70845">
        <ele>2088</ele>
        <time>2011-03-13T13:47:43Z</time>
      </trkpt>
      <trkpt lat="45.50497" lon="6.70854">
        <ele>2078</ele>
        <time>2011-03-13T13:47:48.076Z</time>
      </trkpt>
      <trkpt lat="45.50547" lon="6.7085">
        <ele>2075</ele>
        <time>2011-03-13T13:47:53.084Z</time>
      </trkpt>
      <trkpt lat="45.50592" lon="6.70832">
        <ele>2075</ele>
        <time>2011-03-13T13:47:59.079Z</time>
      </trkpt>
      <trkpt lat="45.50625" lon="6.70787">
        <ele>2067</ele>
        <time>2011-03-13T13:48:07.089Z</time>
      </trkpt>
      <trkpt lat="45.50618" lon="6.70718">
        <ele>2067</ele>
        <time>2011-03-13T13:48:16.086Z</time>
      </trkpt>
      <trkpt lat="45.50615" lon="6.70648">
        <ele>2057</ele>
        <time>2011-03-13T13:48:23Z</time>
      </trkpt>
      <trkpt lat="45.50628" lon="6.70584">
        <ele>2048</ele>
        <time>2011-03-13T13:48:29Z</time>
      </trkpt>
      <trkpt lat="45.50657" lon="6.70535">
        <ele>2033</ele>
        <time>2011-03-13T13:48:35Z</time>
      </trkpt>
      <trkpt lat="45.50698" lon="6.70505">
        <ele>2033</ele>
        <time>2011-03-13T13:48:41Z</time>
      </trkpt>
      <trkpt lat="45.50737" lon="6.70483">
        <ele>2029</ele>
        <time>2011-03-13T13:48:56.093Z</time>
      </trkpt>
      <trkpt lat="45.50732" lon="6.70493">
        <ele>2029</ele>
        <time>2011-03-13T13:49:11.102Z</time>
      </trkpt>
      <trkpt lat="45.5073" lon="6.70495">
        <ele>2029</ele>
        <time>2011-03-13T13:49:27Z</time>
      </trkpt>
      <trkpt lat="45.50739" lon="6.70501">
        <ele>2029</ele>
        <time>2011-03-13T13:49:43Z</time>
      </trkpt>
      <trkpt lat="45.50783" lon="6.70481">
        <ele>2029</ele>
        <time>2011-03-13T13:49:51.087Z</time>
      </trkpt>
      <trkpt lat="45.5083" lon="6.70451">
        <ele>2003</ele>
        <time>2011-03-13T13:49:58.083Z</time>
      </trkpt>
      <trkpt lat="45.5087" lon="6.70412">
        <ele>2003</ele>
        <time>2011-03-13T13:50:06.1Z</time>
      </trkpt>
      <trkpt lat="45.50908" lon="6.70366">
        <ele>1990</ele>
        <time>2011-03-13T13:50:14.088Z</time>
      </trkpt>
      <trkpt lat="45.5095" lon="6.70317">
        <ele>1990</ele>
        <time>2011-03-13T13:50:20.091Z</time>
      </trkpt>
      <trkpt lat="45.50988" lon="6.70268">
        <ele>1977</ele>
        <time>2011-03-13T13:50:26Z</time>
      </trkpt>
      <trkpt lat="45.51019" lon="6.7022">
        <ele>1977</ele>
        <time>2011-03-13T13:50:32.084Z</time>
      </trkpt>
      <trkpt lat="45.51053" lon="6.70177">
        <ele>1969</ele>
        <time>2011-03-13T13:50:38Z</time>
      </trkpt>
      <trkpt lat="45.511" lon="6.70123">
        <ele>1957</ele>
        <time>2011-03-13T13:50:46.087Z</time>
      </trkpt>
      <trkpt lat="45.51132" lon="6.70071">
        <ele>1960</ele>
        <time>2011-03-13T13:50:52.096Z</time>
      </trkpt>
      <trkpt lat="45.51157" lon="6.70013">
        <ele>1944</ele>
        <time>2011-03-13T13:50:59.078Z</time>
      </trkpt>
      <trkpt lat="45.51191" lon="6.69964">
        <ele>1944</ele>
        <time>2011-03-13T13:51:12.087Z</time>
      </trkpt>
      <trkpt lat="45.51216" lon="6.69921">
        <ele>1938</ele>
        <time>2011-03-13T13:51:28Z</time>
      </trkpt>
      <trkpt lat="45.51226" lon="6.69857">
        <ele>1932</ele>
        <time>2011-03-13T13:51:36.091Z</time>
      </trkpt>
      <trkpt lat="45.51233" lon="6.69862">
        <ele>1932</ele>
        <time>2011-03-13T13:51:52Z</time>
      </trkpt>
      <trkpt lat="45.51233" lon="6.69867">
        <ele>1932</ele>
        <time>2011-03-13T13:52:07.922Z</time>
      </trkpt>
      <trkpt lat="45.51235" lon="6.69868">
        <ele>1932</ele>
        <time>2011-03-13T13:52:23.913Z</time>
      </trkpt>
      <trkpt lat="45.51235" lon="6.6987">
        <ele>1932</ele>
        <time>2011-03-13T13:52:39.113Z</time>
      </trkpt>
      <trkpt lat="45.51237" lon="6.69873">
        <ele>1932</ele>
        <time>2011-03-13T13:52:55Z</time>
      </trkpt>
      <trkpt lat="45.51236" lon="6.69874">
        <ele>1932</ele>
        <time>2011-03-13T13:53:10.912Z</time>
      </trkpt>
      <trkpt lat="45.51237" lon="6.69874">
        <ele>1932</ele>
        <time>2011-03-13T13:53:26.921Z</time>
      </trkpt>
      <trkpt lat="45.51237" lon="6.69876">
        <ele>1938</ele>
        <time>2011-03-13T13:53:42.091Z</time>
      </trkpt>
      <trkpt lat="45.51238" lon="6.6988">
        <ele>1938</ele>
        <time>2011-03-13T13:53:58Z</time>
      </trkpt>
      <trkpt lat="45.5124" lon="6.69882">
        <ele>1938</ele>
        <time>2011-03-13T13:54:13.097Z</time>
      </trkpt>
      <trkpt lat="45.51242" lon="6.69884">
        <ele>1938</ele>
        <time>2011-03-13T13:54:29.09Z</time>
      </trkpt>
      <trkpt lat="45.51243" lon="6.69885">
        <ele>1938</ele>
        <time>2011-03-13T13:54:45Z</time>
      </trkpt>
      <trkpt lat="45.51243" lon="6.69886">
        <ele>1938</ele>
        <time>2011-03-13T13:55:00.088Z</time>
      </trkpt>
      <trkpt lat="45.51243" lon="6.69887">
        <ele>1938</ele>
        <time>2011-03-13T13:55:16.091Z</time>
      </trkpt>
      <trkpt lat="45.51243" lon="6.69889">
        <ele>1938</ele>
        <time>2011-03-13T13:55:32Z</time>
      </trkpt>
      <trkpt lat="45.51243" lon="6.69894">
        <ele>1938</ele>
        <time>2011-03-13T13:55:47.92Z</time>
      </trkpt>
      <trkpt lat="45.51244" lon="6.69895">
        <ele>1938</ele>
        <time>2011-03-13T13:56:03.087Z</time>
      </trkpt>
      <trkpt lat="45.51244" lon="6.69895">
        <ele>1938</ele>
        <time>2011-03-13T13:56:20.082Z</time>
      </trkpt>
      <trkpt lat="45.51267" lon="6.69953">
        <ele>1938</ele>
        <time>2011-03-13T13:56:35Z</time>
      </trkpt>
      <trkpt lat="45.5129" lon="6.70016">
        <ele>1946</ele>
        <time>2011-03-13T13:56:43Z</time>
      </trkpt>
      <trkpt lat="45.51311" lon="6.70078">
        <ele>1964</ele>
        <time>2011-03-13T13:56:52.103Z</time>
      </trkpt>
      <trkpt lat="45.51336" lon="6.70133">
        <ele>1987</ele>
        <time>2011-03-13T13:57:01.09Z</time>
      </trkpt>
      <trkpt lat="45.51361" lon="6.70193">
        <ele>1987</ele>
        <time>2011-03-13T13:57:11.098Z</time>
      </trkpt>
      <trkpt lat="45.51386" lon="6.70248">
        <ele>2041</ele>
        <time>2011-03-13T13:57:21.074Z</time>
      </trkpt>
      <trkpt lat="45.51416" lon="6.70304">
        <ele>2065</ele>
        <time>2011-03-13T13:57:33.079Z</time>
      </trkpt>
      <trkpt lat="45.51459" lon="6.70338">
        <ele>2094</ele>
        <time>2011-03-13T13:57:44.079Z</time>
      </trkpt>
      <trkpt lat="45.51498" lon="6.70373">
        <ele>2094</ele>
        <time>2011-03-13T13:57:53Z</time>
      </trkpt>
      <trkpt lat="45.51534" lon="6.70416">
        <ele>2108</ele>
        <time>2011-03-13T13:58:03.08Z</time>
      </trkpt>
      <trkpt lat="45.51565" lon="6.7047">
        <ele>2147</ele>
        <time>2011-03-13T13:58:14.347Z</time>
      </trkpt>
      <trkpt lat="45.51598" lon="6.70516">
        <ele>2147</ele>
        <time>2011-03-13T13:58:23Z</time>
      </trkpt>
      <trkpt lat="45.51626" lon="6.70569">
        <ele>2179</ele>
        <time>2011-03-13T13:58:33Z</time>
      </trkpt>
      <trkpt lat="45.51657" lon="6.70619">
        <ele>2179</ele>
        <time>2011-03-13T13:58:42Z</time>
      </trkpt>
      <trkpt lat="45.51685" lon="6.70671">
        <ele>2169</ele>
        <time>2011-03-13T13:58:51Z</time>
      </trkpt>
      <trkpt lat="45.51721" lon="6.70722">
        <ele>2178</ele>
        <time>2011-03-13T13:59:00.08Z</time>
      </trkpt>
      <trkpt lat="45.51754" lon="6.70769">
        <ele>2178</ele>
        <time>2011-03-13T13:59:06Z</time>
      </trkpt>
      <trkpt lat="45.51792" lon="6.70807">
        <ele>2195</ele>
        <time>2011-03-13T13:59:15.078Z</time>
      </trkpt>
      <trkpt lat="45.51827" lon="6.70858">
        <ele>2195</ele>
        <time>2011-03-13T13:59:25Z</time>
      </trkpt>
      <trkpt lat="45.51863" lon="6.70905">
        <ele>2201</ele>
        <time>2011-03-13T13:59:35.076Z</time>
      </trkpt>
      <trkpt lat="45.51894" lon="6.70954">
        <ele>2210</ele>
        <time>2011-03-13T13:59:45.07Z</time>
      </trkpt>
      <trkpt lat="45.51929" lon="6.71001">
        <ele>2221</ele>
        <time>2011-03-13T13:59:56.096Z</time>
      </trkpt>
      <trkpt lat="45.51969" lon="6.71039">
        <ele>2231</ele>
        <time>2011-03-13T14:00:07.076Z</time>
      </trkpt>
      <trkpt lat="45.52006" lon="6.71083">
        <ele>2249</ele>
        <time>2011-03-13T14:00:18Z</time>
      </trkpt>
      <trkpt lat="45.52038" lon="6.71134">
        <ele>2270</ele>
        <time>2011-03-13T14:00:29Z</time>
      </trkpt>
      <trkpt lat="45.52065" lon="6.7119">
        <ele>2276</ele>
        <time>2011-03-13T14:00:38Z</time>
      </trkpt>
      <trkpt lat="45.52092" lon="6.71244">
        <ele>2294</ele>
        <time>2011-03-13T14:00:47Z</time>
      </trkpt>
      <trkpt lat="45.52115" lon="6.713">
        <ele>2306</ele>
        <time>2011-03-13T14:00:56Z</time>
      </trkpt>
      <trkpt lat="45.52141" lon="6.71355">
        <ele>2310</ele>
        <time>2011-03-13T14:01:05Z</time>
      </trkpt>
      <trkpt lat="45.52165" lon="6.7141">
        <ele>2320</ele>
        <time>2011-03-13T14:01:14.103Z</time>
      </trkpt>
      <trkpt lat="45.52191" lon="6.71465">
        <ele>2321</ele>
        <time>2011-03-13T14:01:23Z</time>
      </trkpt>
      <trkpt lat="45.52219" lon="6.71516">
        <ele>2331</ele>
        <time>2011-03-13T14:01:32Z</time>
      </trkpt>
      <trkpt lat="45.52249" lon="6.71569">
        <ele>2334</ele>
        <time>2011-03-13T14:01:42Z</time>
      </trkpt>
      <trkpt lat="45.52281" lon="6.71621">
        <ele>2334</ele>
        <time>2011-03-13T14:01:52Z</time>
      </trkpt>
      <trkpt lat="45.52274" lon="6.71666">
        <ele>2342</ele>
        <time>2011-03-13T14:02:08Z</time>
      </trkpt>
      <trkpt lat="45.52272" lon="6.71675">
        <ele>2342</ele>
        <time>2011-03-13T14:02:24Z</time>
      </trkpt>
      <trkpt lat="45.52273" lon="6.71679">
        <ele>2342</ele>
        <time>2011-03-13T14:02:40Z</time>
      </trkpt>
      <trkpt lat="45.5231" lon="6.7172">
        <ele>2330</ele>
        <time>2011-03-13T14:02:56Z</time>
      </trkpt>
      <trkpt lat="45.52339" lon="6.7178">
        <ele>2330</ele>
        <time>2011-03-13T14:03:04.111Z</time>
      </trkpt>
      <trkpt lat="45.5236" lon="6.71848">
        <ele>2313</ele>
        <time>2011-03-13T14:03:10.083Z</time>
      </trkpt>
      <trkpt lat="45.52385" lon="6.71908">
        <ele>2284</ele>
        <time>2011-03-13T14:03:18Z</time>
      </trkpt>
      <trkpt lat="45.52425" lon="6.71949">
        <ele>2284</ele>
        <time>2011-03-13T14:03:26.089Z</time>
      </trkpt>
      <trkpt lat="45.52464" lon="6.71982">
        <ele>2283</ele>
        <time>2011-03-13T14:03:35.075Z</time>
      </trkpt>
      <trkpt lat="45.52502" lon="6.72008">
        <ele>2283</ele>
        <time>2011-03-13T14:03:51Z</time>
      </trkpt>
      <trkpt lat="45.52501" lon="6.72006">
        <ele>2283</ele>
        <time>2011-03-13T14:04:08.178Z</time>
      </trkpt>
      <trkpt lat="45.52502" lon="6.72006">
        <ele>2283</ele>
        <time>2011-03-13T14:04:24Z</time>
      </trkpt>
      <trkpt lat="45.52502" lon="6.72004">
        <ele>2283</ele>
        <time>2011-03-13T14:04:40Z</time>
      </trkpt>
      <trkpt lat="45.52511" lon="6.72013">
        <ele>2283</ele>
        <time>2011-03-13T14:04:56Z</time>
      </trkpt>
      <trkpt lat="45.52514" lon="6.7208">
        <ele>2259</ele>
        <time>2011-03-13T14:05:11Z</time>
      </trkpt>
      <trkpt lat="45.52529" lon="6.72146">
        <ele>2233</ele>
        <time>2011-03-13T14:05:17Z</time>
      </trkpt>
      <trkpt lat="45.52543" lon="6.72209">
        <ele>2239</ele>
        <time>2011-03-13T14:05:23Z</time>
      </trkpt>
      <trkpt lat="45.52557" lon="6.72274">
        <ele>2239</ele>
        <time>2011-03-13T14:05:29Z</time>
      </trkpt>
      <trkpt lat="45.52564" lon="6.72276">
        <ele>2239</ele>
        <time>2011-03-13T14:05:45Z</time>
      </trkpt>
      <trkpt lat="45.52554" lon="6.72341">
        <ele>2225</ele>
        <time>2011-03-13T14:06:00.13Z</time>
      </trkpt>
      <trkpt lat="45.52506" lon="6.72342">
        <ele>2202</ele>
        <time>2011-03-13T14:06:09Z</time>
      </trkpt>
      <trkpt lat="45.52479" lon="6.72332">
        <ele>2202</ele>
        <time>2011-03-13T14:06:25Z</time>
      </trkpt>
      <trkpt lat="45.52474" lon="6.72315">
        <ele>2202</ele>
        <time>2011-03-13T14:06:40.137Z</time>
      </trkpt>
      <trkpt lat="45.52473" lon="6.72309">
        <ele>2202</ele>
        <time>2011-03-13T14:06:56.099Z</time>
      </trkpt>
      <trkpt lat="45.52466" lon="6.72276">
        <ele>2211</ele>
        <time>2011-03-13T14:07:12.074Z</time>
      </trkpt>
      <trkpt lat="45.52455" lon="6.72236">
        <ele>2190</ele>
        <time>2011-03-13T14:07:28.078Z</time>
      </trkpt>
      <trkpt lat="45.52445" lon="6.72199">
        <ele>2204</ele>
        <time>2011-03-13T14:07:44Z</time>
      </trkpt>
      <trkpt lat="45.52435" lon="6.72161">
        <ele>2204</ele>
        <time>2011-03-13T14:08:00.707Z</time>
      </trkpt>
      <trkpt lat="45.52425" lon="6.72124">
        <ele>2234</ele>
        <time>2011-03-13T14:08:16Z</time>
      </trkpt>
      <trkpt lat="45.52415" lon="6.7209">
        <ele>2234</ele>
        <time>2011-03-13T14:08:31.077Z</time>
      </trkpt>
      <trkpt lat="45.5241" lon="6.72056">
        <ele>2234</ele>
        <time>2011-03-13T14:08:47Z</time>
      </trkpt>
      <trkpt lat="45.524" lon="6.72026">
        <ele>2265</ele>
        <time>2011-03-13T14:09:02.121Z</time>
      </trkpt>
      <trkpt lat="45.52392" lon="6.7199">
        <ele>2265</ele>
        <time>2011-03-13T14:09:18.096Z</time>
      </trkpt>
      <trkpt lat="45.52382" lon="6.71955">
        <ele>2284</ele>
        <time>2011-03-13T14:09:33.881Z</time>
      </trkpt>
      <trkpt lat="45.52377" lon="6.71935">
        <ele>2284</ele>
        <time>2011-03-13T14:09:49.078Z</time>
      </trkpt>
      <trkpt lat="45.52372" lon="6.71915">
        <ele>2293</ele>
        <time>2011-03-13T14:10:05.074Z</time>
      </trkpt>
      <trkpt lat="45.52365" lon="6.71882">
        <ele>2293</ele>
        <time>2011-03-13T14:10:20.081Z</time>
      </trkpt>
      <trkpt lat="45.52357" lon="6.71847">
        <ele>2313</ele>
        <time>2011-03-13T14:10:35.904Z</time>
      </trkpt>
      <trkpt lat="45.52349" lon="6.71811">
        <ele>2313</ele>
        <time>2011-03-13T14:10:51.092Z</time>
      </trkpt>
      <trkpt lat="45.52339" lon="6.71773">
        <ele>2330</ele>
        <time>2011-03-13T14:11:07Z</time>
      </trkpt>
      <trkpt lat="45.52331" lon="6.7174">
        <ele>2330</ele>
        <time>2011-03-13T14:11:22.073Z</time>
      </trkpt>
      <trkpt lat="45.52323" lon="6.71703">
        <ele>2334</ele>
        <time>2011-03-13T14:11:37.1Z</time>
      </trkpt>
      <trkpt lat="45.52315" lon="6.71663">
        <ele>2334</ele>
        <time>2011-03-13T14:11:53Z</time>
      </trkpt>
      <trkpt lat="45.52296" lon="6.71604">
        <ele>2337</ele>
        <time>2011-03-13T14:12:06Z</time>
      </trkpt>
      <trkpt lat="45.523" lon="6.71616">
        <ele>2337</ele>
        <time>2011-03-13T14:12:21.09Z</time>
      </trkpt>
      <trkpt lat="45.523" lon="6.71617">
        <ele>2337</ele>
        <time>2011-03-13T14:12:36.113Z</time>
      </trkpt>
      <trkpt lat="45.52299" lon="6.71615">
        <ele>2337</ele>
        <time>2011-03-13T14:12:52Z</time>
      </trkpt>
      <trkpt lat="45.52299" lon="6.71616">
        <ele>2337</ele>
        <time>2011-03-13T14:13:08Z</time>
      </trkpt>
      <trkpt lat="45.52298" lon="6.71616">
        <ele>2337</ele>
        <time>2011-03-13T14:13:24Z</time>
      </trkpt>
      <trkpt lat="45.523" lon="6.71618">
        <ele>2337</ele>
        <time>2011-03-13T14:13:40Z</time>
      </trkpt>
      <trkpt lat="45.523" lon="6.71617">
        <ele>2337</ele>
        <time>2011-03-13T14:13:56Z</time>
      </trkpt>
      <trkpt lat="45.523" lon="6.71617">
        <ele>2337</ele>
        <time>2011-03-13T14:14:12Z</time>
      </trkpt>
      <trkpt lat="45.52257" lon="6.71577">
        <ele>2334</ele>
        <time>2011-03-13T14:14:26Z</time>
      </trkpt>
      <trkpt lat="45.52219" lon="6.71525">
        <ele>2331</ele>
        <time>2011-03-13T14:14:31Z</time>
      </trkpt>
      <trkpt lat="45.52187" lon="6.71476">
        <ele>2321</ele>
        <time>2011-03-13T14:14:38Z</time>
      </trkpt>
      <trkpt lat="45.52153" lon="6.71423">
        <ele>2320</ele>
        <time>2011-03-13T14:14:47Z</time>
      </trkpt>
      <trkpt lat="45.52141" lon="6.71362">
        <ele>2310</ele>
        <time>2011-03-13T14:14:54Z</time>
      </trkpt>
      <trkpt lat="45.52135" lon="6.71296">
        <ele>2310</ele>
        <time>2011-03-13T14:15:00.085Z</time>
      </trkpt>
      <trkpt lat="45.52129" lon="6.71227">
        <ele>2298</ele>
        <time>2011-03-13T14:15:07Z</time>
      </trkpt>
      <trkpt lat="45.52113" lon="6.71165">
        <ele>2276</ele>
        <time>2011-03-13T14:15:17Z</time>
      </trkpt>
      <trkpt lat="45.52091" lon="6.71093">
        <ele>2257</ele>
        <time>2011-03-13T14:15:24Z</time>
      </trkpt>
      <trkpt lat="45.52068" lon="6.71029">
        <ele>2247</ele>
        <time>2011-03-13T14:15:29Z</time>
      </trkpt>
      <trkpt lat="45.52027" lon="6.70994">
        <ele>2231</ele>
        <time>2011-03-13T14:15:34Z</time>
      </trkpt>
      <trkpt lat="45.51986" lon="6.70959">
        <ele>2231</ele>
        <time>2011-03-13T14:15:39Z</time>
      </trkpt>
      <trkpt lat="45.51943" lon="6.70924">
        <ele>2210</ele>
        <time>2011-03-13T14:15:44.067Z</time>
      </trkpt>
      <trkpt lat="45.51898" lon="6.70885">
        <ele>2210</ele>
        <time>2011-03-13T14:15:49Z</time>
      </trkpt>
      <trkpt lat="45.51855" lon="6.70852">
        <ele>2195</ele>
        <time>2011-03-13T14:15:53.092Z</time>
      </trkpt>
      <trkpt lat="45.51813" lon="6.70825">
        <ele>2195</ele>
        <time>2011-03-13T14:15:57.081Z</time>
      </trkpt>
      <trkpt lat="45.51767" lon="6.70818">
        <ele>2187</ele>
        <time>2011-03-13T14:16:04.202Z</time>
      </trkpt>
      <trkpt lat="45.51715" lon="6.70814">
        <ele>2187</ele>
        <time>2011-03-13T14:16:16.09Z</time>
      </trkpt>
      <trkpt lat="45.51665" lon="6.708">
        <ele>2180</ele>
        <time>2011-03-13T14:16:23Z</time>
      </trkpt>
      <trkpt lat="45.5162" lon="6.70794">
        <ele>2173</ele>
        <time>2011-03-13T14:16:31.09Z</time>
      </trkpt>
      <trkpt lat="45.51579" lon="6.70799">
        <ele>2173</ele>
        <time>2011-03-13T14:16:47.097Z</time>
      </trkpt>
      <trkpt lat="45.5153" lon="6.70807">
        <ele>2153</ele>
        <time>2011-03-13T14:16:57Z</time>
      </trkpt>
      <trkpt lat="45.51483" lon="6.70801">
        <ele>2153</ele>
        <time>2011-03-13T14:17:02.525Z</time>
      </trkpt>
      <trkpt lat="45.51436" lon="6.7078">
        <ele>2133</ele>
        <time>2011-03-13T14:17:07Z</time>
      </trkpt>
      <trkpt lat="45.51393" lon="6.70766">
        <ele>2133</ele>
        <time>2011-03-13T14:17:23Z</time>
      </trkpt>
      <trkpt lat="45.51392" lon="6.70772">
        <ele>2133</ele>
        <time>2011-03-13T14:17:38.149Z</time>
      </trkpt>
      <trkpt lat="45.51393" lon="6.70774">
        <ele>2133</ele>
        <time>2011-03-13T14:17:54.127Z</time>
      </trkpt>
      <trkpt lat="45.51352" lon="6.70773">
        <ele>2129</ele>
        <time>2011-03-13T14:18:10.084Z</time>
      </trkpt>
      <trkpt lat="45.51307" lon="6.7076">
        <ele>2129</ele>
        <time>2011-03-13T14:18:24.07Z</time>
      </trkpt>
      <trkpt lat="45.51282" lon="6.70742">
        <ele>2121</ele>
        <time>2011-03-13T14:18:39.1Z</time>
      </trkpt>
      <trkpt lat="45.5124" lon="6.70704">
        <ele>2108</ele>
        <time>2011-03-13T14:18:50.079Z</time>
      </trkpt>
      <trkpt lat="45.51194" lon="6.70688">
        <ele>2091</ele>
        <time>2011-03-13T14:18:57.902Z</time>
      </trkpt>
      <trkpt lat="45.51146" lon="6.70674">
        <ele>2091</ele>
        <time>2011-03-13T14:19:05Z</time>
      </trkpt>
      <trkpt lat="45.51098" lon="6.70669">
        <ele>2082</ele>
        <time>2011-03-13T14:19:13Z</time>
      </trkpt>
      <trkpt lat="45.51069" lon="6.70687">
        <ele>2082</ele>
        <time>2011-03-13T14:19:28.079Z</time>
      </trkpt>
      <trkpt lat="45.5107" lon="6.70689">
        <ele>2082</ele>
        <time>2011-03-13T14:19:44.084Z</time>
      </trkpt>
      <trkpt lat="45.51071" lon="6.70689">
        <ele>2082</ele>
        <time>2011-03-13T14:20:01.066Z</time>
      </trkpt>
      <trkpt lat="45.51067" lon="6.70634">
        <ele>2082</ele>
        <time>2011-03-13T14:20:17Z</time>
      </trkpt>
      <trkpt lat="45.5105" lon="6.70572">
        <ele>2059</ele>
        <time>2011-03-13T14:20:31Z</time>
      </trkpt>
      <trkpt lat="45.51058" lon="6.70508">
        <ele>2041</ele>
        <time>2011-03-13T14:20:42Z</time>
      </trkpt>
      <trkpt lat="45.51081" lon="6.70444">
        <ele>2024</ele>
        <time>2011-03-13T14:20:53Z</time>
      </trkpt>
      <trkpt lat="45.51103" lon="6.70387">
        <ele>2024</ele>
        <time>2011-03-13T14:21:02Z</time>
      </trkpt>
      <trkpt lat="45.5114" lon="6.70349">
        <ele>2009</ele>
        <time>2011-03-13T14:21:13Z</time>
      </trkpt>
      <trkpt lat="45.51155" lon="6.70286">
        <ele>1991</ele>
        <time>2011-03-13T14:21:29Z</time>
      </trkpt>
      <trkpt lat="45.51175" lon="6.70221">
        <ele>1991</ele>
        <time>2011-03-13T14:21:40Z</time>
      </trkpt>
      <trkpt lat="45.51199" lon="6.70157">
        <ele>1977</ele>
        <time>2011-03-13T14:21:49Z</time>
      </trkpt>
      <trkpt lat="45.51215" lon="6.70084">
        <ele>1957</ele>
        <time>2011-03-13T14:22:01.066Z</time>
      </trkpt>
      <trkpt lat="45.51204" lon="6.70012">
        <ele>1944</ele>
        <time>2011-03-13T14:22:08.063Z</time>
      </trkpt>
      <trkpt lat="45.51203" lon="6.69943">
        <ele>1939</ele>
        <time>2011-03-13T14:22:15Z</time>
      </trkpt>
      <trkpt lat="45.51213" lon="6.69873">
        <ele>1932</ele>
        <time>2011-03-13T14:22:23Z</time>
      </trkpt>
      <trkpt lat="45.51219" lon="6.69808">
        <ele>1932</ele>
        <time>2011-03-13T14:22:35Z</time>
      </trkpt>
      <trkpt lat="45.51229" lon="6.69751">
        <ele>1930</ele>
        <time>2011-03-13T14:22:51Z</time>
      </trkpt>
      <trkpt lat="45.5123" lon="6.69751">
        <ele>1930</ele>
        <time>2011-03-13T14:23:07Z</time>
      </trkpt>
      <trkpt lat="45.51229" lon="6.6975">
        <ele>1930</ele>
        <time>2011-03-13T14:23:23Z</time>
      </trkpt>
      <trkpt lat="45.51233" lon="6.6974">
        <ele>1930</ele>
        <time>2011-03-13T14:23:39Z</time>
      </trkpt>
      <trkpt lat="45.51235" lon="6.69737">
        <ele>1930</ele>
        <time>2011-03-13T14:23:55Z</time>
      </trkpt>
      <trkpt lat="45.51236" lon="6.69737">
        <ele>1930</ele>
        <time>2011-03-13T14:24:11Z</time>
      </trkpt>
      <trkpt lat="45.51237" lon="6.69736">
        <ele>1930</ele>
        <time>2011-03-13T14:24:27Z</time>
      </trkpt>
      <trkpt lat="45.51238" lon="6.69736">
        <ele>1930</ele>
        <time>2011-03-13T14:24:43Z</time>
      </trkpt>
      <trkpt lat="45.51238" lon="6.69737">
        <ele>1930</ele>
        <time>2011-03-13T14:24:59Z</time>
      </trkpt>
      <trkpt lat="45.51238" lon="6.69736">
        <ele>1930</ele>
        <time>2011-03-13T14:25:14.277Z</time>
      </trkpt>
      <trkpt lat="45.51238" lon="6.69735">
        <ele>1930</ele>
        <time>2011-03-13T14:25:30.085Z</time>
      </trkpt>
      <trkpt lat="45.51239" lon="6.69735">
        <ele>1930</ele>
        <time>2011-03-13T14:25:46.085Z</time>
      </trkpt>
      <trkpt lat="45.5124" lon="6.69735">
        <ele>1930</ele>
        <time>2011-03-13T14:26:02Z</time>
      </trkpt>
      <trkpt lat="45.51242" lon="6.69732">
        <ele>1930</ele>
        <time>2011-03-13T14:26:17.06Z</time>
      </trkpt>
      <trkpt lat="45.51242" lon="6.69732">
        <ele>1930</ele>
        <time>2011-03-13T14:26:33Z</time>
      </trkpt>
      <trkpt lat="45.51244" lon="6.69732">
        <ele>1930</ele>
        <time>2011-03-13T14:27:27Z</time>
      </trkpt>
      <trkpt lat="45.51217" lon="6.69784">
        <ele>1930</ele>
        <time>2011-03-13T14:27:41Z</time>
      </trkpt>
      <trkpt lat="45.51185" lon="6.69838">
        <ele>1937</ele>
        <time>2011-03-13T14:27:48.069Z</time>
      </trkpt>
      <trkpt lat="45.51157" lon="6.6989">
        <ele>1939</ele>
        <time>2011-03-13T14:27:57.89Z</time>
      </trkpt>
      <trkpt lat="45.51128" lon="6.69941">
        <ele>1939</ele>
        <time>2011-03-13T14:28:07.07Z</time>
      </trkpt>
      <trkpt lat="45.51101" lon="6.69997">
        <ele>1953</ele>
        <time>2011-03-13T14:28:19.06Z</time>
      </trkpt>
      <trkpt lat="45.51075" lon="6.70051">
        <ele>1957</ele>
        <time>2011-03-13T14:28:32Z</time>
      </trkpt>
      <trkpt lat="45.5105" lon="6.70108">
        <ele>1957</ele>
        <time>2011-03-13T14:28:45.088Z</time>
      </trkpt>
      <trkpt lat="45.51021" lon="6.70164">
        <ele>1971</ele>
        <time>2011-03-13T14:28:57.06Z</time>
      </trkpt>
      <trkpt lat="45.50993" lon="6.70218">
        <ele>1977</ele>
        <time>2011-03-13T14:29:09.057Z</time>
      </trkpt>
      <trkpt lat="45.50964" lon="6.70273">
        <ele>1977</ele>
        <time>2011-03-13T14:29:22.065Z</time>
      </trkpt>
      <trkpt lat="45.50932" lon="6.70325">
        <ele>1990</ele>
        <time>2011-03-13T14:29:34.877Z</time>
      </trkpt>
      <trkpt lat="45.50905" lon="6.70377">
        <ele>2001</ele>
        <time>2011-03-13T14:29:46.062Z</time>
      </trkpt>
      <trkpt lat="45.50883" lon="6.70434">
        <ele>2001</ele>
        <time>2011-03-13T14:30:01.151Z</time>
      </trkpt>
      <trkpt lat="45.50854" lon="6.7049">
        <ele>2024</ele>
        <time>2011-03-13T14:30:15Z</time>
      </trkpt>
      <trkpt lat="45.50827" lon="6.70546">
        <ele>2049</ele>
        <time>2011-03-13T14:30:29.058Z</time>
      </trkpt>
      <trkpt lat="45.50801" lon="6.70598">
        <ele>2049</ele>
        <time>2011-03-13T14:30:42.088Z</time>
      </trkpt>
      <trkpt lat="45.50776" lon="6.70654">
        <ele>2060</ele>
        <time>2011-03-13T14:30:56.069Z</time>
      </trkpt>
      <trkpt lat="45.50748" lon="6.70711">
        <ele>2074</ele>
        <time>2011-03-13T14:31:11Z</time>
      </trkpt>
      <trkpt lat="45.50744" lon="6.70763">
        <ele>2074</ele>
        <time>2011-03-13T14:33:05Z</time>
      </trkpt>
      <trkpt lat="45.50723" lon="6.708">
        <ele>2084</ele>
        <time>2011-03-13T14:33:21Z</time>
      </trkpt>
      <trkpt lat="45.50724" lon="6.70804">
        <ele>2084</ele>
        <time>2011-03-13T14:33:36.069Z</time>
      </trkpt>
      <trkpt lat="45.50718" lon="6.7081">
        <ele>2084</ele>
        <time>2011-03-13T14:33:52Z</time>
      </trkpt>
      <trkpt lat="45.50711" lon="6.70821">
        <ele>2084</ele>
        <time>2011-03-13T14:34:07.069Z</time>
      </trkpt>
      <trkpt lat="45.50708" lon="6.70828">
        <ele>2076</ele>
        <time>2011-03-13T14:34:22.089Z</time>
      </trkpt>
      <trkpt lat="45.50705" lon="6.70838">
        <ele>2076</ele>
        <time>2011-03-13T14:34:38.063Z</time>
      </trkpt>
      <trkpt lat="45.50702" lon="6.70842">
        <ele>2076</ele>
        <time>2011-03-13T14:34:54Z</time>
      </trkpt>
      <trkpt lat="45.50697" lon="6.70853">
        <ele>2076</ele>
        <time>2011-03-13T14:35:10Z</time>
      </trkpt>
      <trkpt lat="45.50692" lon="6.7086">
        <ele>2076</ele>
        <time>2011-03-13T14:35:25.059Z</time>
      </trkpt>
      <trkpt lat="45.50687" lon="6.70867">
        <ele>2076</ele>
        <time>2011-03-13T14:35:40.08Z</time>
      </trkpt>
      <trkpt lat="45.50685" lon="6.70869">
        <ele>2076</ele>
        <time>2011-03-13T14:35:55.109Z</time>
      </trkpt>
      <trkpt lat="45.50685" lon="6.70869">
        <ele>2076</ele>
        <time>2011-03-13T14:36:11Z</time>
      </trkpt>
      <trkpt lat="45.50685" lon="6.7087">
        <ele>2076</ele>
        <time>2011-03-13T14:36:26.07Z</time>
      </trkpt>
      <trkpt lat="45.50685" lon="6.70869">
        <ele>2076</ele>
        <time>2011-03-13T14:36:42Z</time>
      </trkpt>
      <trkpt lat="45.50684" lon="6.70871">
        <ele>2076</ele>
        <time>2011-03-13T14:36:58Z</time>
      </trkpt>
      <trkpt lat="45.50676" lon="6.70875">
        <ele>2076</ele>
        <time>2011-03-13T14:37:13.081Z</time>
      </trkpt>
      <trkpt lat="45.50639" lon="6.70843">
        <ele>2076</ele>
        <time>2011-03-13T14:37:29.087Z</time>
      </trkpt>
      <trkpt lat="45.50614" lon="6.70784">
        <ele>2067</ele>
        <time>2011-03-13T14:37:43.634Z</time>
      </trkpt>
      <trkpt lat="45.50605" lon="6.70715">
        <ele>2067</ele>
        <time>2011-03-13T14:37:52Z</time>
      </trkpt>
      <trkpt lat="45.50596" lon="6.70645">
        <ele>2057</ele>
        <time>2011-03-13T14:38:01Z</time>
      </trkpt>
      <trkpt lat="45.50611" lon="6.7058">
        <ele>2044</ele>
        <time>2011-03-13T14:38:10Z</time>
      </trkpt>
      <trkpt lat="45.5065" lon="6.70536">
        <ele>2033</ele>
        <time>2011-03-13T14:38:20.057Z</time>
      </trkpt>
      <trkpt lat="45.50689" lon="6.7051">
        <ele>2033</ele>
        <time>2011-03-13T14:38:35.103Z</time>
      </trkpt>
      <trkpt lat="45.50716" lon="6.70489">
        <ele>2029</ele>
        <time>2011-03-13T14:38:51Z</time>
      </trkpt>
      <trkpt lat="45.50753" lon="6.70495">
        <ele>2029</ele>
        <time>2011-03-13T14:39:07Z</time>
      </trkpt>
      <trkpt lat="45.50797" lon="6.70471">
        <ele>2024</ele>
        <time>2011-03-13T14:39:19Z</time>
      </trkpt>
      <trkpt lat="45.50835" lon="6.70438">
        <ele>2003</ele>
        <time>2011-03-13T14:39:30Z</time>
      </trkpt>
      <trkpt lat="45.50868" lon="6.70384">
        <ele>2003</ele>
        <time>2011-03-13T14:39:39.103Z</time>
      </trkpt>
      <trkpt lat="45.50907" lon="6.70339">
        <ele>1990</ele>
        <time>2011-03-13T14:39:46.068Z</time>
      </trkpt>
      <trkpt lat="45.50943" lon="6.70299">
        <ele>1990</ele>
        <time>2011-03-13T14:39:52.069Z</time>
      </trkpt>
      <trkpt lat="45.50977" lon="6.70252">
        <ele>1977</ele>
        <time>2011-03-13T14:39:59.066Z</time>
      </trkpt>
      <trkpt lat="45.51011" lon="6.70204">
        <ele>1971</ele>
        <time>2011-03-13T14:40:07.628Z</time>
      </trkpt>
      <trkpt lat="45.51048" lon="6.70158">
        <ele>1969</ele>
        <time>2011-03-13T14:40:16Z</time>
      </trkpt>
      <trkpt lat="45.51083" lon="6.70106">
        <ele>1957</ele>
        <time>2011-03-13T14:40:24Z</time>
      </trkpt>
      <trkpt lat="45.51115" lon="6.70051">
        <ele>1957</ele>
        <time>2011-03-13T14:40:33Z</time>
      </trkpt>
      <trkpt lat="45.51149" lon="6.70004">
        <ele>1944</ele>
        <time>2011-03-13T14:40:42.082Z</time>
      </trkpt>
      <trkpt lat="45.51162" lon="6.69975">
        <ele>1944</ele>
        <time>2011-03-13T14:40:58Z</time>
      </trkpt>
      <trkpt lat="45.51163" lon="6.69975">
        <ele>1944</ele>
        <time>2011-03-13T14:41:14.078Z</time>
      </trkpt>
      <trkpt lat="45.51164" lon="6.69975">
        <ele>1944</ele>
        <time>2011-03-13T14:41:29.082Z</time>
      </trkpt>
      <trkpt lat="45.51162" lon="6.69951">
        <ele>1939</ele>
        <time>2011-03-13T14:41:45.619Z</time>
      </trkpt>
      <trkpt lat="45.51184" lon="6.69893">
        <ele>1939</ele>
        <time>2011-03-13T14:41:55Z</time>
      </trkpt>
      <trkpt lat="45.51184" lon="6.6984">
        <ele>1937</ele>
        <time>2011-03-13T14:42:11Z</time>
      </trkpt>
      <trkpt lat="45.51178" lon="6.69834">
        <ele>1937</ele>
        <time>2011-03-13T14:42:27.054Z</time>
      </trkpt>
      <trkpt lat="45.51176" lon="6.69832">
        <ele>1937</ele>
        <time>2011-03-13T14:42:42.073Z</time>
      </trkpt>
      <trkpt lat="45.51174" lon="6.69833">
        <ele>1937</ele>
        <time>2011-03-13T14:42:58Z</time>
      </trkpt>
      <trkpt lat="45.51173" lon="6.69833">
        <ele>1937</ele>
        <time>2011-03-13T14:43:14Z</time>
      </trkpt>
      <trkpt lat="45.51169" lon="6.69835">
        <ele>1937</ele>
        <time>2011-03-13T14:43:30Z</time>
      </trkpt>
      <trkpt lat="45.51167" lon="6.69837">
        <ele>1937</ele>
        <time>2011-03-13T14:43:45.074Z</time>
      </trkpt>
      <trkpt lat="45.51164" lon="6.69838">
        <ele>1937</ele>
        <time>2011-03-13T14:44:01.613Z</time>
      </trkpt>
      <trkpt lat="45.51164" lon="6.69838">
        <ele>1937</ele>
        <time>2011-03-13T14:44:17Z</time>
      </trkpt>
      <trkpt lat="45.5112" lon="6.69866">
        <ele>1950</ele>
        <time>2011-03-13T14:44:31Z</time>
      </trkpt>
      <trkpt lat="45.5108" lon="6.69897">
        <ele>1950</ele>
        <time>2011-03-13T14:44:40.076Z</time>
      </trkpt>
      <trkpt lat="45.5104" lon="6.69928">
        <ele>1970</ele>
        <time>2011-03-13T14:44:49.056Z</time>
      </trkpt>
      <trkpt lat="45.50995" lon="6.69953">
        <ele>1970</ele>
        <time>2011-03-13T14:45:02Z</time>
      </trkpt>
      <trkpt lat="45.50953" lon="6.69978">
        <ele>1986</ele>
        <time>2011-03-13T14:45:13Z</time>
      </trkpt>
      <trkpt lat="45.50908" lon="6.70003">
        <ele>1986</ele>
        <time>2011-03-13T14:45:24Z</time>
      </trkpt>
      <trkpt lat="45.50864" lon="6.7003">
        <ele>2020</ele>
        <time>2011-03-13T14:45:34Z</time>
      </trkpt>
      <trkpt lat="45.5082" lon="6.70057">
        <ele>2012</ele>
        <time>2011-03-13T14:45:46Z</time>
      </trkpt>
      <trkpt lat="45.50778" lon="6.70083">
        <ele>2034</ele>
        <time>2011-03-13T14:45:57.063Z</time>
      </trkpt>
      <trkpt lat="45.50736" lon="6.70109">
        <ele>2034</ele>
        <time>2011-03-13T14:46:08.516Z</time>
      </trkpt>
      <trkpt lat="45.50692" lon="6.70132">
        <ele>2042</ele>
        <time>2011-03-13T14:46:18Z</time>
      </trkpt>
      <trkpt lat="45.50649" lon="6.70155">
        <ele>2042</ele>
        <time>2011-03-13T14:46:28Z</time>
      </trkpt>
      <trkpt lat="45.50607" lon="6.70178">
        <ele>2065</ele>
        <time>2011-03-13T14:46:38Z</time>
      </trkpt>
      <trkpt lat="45.50564" lon="6.702">
        <ele>2065</ele>
        <time>2011-03-13T14:46:48.095Z</time>
      </trkpt>
      <trkpt lat="45.50521" lon="6.70226">
        <ele>2074</ele>
        <time>2011-03-13T14:46:58Z</time>
      </trkpt>
      <trkpt lat="45.5048" lon="6.70252">
        <ele>2074</ele>
        <time>2011-03-13T14:47:07.085Z</time>
      </trkpt>
      <trkpt lat="45.50436" lon="6.7028">
        <ele>2103</ele>
        <time>2011-03-13T14:47:16.071Z</time>
      </trkpt>
      <trkpt lat="45.50393" lon="6.70306">
        <ele>2091</ele>
        <time>2011-03-13T14:47:29.055Z</time>
      </trkpt>
      <trkpt lat="45.50348" lon="6.70331">
        <ele>2115</ele>
        <time>2011-03-13T14:47:41Z</time>
      </trkpt>
      <trkpt lat="45.50303" lon="6.70357">
        <ele>2115</ele>
        <time>2011-03-13T14:47:52.065Z</time>
      </trkpt>
      <trkpt lat="45.5026" lon="6.70383">
        <ele>2135</ele>
        <time>2011-03-13T14:48:03Z</time>
      </trkpt>
      <trkpt lat="45.50214" lon="6.70407">
        <ele>2135</ele>
        <time>2011-03-13T14:48:14.08Z</time>
      </trkpt>
      <trkpt lat="45.5017" lon="6.70433">
        <ele>2159</ele>
        <time>2011-03-13T14:48:25.055Z</time>
      </trkpt>
      <trkpt lat="45.50124" lon="6.70458">
        <ele>2169</ele>
        <time>2011-03-13T14:48:36Z</time>
      </trkpt>
      <trkpt lat="45.50082" lon="6.70483">
        <ele>2169</ele>
        <time>2011-03-13T14:48:46.067Z</time>
      </trkpt>
      <trkpt lat="45.50038" lon="6.70509">
        <ele>2193</ele>
        <time>2011-03-13T14:48:57.056Z</time>
      </trkpt>
      <trkpt lat="45.49996" lon="6.70533">
        <ele>2193</ele>
        <time>2011-03-13T14:49:07.853Z</time>
      </trkpt>
      <trkpt lat="45.49947" lon="6.70561">
        <ele>2216</ele>
        <time>2011-03-13T14:49:19.097Z</time>
      </trkpt>
      <trkpt lat="45.49902" lon="6.70587">
        <ele>2216</ele>
        <time>2011-03-13T14:49:30.086Z</time>
      </trkpt>
      <trkpt lat="45.49856" lon="6.70613">
        <ele>2230</ele>
        <time>2011-03-13T14:49:41.062Z</time>
      </trkpt>
      <trkpt lat="45.49811" lon="6.7064">
        <ele>2222</ele>
        <time>2011-03-13T14:49:52Z</time>
      </trkpt>
      <trkpt lat="45.49767" lon="6.70663">
        <ele>2232</ele>
        <time>2011-03-13T14:50:02.075Z</time>
      </trkpt>
      <trkpt lat="45.49724" lon="6.70686">
        <ele>2232</ele>
        <time>2011-03-13T14:50:12.053Z</time>
      </trkpt>
      <trkpt lat="45.49676" lon="6.70716">
        <ele>2243</ele>
        <time>2011-03-13T14:50:24Z</time>
      </trkpt>
      <trkpt lat="45.49633" lon="6.7074">
        <ele>2243</ele>
        <time>2011-03-13T14:50:34.061Z</time>
      </trkpt>
      <trkpt lat="45.4959" lon="6.70765">
        <ele>2251</ele>
        <time>2011-03-13T14:50:44.061Z</time>
      </trkpt>
      <trkpt lat="45.49548" lon="6.70788">
        <ele>2251</ele>
        <time>2011-03-13T14:50:54Z</time>
      </trkpt>
      <trkpt lat="45.49505" lon="6.70816">
        <ele>2260</ele>
        <time>2011-03-13T14:51:05Z</time>
      </trkpt>
      <trkpt lat="45.49462" lon="6.70842">
        <ele>2260</ele>
        <time>2011-03-13T14:51:16.079Z</time>
      </trkpt>
      <trkpt lat="45.49418" lon="6.70871">
        <ele>2285</ele>
        <time>2011-03-13T14:51:28.058Z</time>
      </trkpt>
      <trkpt lat="45.49377" lon="6.70899">
        <ele>2300</ele>
        <time>2011-03-13T14:51:39Z</time>
      </trkpt>
      <trkpt lat="45.49335" lon="6.70929">
        <ele>2331</ele>
        <time>2011-03-13T14:51:51Z</time>
      </trkpt>
      <trkpt lat="45.49293" lon="6.70957">
        <ele>2331</ele>
        <time>2011-03-13T14:52:03Z</time>
      </trkpt>
      <trkpt lat="45.49251" lon="6.70977">
        <ele>2356</ele>
        <time>2011-03-13T14:52:19Z</time>
      </trkpt>
      <trkpt lat="45.49227" lon="6.70977">
        <ele>2356</ele>
        <time>2011-03-13T14:52:35Z</time>
      </trkpt>
      <trkpt lat="45.49225" lon="6.70973">
        <ele>2356</ele>
        <time>2011-03-13T14:52:51Z</time>
      </trkpt>
      <trkpt lat="45.49215" lon="6.70951">
        <ele>2353</ele>
        <time>2011-03-13T14:53:06.054Z</time>
      </trkpt>
      <trkpt lat="45.49226" lon="6.70882">
        <ele>2353</ele>
        <time>2011-03-13T14:53:18Z</time>
      </trkpt>
      <trkpt lat="45.49211" lon="6.70812">
        <ele>2330</ele>
        <time>2011-03-13T14:53:27Z</time>
      </trkpt>
      <trkpt lat="45.49239" lon="6.70758">
        <ele>2317</ele>
        <time>2011-03-13T14:53:37Z</time>
      </trkpt>
      <trkpt lat="45.49286" lon="6.70749">
        <ele>2317</ele>
        <time>2011-03-13T14:53:44.062Z</time>
      </trkpt>
      <trkpt lat="45.4934" lon="6.7074">
        <ele>2301</ele>
        <time>2011-03-13T14:53:52Z</time>
      </trkpt>
      <trkpt lat="45.49385" lon="6.70718">
        <ele>2281</ele>
        <time>2011-03-13T14:53:59Z</time>
      </trkpt>
      <trkpt lat="45.49427" lon="6.70695">
        <ele>2288</ele>
        <time>2011-03-13T14:54:05Z</time>
      </trkpt>
      <trkpt lat="45.49471" lon="6.70659">
        <ele>2260</ele>
        <time>2011-03-13T14:54:12Z</time>
      </trkpt>
      <trkpt lat="45.4952" lon="6.70633">
        <ele>2260</ele>
        <time>2011-03-13T14:54:17Z</time>
      </trkpt>
      <trkpt lat="45.49569" lon="6.70608">
        <ele>2253</ele>
        <time>2011-03-13T14:54:23.069Z</time>
      </trkpt>
      <trkpt lat="45.49614" lon="6.70583">
        <ele>2253</ele>
        <time>2011-03-13T14:54:32.888Z</time>
      </trkpt>
      <trkpt lat="45.49654" lon="6.70562">
        <ele>2248</ele>
        <time>2011-03-13T14:54:48.803Z</time>
      </trkpt>
      <trkpt lat="45.49701" lon="6.70547">
        <ele>2248</ele>
        <time>2011-03-13T14:55:00Z</time>
      </trkpt>
      <trkpt lat="45.49749" lon="6.70549">
        <ele>2240</ele>
        <time>2011-03-13T14:55:12.081Z</time>
      </trkpt>
      <trkpt lat="45.4979" lon="6.70587">
        <ele>2240</ele>
        <time>2011-03-13T14:55:24.078Z</time>
      </trkpt>
      <trkpt lat="45.49835" lon="6.70611">
        <ele>2230</ele>
        <time>2011-03-13T14:55:32.071Z</time>
      </trkpt>
      <trkpt lat="45.49877" lon="6.70651">
        <ele>2215</ele>
        <time>2011-03-13T14:55:41.059Z</time>
      </trkpt>
      <trkpt lat="45.49914" lon="6.70692">
        <ele>2215</ele>
        <time>2011-03-13T14:55:48Z</time>
      </trkpt>
      <trkpt lat="45.49949" lon="6.70744">
        <ele>2203</ele>
        <time>2011-03-13T14:55:56Z</time>
      </trkpt>
      <trkpt lat="45.49992" lon="6.70782">
        <ele>2187</ele>
        <time>2011-03-13T14:56:03Z</time>
      </trkpt>
      <trkpt lat="45.50047" lon="6.70817">
        <ele>2166</ele>
        <time>2011-03-13T14:56:11Z</time>
      </trkpt>
      <trkpt lat="45.50099" lon="6.70846">
        <ele>2166</ele>
        <time>2011-03-13T14:56:19.082Z</time>
      </trkpt>
      <trkpt lat="45.5015" lon="6.7086">
        <ele>2150</ele>
        <time>2011-03-13T14:56:24.064Z</time>
      </trkpt>
      <trkpt lat="45.50198" lon="6.70852">
        <ele>2150</ele>
        <time>2011-03-13T14:56:40Z</time>
      </trkpt>
      <trkpt lat="45.50245" lon="6.70851">
        <ele>2128</ele>
        <time>2011-03-13T14:56:49Z</time>
      </trkpt>
      <trkpt lat="45.50295" lon="6.70835">
        <ele>2105</ele>
        <time>2011-03-13T14:56:56Z</time>
      </trkpt>
      <trkpt lat="45.50341" lon="6.70824">
        <ele>2105</ele>
        <time>2011-03-13T14:57:02Z</time>
      </trkpt>
      <trkpt lat="45.50394" lon="6.70836">
        <ele>2088</ele>
        <time>2011-03-13T14:57:07Z</time>
      </trkpt>
      <trkpt lat="45.50441" lon="6.70848">
        <ele>2088</ele>
        <time>2011-03-13T14:57:12Z</time>
      </trkpt>
      <trkpt lat="45.50487" lon="6.70867">
        <ele>2078</ele>
        <time>2011-03-13T14:57:16Z</time>
      </trkpt>
      <trkpt lat="45.50537" lon="6.7088">
        <ele>2081</ele>
        <time>2011-03-13T14:57:21Z</time>
      </trkpt>
      <trkpt lat="45.50581" lon="6.70864">
        <ele>2075</ele>
        <time>2011-03-13T14:57:31.067Z</time>
      </trkpt>
      <trkpt lat="45.50604" lon="6.70808">
        <ele>2075</ele>
        <time>2011-03-13T14:57:45.06Z</time>
      </trkpt>
      <trkpt lat="45.50589" lon="6.70738">
        <ele>2067</ele>
        <time>2011-03-13T14:57:52.078Z</time>
      </trkpt>
      <trkpt lat="45.50585" lon="6.70668">
        <ele>2057</ele>
        <time>2011-03-13T14:57:59.056Z</time>
      </trkpt>
      <trkpt lat="45.50595" lon="6.706">
        <ele>2044</ele>
        <time>2011-03-13T14:58:05.054Z</time>
      </trkpt>
      <trkpt lat="45.50615" lon="6.70542">
        <ele>2044</ele>
        <time>2011-03-13T14:58:11Z</time>
      </trkpt>
      <trkpt lat="45.50658" lon="6.70511">
        <ele>2033</ele>
        <time>2011-03-13T14:58:18Z</time>
      </trkpt>
      <trkpt lat="45.50704" lon="6.70491">
        <ele>2033</ele>
        <time>2011-03-13T14:58:26Z</time>
      </trkpt>
      <trkpt lat="45.50749" lon="6.70475">
        <ele>2029</ele>
        <time>2011-03-13T14:58:41Z</time>
      </trkpt>
      <trkpt lat="45.50798" lon="6.70462">
        <ele>2024</ele>
        <time>2011-03-13T14:58:53Z</time>
      </trkpt>
      <trkpt lat="45.50838" lon="6.7042">
        <ele>2003</ele>
        <time>2011-03-13T14:59:02Z</time>
      </trkpt>
      <trkpt lat="45.50863" lon="6.70365">
        <ele>2006</ele>
        <time>2011-03-13T14:59:09Z</time>
      </trkpt>
      <trkpt lat="45.50891" lon="6.70314">
        <ele>1990</ele>
        <time>2011-03-13T14:59:14Z</time>
      </trkpt>
      <trkpt lat="45.50929" lon="6.70268">
        <ele>1991</ele>
        <time>2011-03-13T14:59:19.054Z</time>
      </trkpt>
      <trkpt lat="45.50966" lon="6.70219">
        <ele>1977</ele>
        <time>2011-03-13T14:59:25.073Z</time>
      </trkpt>
      <trkpt lat="45.51004" lon="6.70181">
        <ele>1971</ele>
        <time>2011-03-13T14:59:31.073Z</time>
      </trkpt>
      <trkpt lat="45.51037" lon="6.70137">
        <ele>1971</ele>
        <time>2011-03-13T14:59:37.075Z</time>
      </trkpt>
      <trkpt lat="45.51069" lon="6.70081">
        <ele>1957</ele>
        <time>2011-03-13T14:59:44.053Z</time>
      </trkpt>
      <trkpt lat="45.51094" lon="6.70021">
        <ele>1953</ele>
        <time>2011-03-13T14:59:51Z</time>
      </trkpt>
      <trkpt lat="45.51119" lon="6.69962">
        <ele>1953</ele>
        <time>2011-03-13T14:59:58Z</time>
      </trkpt>
      <trkpt lat="45.51145" lon="6.69908">
        <ele>1939</ele>
        <time>2011-03-13T15:00:05Z</time>
      </trkpt>
      <trkpt lat="45.51181" lon="6.69862">
        <ele>1937</ele>
        <time>2011-03-13T15:00:13Z</time>
      </trkpt>
      <trkpt lat="45.51198" lon="6.69814">
        <ele>1937</ele>
        <time>2011-03-13T15:00:28.182Z</time>
      </trkpt>
      <trkpt lat="45.51199" lon="6.69806">
        <ele>1937</ele>
        <time>2011-03-13T15:00:44.065Z</time>
      </trkpt>
      <trkpt lat="45.51199" lon="6.69801">
        <ele>1937</ele>
        <time>2011-03-13T15:00:59.089Z</time>
      </trkpt>
      <trkpt lat="45.51199" lon="6.69802">
        <ele>1937</ele>
        <time>2011-03-13T15:01:15Z</time>
      </trkpt>
      <trkpt lat="45.51198" lon="6.69801">
        <ele>1937</ele>
        <time>2011-03-13T15:01:30.063Z</time>
      </trkpt>
      <trkpt lat="45.51198" lon="6.69801">
        <ele>1937</ele>
        <time>2011-03-13T15:01:46Z</time>
      </trkpt>
      <trkpt lat="45.51198" lon="6.69805">
        <ele>1937</ele>
        <time>2011-03-13T15:02:01.061Z</time>
      </trkpt>
      <trkpt lat="45.51197" lon="6.69803">
        <ele>1937</ele>
        <time>2011-03-13T15:02:17.08Z</time>
      </trkpt>
      <trkpt lat="45.51195" lon="6.69801">
        <ele>1937</ele>
        <time>2011-03-13T15:02:33.055Z</time>
      </trkpt>
      <trkpt lat="45.51192" lon="6.69798">
        <ele>1937</ele>
        <time>2011-03-13T15:02:49.068Z</time>
      </trkpt>
      <trkpt lat="45.5119" lon="6.69795">
        <ele>1937</ele>
        <time>2011-03-13T15:03:05.062Z</time>
      </trkpt>
      <trkpt lat="45.51189" lon="6.69794">
        <ele>1937</ele>
        <time>2011-03-13T15:03:20.072Z</time>
      </trkpt>
      <trkpt lat="45.51185" lon="6.69793">
        <ele>1937</ele>
        <time>2011-03-13T15:03:36Z</time>
      </trkpt>
      <trkpt lat="45.5118" lon="6.6979">
        <ele>1939</ele>
        <time>2011-03-13T15:03:51.053Z</time>
      </trkpt>
      <trkpt lat="45.51177" lon="6.69788">
        <ele>1939</ele>
        <time>2011-03-13T15:04:07Z</time>
      </trkpt>
      <trkpt lat="45.51176" lon="6.69786">
        <ele>1939</ele>
        <time>2011-03-13T15:04:22.057Z</time>
      </trkpt>
      <trkpt lat="45.51175" lon="6.69787">
        <ele>1939</ele>
        <time>2011-03-13T15:04:38Z</time>
      </trkpt>
      <trkpt lat="45.51175" lon="6.69786">
        <ele>1939</ele>
        <time>2011-03-13T15:04:53.056Z</time>
      </trkpt>
      <trkpt lat="45.51135" lon="6.69783">
        <ele>1939</ele>
        <time>2011-03-13T15:05:09Z</time>
      </trkpt>
      <trkpt lat="45.51089" lon="6.69777">
        <ele>1955</ele>
        <time>2011-03-13T15:05:22Z</time>
      </trkpt>
      <trkpt lat="45.51041" lon="6.69775">
        <ele>1987</ele>
        <time>2011-03-13T15:05:36.056Z</time>
      </trkpt>
      <trkpt lat="45.50995" lon="6.69768">
        <ele>1987</ele>
        <time>2011-03-13T15:05:49Z</time>
      </trkpt>
      <trkpt lat="45.50948" lon="6.69762">
        <ele>2025</ele>
        <time>2011-03-13T15:06:03.072Z</time>
      </trkpt>
      <trkpt lat="45.509" lon="6.69759">
        <ele>2025</ele>
        <time>2011-03-13T15:06:18Z</time>
      </trkpt>
      <trkpt lat="45.50855" lon="6.69747">
        <ele>2062</ele>
        <time>2011-03-13T15:06:32Z</time>
      </trkpt>
      <trkpt lat="45.5081" lon="6.6972">
        <ele>2062</ele>
        <time>2011-03-13T15:06:44Z</time>
      </trkpt>
      <trkpt lat="45.50765" lon="6.69703">
        <ele>2097</ele>
        <time>2011-03-13T15:06:56.064Z</time>
      </trkpt>
      <trkpt lat="45.50722" lon="6.69682">
        <ele>2097</ele>
        <time>2011-03-13T15:07:07.181Z</time>
      </trkpt>
      <trkpt lat="45.50676" lon="6.69664">
        <ele>2106</ele>
        <time>2011-03-13T15:07:19Z</time>
      </trkpt>
      <trkpt lat="45.50629" lon="6.69646">
        <ele>2106</ele>
        <time>2011-03-13T15:07:31Z</time>
      </trkpt>
      <trkpt lat="45.50583" lon="6.69629">
        <ele>2108</ele>
        <time>2011-03-13T15:07:43Z</time>
      </trkpt>
      <trkpt lat="45.50538" lon="6.69616">
        <ele>2111</ele>
        <time>2011-03-13T15:07:55Z</time>
      </trkpt>
      <trkpt lat="45.50493" lon="6.69601">
        <ele>2111</ele>
        <time>2011-03-13T15:08:07Z</time>
      </trkpt>
      <trkpt lat="45.50448" lon="6.69588">
        <ele>2118</ele>
        <time>2011-03-13T15:08:19Z</time>
      </trkpt>
      <trkpt lat="45.50403" lon="6.69577">
        <ele>2118</ele>
        <time>2011-03-13T15:08:31.043Z</time>
      </trkpt>
      <trkpt lat="45.50359" lon="6.69562">
        <ele>2125</ele>
        <time>2011-03-13T15:08:43.07Z</time>
      </trkpt>
      <trkpt lat="45.50313" lon="6.69548">
        <ele>2125</ele>
        <time>2011-03-13T15:08:55Z</time>
      </trkpt>
      <trkpt lat="45.50269" lon="6.69534">
        <ele>2142</ele>
        <time>2011-03-13T15:09:07.083Z</time>
      </trkpt>
      <trkpt lat="45.50222" lon="6.69523">
        <ele>2142</ele>
        <time>2011-03-13T15:09:20.046Z</time>
      </trkpt>
      <trkpt lat="45.50174" lon="6.69514">
        <ele>2156</ele>
        <time>2011-03-13T15:09:34Z</time>
      </trkpt>
      <trkpt lat="45.50128" lon="6.69501">
        <ele>2156</ele>
        <time>2011-03-13T15:09:47Z</time>
      </trkpt>
      <trkpt lat="45.50082" lon="6.69491">
        <ele>2179</ele>
        <time>2011-03-13T15:10:00.047Z</time>
      </trkpt>
      <trkpt lat="45.50036" lon="6.6948">
        <ele>2200</ele>
        <time>2011-03-13T15:10:13.069Z</time>
      </trkpt>
      <trkpt lat="45.49989" lon="6.69469">
        <ele>2200</ele>
        <time>2011-03-13T15:10:26.042Z</time>
      </trkpt>
      <trkpt lat="45.49944" lon="6.69458">
        <ele>2216</ele>
        <time>2011-03-13T15:10:39Z</time>
      </trkpt>
      <trkpt lat="45.499" lon="6.69442">
        <ele>2216</ele>
        <time>2011-03-13T15:10:51.06Z</time>
      </trkpt>
      <trkpt lat="45.49853" lon="6.6943">
        <ele>2241</ele>
        <time>2011-03-13T15:11:04.046Z</time>
      </trkpt>
      <trkpt lat="45.49805" lon="6.69412">
        <ele>2241</ele>
        <time>2011-03-13T15:11:17Z</time>
      </trkpt>
      <trkpt lat="45.49787" lon="6.69402">
        <ele>2244</ele>
        <time>2011-03-13T15:11:32.7Z</time>
      </trkpt>
      <trkpt lat="45.49785" lon="6.69396">
        <ele>2244</ele>
        <time>2011-03-13T15:11:48.063Z</time>
      </trkpt>
      <trkpt lat="45.49783" lon="6.69393">
        <ele>2244</ele>
        <time>2011-03-13T15:12:03.07Z</time>
      </trkpt>
      <trkpt lat="45.49783" lon="6.69389">
        <ele>2244</ele>
        <time>2011-03-13T15:12:19Z</time>
      </trkpt>
      <trkpt lat="45.49756" lon="6.69334">
        <ele>2244</ele>
        <time>2011-03-13T15:12:32.053Z</time>
      </trkpt>
      <trkpt lat="45.49741" lon="6.69273">
        <ele>2237</ele>
        <time>2011-03-13T15:12:37.056Z</time>
      </trkpt>
      <trkpt lat="45.49771" lon="6.69218">
        <ele>2237</ele>
        <time>2011-03-13T15:12:44Z</time>
      </trkpt>
      <trkpt lat="45.49812" lon="6.69181">
        <ele>2228</ele>
        <time>2011-03-13T15:12:54.873Z</time>
      </trkpt>
      <trkpt lat="45.49855" lon="6.69148">
        <ele>2228</ele>
        <time>2011-03-13T15:13:04.063Z</time>
      </trkpt>
      <trkpt lat="45.49896" lon="6.69118">
        <ele>2218</ele>
        <time>2011-03-13T15:13:18Z</time>
      </trkpt>
      <trkpt lat="45.49935" lon="6.69084">
        <ele>2218</ele>
        <time>2011-03-13T15:13:27Z</time>
      </trkpt>
      <trkpt lat="45.49981" lon="6.69066">
        <ele>2205</ele>
        <time>2011-03-13T15:13:37Z</time>
      </trkpt>
      <trkpt lat="45.50031" lon="6.6905">
        <ele>2205</ele>
        <time>2011-03-13T15:13:48Z</time>
      </trkpt>
      <trkpt lat="45.5007" lon="6.69018">
        <ele>2186</ele>
        <time>2011-03-13T15:13:55.065Z</time>
      </trkpt>
      <trkpt lat="45.50113" lon="6.68991">
        <ele>2186</ele>
        <time>2011-03-13T15:14:04.046Z</time>
      </trkpt>
      <trkpt lat="45.50148" lon="6.6895">
        <ele>2163</ele>
        <time>2011-03-13T15:14:11.045Z</time>
      </trkpt>
      <trkpt lat="45.50173" lon="6.68889">
        <ele>2163</ele>
        <time>2011-03-13T15:14:18.286Z</time>
      </trkpt>
      <trkpt lat="45.50203" lon="6.68831">
        <ele>2163</ele>
        <time>2011-03-13T15:14:25Z</time>
      </trkpt>
      <trkpt lat="45.5023" lon="6.68778">
        <ele>2140</ele>
        <time>2011-03-13T15:14:35Z</time>
      </trkpt>
      <trkpt lat="45.50234" lon="6.68778">
        <ele>2140</ele>
        <time>2011-03-13T15:14:51.068Z</time>
      </trkpt>
      <trkpt lat="45.50246" lon="6.68758">
        <ele>2140</ele>
        <time>2011-03-13T15:15:07Z</time>
      </trkpt>
      <trkpt lat="45.5028" lon="6.6871">
        <ele>2140</ele>
        <time>2011-03-13T15:15:15Z</time>
      </trkpt>
      <trkpt lat="45.50307" lon="6.68652">
        <ele>2121</ele>
        <time>2011-03-13T15:15:20Z</time>
      </trkpt>
      <trkpt lat="45.50335" lon="6.68595">
        <ele>2111</ele>
        <time>2011-03-13T15:15:27Z</time>
      </trkpt>
      <trkpt lat="45.50359" lon="6.68527">
        <ele>2111</ele>
        <time>2011-03-13T15:15:35Z</time>
      </trkpt>
      <trkpt lat="45.50377" lon="6.68468">
        <ele>2103</ele>
        <time>2011-03-13T15:15:40Z</time>
      </trkpt>
      <trkpt lat="45.50389" lon="6.684">
        <ele>2098</ele>
        <time>2011-03-13T15:15:48Z</time>
      </trkpt>
      <trkpt lat="45.50381" lon="6.68334">
        <ele>2085</ele>
        <time>2011-03-13T15:15:57Z</time>
      </trkpt>
      <trkpt lat="45.50355" lon="6.68271">
        <ele>2079</ele>
        <time>2011-03-13T15:16:07Z</time>
      </trkpt>
      <trkpt lat="45.5033" lon="6.68218">
        <ele>2079</ele>
        <time>2011-03-13T15:16:15Z</time>
      </trkpt>
      <trkpt lat="45.5031" lon="6.68154">
        <ele>2066</ele>
        <time>2011-03-13T15:16:22Z</time>
      </trkpt>
      <trkpt lat="45.503" lon="6.68086">
        <ele>2057</ele>
        <time>2011-03-13T15:16:34Z</time>
      </trkpt>
      <trkpt lat="45.50308" lon="6.68018">
        <ele>2050</ele>
        <time>2011-03-13T15:16:42Z</time>
      </trkpt>
      <trkpt lat="45.50327" lon="6.67952">
        <ele>2032</ele>
        <time>2011-03-13T15:16:55Z</time>
      </trkpt>
      <trkpt lat="45.50332" lon="6.67886">
        <ele>2032</ele>
        <time>2011-03-13T15:17:08.06Z</time>
      </trkpt>
      <trkpt lat="45.50317" lon="6.67816">
        <ele>2022</ele>
        <time>2011-03-13T15:17:15.039Z</time>
      </trkpt>
      <trkpt lat="45.5034" lon="6.67756">
        <ele>2021</ele>
        <time>2011-03-13T15:17:22.057Z</time>
      </trkpt>
      <trkpt lat="45.50377" lon="6.6771">
        <ele>2001</ele>
        <time>2011-03-13T15:17:33.046Z</time>
      </trkpt>
      <trkpt lat="45.504" lon="6.67689">
        <ele>2000</ele>
        <time>2011-03-13T15:17:49.046Z</time>
      </trkpt>
      <trkpt lat="45.50402" lon="6.67661">
        <ele>2000</ele>
        <time>2011-03-13T15:18:04.054Z</time>
      </trkpt>
      <trkpt lat="45.50411" lon="6.67597">
        <ele>2002</ele>
        <time>2011-03-13T15:18:15.04Z</time>
      </trkpt>
      <trkpt lat="45.50451" lon="6.67565">
        <ele>2002</ele>
        <time>2011-03-13T15:18:23.038Z</time>
      </trkpt>
      <trkpt lat="45.5048" lon="6.67512">
        <ele>1987</ele>
        <time>2011-03-13T15:18:35.039Z</time>
      </trkpt>
      <trkpt lat="45.50474" lon="6.67461">
        <ele>1987</ele>
        <time>2011-03-13T15:18:50.865Z</time>
      </trkpt>
      <trkpt lat="45.50466" lon="6.67426">
        <ele>1990</ele>
        <time>2011-03-13T15:19:06.038Z</time>
      </trkpt>
      <trkpt lat="45.50466" lon="6.67414">
        <ele>1990</ele>
        <time>2011-03-13T15:19:22Z</time>
      </trkpt>
      <trkpt lat="45.50464" lon="6.67409">
        <ele>1990</ele>
        <time>2011-03-13T15:19:37.045Z</time>
      </trkpt>
      <trkpt lat="45.5046" lon="6.67401">
        <ele>1990</ele>
        <time>2011-03-13T15:19:53Z</time>
      </trkpt>
      <trkpt lat="45.50457" lon="6.67401">
        <ele>2005</ele>
        <time>2011-03-13T15:20:08.051Z</time>
      </trkpt>
      <trkpt lat="45.50453" lon="6.67396">
        <ele>2005</ele>
        <time>2011-03-13T15:20:24Z</time>
      </trkpt>
      <trkpt lat="45.50451" lon="6.67389">
        <ele>2005</ele>
        <time>2011-03-13T15:20:39.049Z</time>
      </trkpt>
      <trkpt lat="45.50451" lon="6.67386">
        <ele>2005</ele>
        <time>2011-03-13T15:20:55Z</time>
      </trkpt>
      <trkpt lat="45.5045" lon="6.67382">
        <ele>2005</ele>
        <time>2011-03-13T15:21:10.047Z</time>
      </trkpt>
      <trkpt lat="45.50451" lon="6.67379">
        <ele>2005</ele>
        <time>2011-03-13T15:21:26Z</time>
      </trkpt>
      <trkpt lat="45.50442" lon="6.6736">
        <ele>2004</ele>
        <time>2011-03-13T15:21:41.048Z</time>
      </trkpt>
      <trkpt lat="45.50435" lon="6.67316">
        <ele>2004</ele>
        <time>2011-03-13T15:21:57Z</time>
      </trkpt>
      <trkpt lat="45.50429" lon="6.6728">
        <ele>2014</ele>
        <time>2011-03-13T15:22:13Z</time>
      </trkpt>
      <trkpt lat="45.50421" lon="6.67242">
        <ele>2014</ele>
        <time>2011-03-13T15:22:29Z</time>
      </trkpt>
      <trkpt lat="45.50415" lon="6.67205">
        <ele>2035</ele>
        <time>2011-03-13T15:22:45Z</time>
      </trkpt>
      <trkpt lat="45.50406" lon="6.67168">
        <ele>2035</ele>
        <time>2011-03-13T15:23:01Z</time>
      </trkpt>
      <trkpt lat="45.50398" lon="6.6713">
        <ele>2035</ele>
        <time>2011-03-13T15:23:17Z</time>
      </trkpt>
      <trkpt lat="45.50397" lon="6.67121">
        <ele>2059</ele>
        <time>2011-03-13T15:23:33Z</time>
      </trkpt>
      <trkpt lat="45.50397" lon="6.6712">
        <ele>2059</ele>
        <time>2011-03-13T15:23:49Z</time>
      </trkpt>
      <trkpt lat="45.50393" lon="6.67103">
        <ele>2059</ele>
        <time>2011-03-13T15:24:04.095Z</time>
      </trkpt>
      <trkpt lat="45.50385" lon="6.67067">
        <ele>2059</ele>
        <time>2011-03-13T15:24:20.055Z</time>
      </trkpt>
      <trkpt lat="45.50377" lon="6.67027">
        <ele>2084</ele>
        <time>2011-03-13T15:24:36.052Z</time>
      </trkpt>
      <trkpt lat="45.50369" lon="6.6699">
        <ele>2087</ele>
        <time>2011-03-13T15:24:51.871Z</time>
      </trkpt>
      <trkpt lat="45.50362" lon="6.66952">
        <ele>2113</ele>
        <time>2011-03-13T15:25:07Z</time>
      </trkpt>
      <trkpt lat="45.50354" lon="6.66917">
        <ele>2113</ele>
        <time>2011-03-13T15:25:23Z</time>
      </trkpt>
      <trkpt lat="45.50344" lon="6.66877">
        <ele>2113</ele>
        <time>2011-03-13T15:25:39Z</time>
      </trkpt>
      <trkpt lat="45.50338" lon="6.66843">
        <ele>2138</ele>
        <time>2011-03-13T15:25:55Z</time>
      </trkpt>
      <trkpt lat="45.50331" lon="6.66805">
        <ele>2138</ele>
        <time>2011-03-13T15:26:11Z</time>
      </trkpt>
      <trkpt lat="45.50323" lon="6.66769">
        <ele>2155</ele>
        <time>2011-03-13T15:26:27Z</time>
      </trkpt>
      <trkpt lat="45.50316" lon="6.66733">
        <ele>2155</ele>
        <time>2011-03-13T15:26:43Z</time>
      </trkpt>
      <trkpt lat="45.50306" lon="6.66687">
        <ele>2167</ele>
        <time>2011-03-13T15:26:59Z</time>
      </trkpt>
      <trkpt lat="45.50295" lon="6.66642">
        <ele>2167</ele>
        <time>2011-03-13T15:27:15Z</time>
      </trkpt>
      <trkpt lat="45.50288" lon="6.66605">
        <ele>2195</ele>
        <time>2011-03-13T15:27:31Z</time>
      </trkpt>
      <trkpt lat="45.50282" lon="6.6657">
        <ele>2195</ele>
        <time>2011-03-13T15:27:47Z</time>
      </trkpt>
      <trkpt lat="45.50276" lon="6.66534">
        <ele>2221</ele>
        <time>2011-03-13T15:28:03Z</time>
      </trkpt>
      <trkpt lat="45.50265" lon="6.66494">
        <ele>2221</ele>
        <time>2011-03-13T15:28:19Z</time>
      </trkpt>
      <trkpt lat="45.50259" lon="6.66457">
        <ele>2240</ele>
        <time>2011-03-13T15:28:35Z</time>
      </trkpt>
      <trkpt lat="45.50251" lon="6.66422">
        <ele>2240</ele>
        <time>2011-03-13T15:28:50.069Z</time>
      </trkpt>
      <trkpt lat="45.50242" lon="6.66388">
        <ele>2240</ele>
        <time>2011-03-13T15:29:06.035Z</time>
      </trkpt>
      <trkpt lat="45.50237" lon="6.66353">
        <ele>2267</ele>
        <time>2011-03-13T15:29:21.067Z</time>
      </trkpt>
      <trkpt lat="45.50232" lon="6.6632">
        <ele>2267</ele>
        <time>2011-03-13T15:29:37Z</time>
      </trkpt>
      <trkpt lat="45.50224" lon="6.66284">
        <ele>2293</ele>
        <time>2011-03-13T15:29:54.038Z</time>
      </trkpt>
      <trkpt lat="45.50218" lon="6.66253">
        <ele>2293</ele>
        <time>2011-03-13T15:30:09.061Z</time>
      </trkpt>
      <trkpt lat="45.50203" lon="6.66209">
        <ele>2299</ele>
        <time>2011-03-13T15:30:25.038Z</time>
      </trkpt>
      <trkpt lat="45.50191" lon="6.6615">
        <ele>2331</ele>
        <time>2011-03-13T15:30:41.045Z</time>
      </trkpt>
      <trkpt lat="45.50208" lon="6.66137">
        <ele>2331</ele>
        <time>2011-03-13T15:30:57.044Z</time>
      </trkpt>
      <trkpt lat="45.50209" lon="6.66135">
        <ele>2319</ele>
        <time>2011-03-13T15:31:13.037Z</time>
      </trkpt>
      <trkpt lat="45.50217" lon="6.66135">
        <ele>2319</ele>
        <time>2011-03-13T15:31:29Z</time>
      </trkpt>
      <trkpt lat="45.50264" lon="6.66116">
        <ele>2314</ele>
        <time>2011-03-13T15:31:43.043Z</time>
      </trkpt>
      <trkpt lat="45.50315" lon="6.66105">
        <ele>2310</ele>
        <time>2011-03-13T15:31:52Z</time>
      </trkpt>
      <trkpt lat="45.50367" lon="6.66099">
        <ele>2310</ele>
        <time>2011-03-13T15:31:58.86Z</time>
      </trkpt>
      <trkpt lat="45.50415" lon="6.66086">
        <ele>2311</ele>
        <time>2011-03-13T15:32:05.658Z</time>
      </trkpt>
      <trkpt lat="45.50461" lon="6.66079">
        <ele>2305</ele>
        <time>2011-03-13T15:32:18Z</time>
      </trkpt>
      <trkpt lat="45.50506" lon="6.66092">
        <ele>2305</ele>
        <time>2011-03-13T15:32:33Z</time>
      </trkpt>
      <trkpt lat="45.50553" lon="6.66108">
        <ele>2289</ele>
        <time>2011-03-13T15:32:39Z</time>
      </trkpt>
      <trkpt lat="45.50598" lon="6.66125">
        <ele>2289</ele>
        <time>2011-03-13T15:32:45Z</time>
      </trkpt>
      <trkpt lat="45.50644" lon="6.66137">
        <ele>2274</ele>
        <time>2011-03-13T15:32:52.093Z</time>
      </trkpt>
      <trkpt lat="45.50683" lon="6.66182">
        <ele>2274</ele>
        <time>2011-03-13T15:33:02Z</time>
      </trkpt>
      <trkpt lat="45.50706" lon="6.66238">
        <ele>2250</ele>
        <time>2011-03-13T15:33:16.041Z</time>
      </trkpt>
      <trkpt lat="45.507" lon="6.66303">
        <ele>2229</ele>
        <time>2011-03-13T15:33:25.074Z</time>
      </trkpt>
      <trkpt lat="45.5073" lon="6.6636">
        <ele>2221</ele>
        <time>2011-03-13T15:33:34.035Z</time>
      </trkpt>
      <trkpt lat="45.50747" lon="6.66353">
        <ele>2221</ele>
        <time>2011-03-13T15:33:49.061Z</time>
      </trkpt>
      <trkpt lat="45.50795" lon="6.66374">
        <ele>2180</ele>
        <time>2011-03-13T15:34:03Z</time>
      </trkpt>
      <trkpt lat="45.50842" lon="6.66358">
        <ele>2180</ele>
        <time>2011-03-13T15:34:14.036Z</time>
      </trkpt>
      <trkpt lat="45.50887" lon="6.66379">
        <ele>2143</ele>
        <time>2011-03-13T15:34:23Z</time>
      </trkpt>
      <trkpt lat="45.50934" lon="6.66398">
        <ele>2143</ele>
        <time>2011-03-13T15:34:31.034Z</time>
      </trkpt>
      <trkpt lat="45.50957" lon="6.66454">
        <ele>2143</ele>
        <time>2011-03-13T15:34:37Z</time>
      </trkpt>
      <trkpt lat="45.51003" lon="6.66476">
        <ele>2118</ele>
        <time>2011-03-13T15:34:45.052Z</time>
      </trkpt>
      <trkpt lat="45.51051" lon="6.66472">
        <ele>2111</ele>
        <time>2011-03-13T15:34:56.039Z</time>
      </trkpt>
      <trkpt lat="45.51096" lon="6.66493">
        <ele>2111</ele>
        <time>2011-03-13T15:35:06Z</time>
      </trkpt>
      <trkpt lat="45.5114" lon="6.66528">
        <ele>2093</ele>
        <time>2011-03-13T15:35:14Z</time>
      </trkpt>
      <trkpt lat="45.51178" lon="6.66568">
        <ele>2084</ele>
        <time>2011-03-13T15:35:22Z</time>
      </trkpt>
      <trkpt lat="45.51202" lon="6.66628">
        <ele>2068</ele>
        <time>2011-03-13T15:35:31Z</time>
      </trkpt>
      <trkpt lat="45.51206" lon="6.66692">
        <ele>2068</ele>
        <time>2011-03-13T15:35:38Z</time>
      </trkpt>
      <trkpt lat="45.51208" lon="6.66706">
        <ele>2068</ele>
        <time>2011-03-13T15:35:54Z</time>
      </trkpt>
      <trkpt lat="45.51209" lon="6.66701">
        <ele>2049</ele>
        <time>2011-03-13T15:36:10Z</time>
      </trkpt>
      <trkpt lat="45.5121" lon="6.66702">
        <ele>2049</ele>
        <time>2011-03-13T15:36:25.046Z</time>
      </trkpt>
      <trkpt lat="45.51208" lon="6.66701">
        <ele>2068</ele>
        <time>2011-03-13T15:36:40.849Z</time>
      </trkpt>
      <trkpt lat="45.51207" lon="6.6669">
        <ele>2068</ele>
        <time>2011-03-13T15:36:56.061Z</time>
      </trkpt>
      <trkpt lat="45.51207" lon="6.6669">
        <ele>2068</ele>
        <time>2011-03-13T15:37:12Z</time>
      </trkpt>
    </trkseg>
  </trk>
</gpx>